GFSMA_925_thetae_000.txt.gz
Theta_e
323 321 314 311 313 314 313 314 315 320 322 321 322 323 323 321 320 318 318 318 313 315 323 327 328 328 325 324 321 320 319 319 318 319 318 317 317 317 317 316 316 316 316
321 323 320 319 321 322 323 322 320 319 321 322 323 325 325 324 320 319 319 318 319 312 313 323 326 328 327 325 321 319 319 319 318 318 317 316 315 316 316 316 315 315 314
316 317 316 315 315 318 320 322 324 324 324 324 323 323 322 323 322 320 318 318 318 317 311 314 322 325 327 326 322 319 318 318 317 318 317 316 315 314 315 314 313 313 313
309 310 311 312 313 314 315 316 317 320 321 322 322 320 320 321 322 321 319 319 318 316 311 309 315 321 326 326 324 321 319 319 318 317 317 316 315 314 314 314 313 313 313
305 305 306 307 306 306 308 308 309 312 313 315 316 321 321 320 322 321 319 318 320 319 317 310 311 317 323 326 325 324 321 319 319 318 317 316 315 314 315 314 313 312 313
303 302 303 304 303 302 301 301 302 303 306 311 309 315 321 322 322 322 321 318 319 320 321 319 312 314 318 324 325 324 323 320 319 320 318 318 315 314 314 314 312 315 313
302 302 302 302 302 302 302 301 300 300 301 304 304 309 313 318 322 321 319 321 319 318 318 318 313 313 318 322 323 324 322 321 319 319 320 318 317 315 314 313 313 314 315
302 301 301 301 301 301 301 301 301 300 300 301 302 302 314 318 319 318 320 321 320 317 319 317 314 313 315 320 322 323 322 322 320 318 318 317 317 315 314 313 312 313 313
303 303 302 301 301 301 301 301 300 300 300 299 300 302 304 311 309 313 318 319 320 318 316 317 315 313 313 316 321 321 323 321 321 319 317 317 316 315 313 313 312 309 309
302 302 302 302 302 301 301 300 299 300 300 300 299 299 302 300 302 304 307 309 315 318 317 315 315 314 314 315 316 319 321 322 320 321 319 316 316 316 314 312 307 306 309
301 301 301 302 302 302 301 301 301 300 299 299 299 299 299 299 299 303 302 304 309 308 315 316 315 316 315 316 316 317 320 321 320 320 320 319 316 315 314 308 306 306 308
299 299 299 299 299 299 299 300 300 300 300 300 299 299 298 299 299 299 304 304 302 302 304 310 314 314 315 315 317 317 318 320 320 319 320 320 318 315 315 309 306 307 308
296 296 295 295 295 295 295 296 296 297 298 298 298 298 298 298 297 297 297 299 300 300 302 304 310 312 312 315 316 316 317 318 318 318 317 321 320 318 316 315 312 308 307
293 293 293 293 293 293 293 293 293 294 294 296 297 298 298 297 296 296 296 297 299 299 299 302 303 307 311 311 314 315 315 316 317 312 316 316 320 320 318 316 314 310 310
292 291 291 291 291 292 292 293 293 294 295 295 297 297 298 298 296 296 296 296 297 298 299 298 301 304 305 307 310 311 314 312 314 314 314 313 316 317 319 318 317 312 313
291 291 290 291 291 291 291 291 292 292 293 294 295 296 297 297 296 296 296 296 296 297 299 297 297 304 305 307 308 309 311 311 311 311 314 314 313 315 315 317 317 315 314
290 290 290 290 290 290 290 290 291 291 292 292 293 294 295 296 296 296 295 295 295 296 298 297 297 298 301 302 303 304 306 308 311 313 309 312 313 312 313 314 316 316 315
289 289 289 289 288 288 288 289 289 290 290 291 292 292 293 295 295 295 295 295 294 294 295 299 297 297 299 300 301 300 301 305 307 311 312 309 308 311 311 312 316 315 312
289 288 288 287 287 287 287 288 288 289 289 290 291 291 292 292 293 294 294 294 294 294 294 296 297 296 297 299 301 301 302 303 305 306 310 310 307 309 311 315 316 313 309
287 287 286 286 286 286 287 287 287 288 288 288 288 288 289 291 292 292 293 293 294 294 295 295 295 296 297 299 299 299 299 301 303 305 305 308 308 310 313 315 313 310 307
286 286 286 285 286 286 286 286 286 286 286 286 286 286 287 287 288 289 291 292 293 294 295 295 296 296 297 298 298 298 299 297 297 301 301 303 303 309 311 310 307 305 302
285 285 285 285 286 286 285 284 283 283 283 284 285 285 286 286 287 287 287 288 290 292 293 294 295 297 297 298 298 298 295 293 295 292 296 295 296 298 299 300 303 301 297
285 285 285 285 285 285 284 283 283 282 283 284 285 285 286 286 286 287 287 287 287 288 289 290 293 295 296 297 298 298 295 297 295 292 293 289 291 291 292 295 299 297 299
284 284 285 285 284 284 283 283 282 282 283 284 284 285 285 286 286 287 287 288 288 289 288 288 289 293 295 296 296 298 296 295 293 291 292 287 287 286 288 291 293 294 292
284 284 284 284 283 283 283 282 282 282 283 284 284 284 285 285 286 286 286 287 287 288 289 289 289 290 292 293 296 298 294 293 289 288 289 285 284 284 285 286 288 288 287
284 283 283 282 282 282 282 282 282 283 283 284 285 285 285 285 286 286 286 286 288 288 289 289 290 290 291 291 291 296 295 295 290 288 286 284 283 283 282 285 286 286 285

GFSMA_925_thetae_003.txt.gz
Theta_e
322 322 321 320 319 319 318 318 313 312 314 316 319 316 319 324 324 323 322 320 319 321 320 315 326 328 328 326 324 322 321 320 320 319 320 319 317 318 319 319 318 317 317
320 321 320 319 318 320 321 322 322 323 322 321 322 320 319 322 325 324 323 322 317 315 317 321 316 326 328 328 325 323 320 320 320 319 319 319 317 317 317 317 317 316 316
315 314 313 314 314 316 315 316 319 321 322 322 324 323 323 322 323 324 323 323 323 320 321 320 312 319 325 327 327 323 321 319 318 318 318 318 317 317 317 317 316 316 316
311 311 311 310 309 310 311 312 313 314 317 319 319 320 323 323 322 322 323 322 322 322 319 318 312 310 318 323 327 325 322 319 318 317 317 318 316 316 316 316 316 315 315
306 306 307 307 306 305 305 304 304 307 309 312 315 313 315 321 322 322 323 322 322 321 321 317 312 308 308 317 322 327 325 322 318 318 317 317 316 315 315 316 315 315 313
305 305 305 306 305 304 304 304 303 303 303 304 307 306 309 318 321 322 323 323 322 321 320 319 316 312 310 310 315 322 327 324 322 321 318 317 316 315 315 315 314 313 313
304 305 304 304 304 304 304 304 304 303 303 303 303 305 304 306 312 321 322 322 322 321 321 321 319 319 314 314 311 317 324 327 324 322 320 317 317 316 315 314 314 313 312
305 304 304 304 303 303 304 304 303 303 303 303 302 302 306 307 308 314 318 320 322 322 321 320 320 319 319 316 317 313 319 326 326 322 320 320 318 317 315 315 315 313 312
305 305 305 304 304 304 303 303 303 303 302 302 302 302 303 306 307 303 309 311 317 320 321 320 318 319 318 318 316 320 316 320 326 324 321 321 320 318 316 314 315 314 314
305 305 304 303 303 303 303 303 302 302 302 302 303 302 303 302 304 304 302 302 307 309 314 319 318 318 317 317 317 316 321 319 322 323 321 319 320 319 317 316 315 314 314
303 303 303 302 302 302 302 302 302 302 302 303 303 303 303 303 303 305 305 304 303 306 310 308 313 318 317 316 315 316 317 321 322 323 322 320 319 319 317 316 315 315 314
301 301 300 300 300 300 300 300 300 301 301 301 302 302 302 303 303 304 305 305 304 304 305 304 306 309 316 316 315 316 315 318 321 321 322 321 320 318 317 317 316 314 314
298 298 298 297 296 296 296 296 296 297 297 298 299 300 300 300 301 301 302 303 304 301 301 301 306 307 307 312 316 315 316 317 318 320 321 321 321 319 317 317 316 315 314
297 296 295 295 294 294 294 294 294 295 295 296 297 297 298 299 300 300 301 302 303 303 301 301 301 305 305 309 312 313 315 316 317 318 319 321 321 320 319 318 317 316 313
295 294 294 294 293 293 293 293 294 294 295 295 297 298 298 298 299 300 301 301 301 302 302 300 301 302 305 305 304 306 311 313 316 315 318 319 320 320 320 319 317 315 312
294 294 293 293 292 292 292 293 293 293 294 294 295 296 296 297 298 299 299 300 300 300 301 299 299 299 302 308 307 307 306 311 312 315 314 317 318 318 320 320 319 316 313
293 292 292 292 292 292 292 292 292 292 293 293 293 294 295 295 296 297 297 298 299 298 300 299 298 298 299 304 305 304 307 308 306 309 311 313 314 317 317 318 319 318 316
292 292 291 291 291 291 291 291 291 291 291 291 292 293 293 294 295 295 296 297 298 298 298 299 298 297 298 300 300 302 303 298 304 306 308 311 311 313 316 316 317 318 318
292 291 291 290 290 290 290 290 290 290 290 290 291 291 292 293 293 294 295 296 297 297 297 297 297 297 297 298 300 300 303 302 299 301 304 304 308 309 312 315 316 316 317
291 290 290 289 289 289 289 289 289 289 289 289 290 290 289 290 290 291 293 294 295 295 296 296 296 296 297 297 298 300 301 299 300 301 302 301 304 306 309 310 314 315 315
290 289 288 288 288 288 288 288 288 288 287 287 286 286 287 287 287 288 289 290 291 293 295 296 296 296 297 297 298 299 300 299 298 299 301 303 304 304 304 310 310 314 314
288 288 288 288 288 287 287 287 286 286 285 284 284 284 285 285 286 286 286 287 287 289 291 293 295 296 296 297 297 298 299 296 297 296 297 298 302 301 302 305 308 311 312
288 287 287 287 287 287 287 286 284 284 284 284 284 284 285 285 286 286 287 287 287 287 286 287 289 292 295 296 296 297 299 297 297 295 295 292 294 301 298 299 305 308 309
287 287 286 286 286 286 285 284 284 283 283 283 283 284 285 285 286 286 287 288 288 288 288 287 287 288 290 293 295 295 297 297 294 293 294 289 290 289 295 294 294 299 310
286 286 285 285 284 284 283 283 283 283 284 284 284 284 285 285 286 286 286 286 287 288 289 288 288 289 289 289 290 291 295 294 290 289 291 287 285 285 287 291 291 291 293
285 285 284 284 283 283 284 284 284 285 286 286 285 285 285 285 285 285 286 286 287 287 287 288 289 288 289 288 289 289 291 296 292 289 289 286 285 285 285 286 288 289 290

GFSMA_925_thetae_006.txt.gz
Theta_e
323 322 321 321 320 321 321 320 319 315 314 315 315 317 317 317 318 319 322 323 325 324 323 326 328 329 327 328 327 326 325 323 321 318 316 319 320 320 321 322 322 320 319
321 322 320 319 318 319 319 319 321 321 321 322 322 319 320 320 318 317 322 324 323 322 320 321 324 328 330 327 327 326 325 323 319 317 319 318 318 318 317 320 320 319 317
315 315 314 314 314 314 314 314 315 315 317 319 321 322 323 322 322 322 322 324 324 323 322 317 316 319 326 329 329 327 326 324 321 316 318 318 318 317 316 317 318 317 316
312 312 311 311 308 308 308 307 306 306 311 313 316 317 316 318 321 322 323 322 322 323 322 323 320 317 320 320 326 328 327 325 322 319 317 318 318 317 315 317 317 317 316
308 307 308 307 305 305 305 304 304 303 303 304 305 310 308 306 308 314 321 322 323 322 321 322 322 321 319 311 319 327 328 326 323 321 318 317 318 318 316 316 316 316 316
306 306 306 306 306 305 305 305 305 304 304 304 303 303 304 305 309 312 313 320 322 322 323 322 320 320 317 317 309 312 325 328 326 323 319 317 318 317 316 316 316 316 315
306 305 305 305 305 305 304 304 304 304 303 304 304 303 303 303 304 305 308 318 320 322 322 322 320 320 318 315 310 310 318 324 328 325 322 319 317 317 316 315 316 316 315
305 305 305 304 304 304 304 304 305 304 304 303 304 304 303 303 304 303 304 305 311 314 320 321 321 320 319 319 316 312 311 318 325 327 323 321 318 316 316 315 315 315 315
306 306 305 305 304 304 304 304 303 303 303 304 303 304 304 304 303 303 303 302 303 302 307 307 317 320 319 319 319 316 316 315 321 325 325 322 320 318 317 316 315 315 315
306 306 305 305 304 303 303 303 304 303 303 304 304 304 303 303 303 303 303 303 302 302 302 305 305 312 319 318 318 318 317 317 318 318 321 323 322 319 317 316 315 314 315
304 304 304 303 303 303 302 302 301 301 302 303 303 304 303 303 303 303 303 302 303 303 302 302 305 308 304 309 318 317 317 318 317 320 317 317 321 321 319 317 316 315 315
302 301 301 300 299 299 299 298 298 298 298 299 299 300 301 301 301 301 301 301 301 302 302 301 301 302 302 303 306 316 317 316 316 317 320 319 322 322 321 319 317 316 315
300 299 298 297 297 296 296 295 295 295 296 297 297 297 297 298 299 299 299 298 298 299 300 301 300 300 301 302 302 303 311 316 316 316 316 320 322 322 321 320 319 317 316
298 298 297 296 295 294 294 294 294 294 295 295 295 296 297 297 298 298 298 299 299 299 300 300 300 300 300 301 301 301 302 304 315 315 315 316 320 322 321 320 320 319 317
296 296 295 295 294 294 294 294 294 294 294 294 295 295 295 296 297 298 297 297 298 298 299 300 300 299 299 300 304 303 305 304 304 311 313 315 316 319 321 320 319 318 317
295 295 294 293 293 293 293 293 293 293 293 294 294 294 295 295 296 296 296 297 298 299 299 298 299 299 299 298 299 303 304 306 305 306 306 309 312 316 319 321 320 318 317
294 294 293 293 292 292 292 292 292 292 292 292 292 293 293 293 293 294 295 295 296 296 297 298 298 298 299 298 297 299 301 303 303 308 308 309 307 310 314 318 319 319 318
294 293 292 292 292 292 292 291 291 291 291 291 291 292 292 292 293 293 294 294 295 295 296 296 297 298 298 297 296 296 298 302 302 300 301 301 303 306 309 311 318 319 319
293 292 292 292 291 291 291 290 290 290 290 290 290 290 290 291 291 292 292 293 293 294 295 296 296 296 297 297 297 296 296 297 300 302 301 298 297 305 306 308 307 317 319
293 292 291 291 290 289 289 289 289 289 289 289 290 290 290 290 290 290 290 290 291 291 292 293 295 295 296 296 296 296 295 295 299 300 299 299 298 300 303 305 305 305 316
292 291 290 289 289 289 289 289 288 288 287 287 287 287 287 286 286 287 287 288 288 289 290 291 293 294 295 295 295 296 296 296 298 299 298 297 297 300 301 303 304 303 308
291 289 289 289 289 288 288 287 287 286 286 286 285 285 285 285 285 285 285 286 286 287 287 288 290 292 293 294 295 296 296 296 296 297 297 295 296 298 301 303 302 302 303
289 289 288 288 287 287 287 286 285 285 284 284 284 284 284 284 284 285 285 286 286 286 286 286 286 287 289 290 292 295 295 294 296 297 296 294 295 295 298 299 303 303 303
288 288 287 287 286 286 285 284 283 283 284 284 284 284 284 284 284 284 285 286 286 287 287 287 286 286 287 287 288 290 293 292 295 296 294 293 291 290 292 295 300 301 302
287 287 286 286 285 285 284 284 284 284 285 285 285 285 285 285 285 285 286 286 286 286 286 288 288 288 287 287 287 288 289 290 292 291 292 292 288 288 288 291 294 298 301
286 286 285 285 285 284 284 284 285 286 286 286 285 286 285 286 286 285 286 286 286 286 287 286 287 287 288 289 288 289 289 289 290 290 290 290 286 287 285 287 290 293 296

GFSMA_925_thetae_009.txt.gz
Theta_e
322 321 322 319 320 321 320 321 321 320 319 320 320 319 316 317 317 317 319 319 320 321 323 326 327 329 329 326 329 327 326 326 325 325 324 322 321 322 321 323 323 323 322
322 322 321 320 318 317 316 315 316 317 318 319 321 321 321 322 322 322 320 319 320 320 323 323 322 327 328 329 328 328 326 325 325 324 323 321 319 321 321 321 322 321 321
319 316 317 314 314 312 312 309 307 305 308 311 313 315 317 318 318 320 322 322 322 321 323 323 322 321 324 327 329 328 327 326 325 324 322 319 314 317 320 319 320 319 319
313 312 312 311 311 307 307 305 304 303 303 303 303 304 310 305 305 305 307 316 322 322 322 321 322 322 321 321 324 329 328 326 326 324 322 318 312 310 316 317 317 319 318
308 309 309 308 305 305 305 304 304 304 303 304 303 304 303 302 302 303 305 312 312 318 322 322 322 321 322 321 318 322 324 329 327 325 323 319 315 314 314 316 316 317 317
306 306 307 306 305 305 305 305 304 304 303 303 303 303 303 303 303 303 304 305 308 313 316 321 322 322 321 321 320 319 322 325 329 326 324 321 318 317 316 316 315 316 316
307 306 305 306 305 305 304 305 304 304 304 303 303 303 302 302 303 302 303 302 303 302 311 316 320 322 322 320 320 318 319 319 322 325 326 324 321 318 317 316 316 316 316
307 306 305 305 304 304 303 303 304 304 304 303 304 302 300 302 302 303 302 302 302 303 302 302 303 313 319 320 320 319 316 317 317 320 325 326 322 319 317 317 316 316 316
306 305 305 305 304 304 304 304 304 303 303 304 302 303 302 302 302 303 303 303 302 302 302 302 302 304 305 313 320 319 318 318 314 316 321 324 322 321 319 317 316 316 315
306 306 306 306 305 304 303 304 304 302 301 302 302 302 302 303 303 302 302 302 302 302 302 302 302 302 305 308 307 313 318 318 318 316 315 319 325 321 321 318 316 315 316
306 306 306 304 303 303 303 301 300 300 298 298 299 299 299 300 300 300 300 300 300 300 301 301 301 301 301 302 301 303 304 316 318 317 317 318 319 321 322 320 317 315 314
304 303 303 302 301 299 297 296 296 295 295 294 294 296 297 298 298 298 298 298 298 298 298 297 298 298 299 300 300 302 302 302 312 317 316 316 317 320 321 320 319 317 315
300 299 298 298 298 297 298 297 295 294 293 293 294 295 295 296 296 296 296 296 295 296 296 297 298 298 299 300 299 299 299 300 300 301 311 316 316 316 320 321 320 319 317
298 297 296 295 295 295 295 295 295 293 293 293 294 294 294 294 295 295 296 296 296 296 296 296 297 299 299 299 300 301 303 305 305 305 306 307 313 315 316 317 319 318 317
296 296 296 295 295 295 295 294 294 293 293 293 293 293 294 294 294 294 295 295 295 296 296 296 296 296 296 296 299 299 298 302 301 303 305 305 304 309 312 315 316 319 318
296 296 296 297 295 294 294 292 292 292 292 292 292 293 293 293 293 294 294 295 295 295 295 295 296 297 298 298 299 298 298 297 297 299 301 302 302 306 307 310 312 314 319
296 296 295 294 294 293 292 292 292 292 292 291 291 291 291 292 292 292 293 293 293 293 293 294 294 294 295 296 297 297 298 297 298 297 299 302 303 304 304 306 307 309 313
294 295 294 293 292 292 292 292 291 291 290 290 290 290 290 290 290 290 291 291 291 292 292 292 293 293 294 295 296 297 297 297 296 296 298 302 300 300 299 298 299 303 306
294 293 293 293 292 291 291 290 289 289 289 289 289 289 289 290 289 289 289 290 290 291 291 292 292 293 293 294 295 296 296 297 296 296 296 300 298 298 298 299 296 302 301
294 293 292 292 291 290 289 289 289 289 289 288 288 287 287 287 287 287 287 287 288 288 289 289 290 290 291 292 294 295 295 296 296 295 295 295 297 298 298 297 298 297 303
292 292 291 290 289 289 288 288 288 287 287 286 286 286 286 286 286 286 286 286 286 286 287 287 288 288 289 290 292 294 294 295 295 295 296 296 298 298 297 296 297 297 300
292 290 289 289 288 287 287 287 287 285 285 284 284 284 284 284 284 285 285 285 285 285 285 285 286 287 287 289 291 291 291 292 288 295 295 296 297 298 297 296 295 298 299
289 288 288 287 287 286 286 285 284 284 284 284 283 283 284 284 284 284 284 284 284 285 285 285 285 285 286 286 287 289 289 291 292 293 295 293 296 296 296 296 295 297 299
288 287 286 286 285 285 284 284 284 284 284 284 284 284 284 284 284 284 284 284 284 284 285 285 286 286 286 286 286 286 287 289 290 291 292 292 294 294 295 295 295 296 298
287 286 286 285 285 285 283 283 284 284 284 285 285 285 285 285 285 285 285 285 285 284 285 285 286 286 287 287 286 286 286 287 288 289 292 292 291 291 292 294 293 294 296
285 285 285 285 283 283 283 283 283 284 284 284 284 284 284 284 285 285 286 286 286 285 285 286 286 286 287 287 287 287 287 287 287 288 290 291 289 289 287 289 290 291 294

GFSMA_925_thetae_012.txt.gz
Theta_e
322 321 322 319 317 318 319 319 318 318 316 317 318 319 320 321 321 320 318 320 319 319 319 323 325 327 328 327 325 324 327 327 326 325 324 323 327 327 326 325 324 324 324
321 321 321 320 320 317 316 312 310 309 310 313 314 314 316 317 318 318 318 320 321 321 320 320 321 325 326 326 329 326 324 327 326 326 325 323 320 321 322 323 324 324 324
320 321 320 319 317 315 311 308 305 303 303 303 303 304 305 309 305 304 304 304 309 319 321 322 320 322 322 323 324 328 328 326 327 326 325 325 324 322 320 321 321 323 323
315 316 314 314 312 308 308 305 303 303 303 303 303 303 303 303 303 302 303 303 304 312 312 311 320 321 320 321 323 324 327 328 326 326 326 325 324 323 321 321 321 321 322
311 311 311 311 310 305 305 304 304 303 303 303 303 303 303 303 302 302 303 303 304 307 307 312 314 318 320 320 321 322 324 325 327 326 325 325 324 323 320 319 320 320 320
309 306 308 308 306 305 304 304 304 303 304 303 303 302 303 302 302 302 301 303 302 302 302 304 303 313 320 320 320 321 322 323 323 323 328 325 325 324 321 315 317 319 318
309 307 305 306 306 305 304 305 304 304 304 303 302 303 303 302 302 301 303 303 301 302 302 302 302 302 305 316 320 321 321 321 323 323 323 323 325 325 323 319 312 316 317
309 308 306 305 305 305 305 304 303 304 303 302 303 301 299 301 300 302 301 302 302 302 302 302 302 302 303 304 304 313 319 319 320 322 321 323 324 324 324 321 316 313 316
309 308 307 306 305 304 304 304 304 303 303 303 302 302 300 299 301 300 301 301 301 301 301 301 301 301 301 304 309 309 309 313 317 318 319 318 319 323 324 322 319 316 315
308 307 306 305 305 304 304 304 303 302 301 300 299 300 299 300 299 299 299 299 298 298 299 298 299 301 300 301 303 303 303 302 305 313 317 318 316 319 321 323 321 318 316
306 306 306 305 305 305 304 301 299 296 294 294 294 294 293 294 296 297 296 295 296 296 297 298 298 298 297 295 296 298 301 300 302 302 309 317 317 315 316 318 320 320 318
305 306 305 306 302 299 298 298 297 295 295 296 297 296 294 295 295 295 295 294 294 295 295 295 295 296 297 298 298 297 299 300 300 299 300 303 312 316 317 317 322 319 319
303 302 300 297 296 295 295 296 297 298 299 298 295 294 293 293 294 295 295 295 295 295 295 296 296 296 296 297 297 297 299 300 301 304 305 304 305 310 315 316 318 319 321
299 296 295 295 296 297 297 297 296 297 295 293 294 294 293 293 293 294 294 294 294 294 294 295 295 295 295 296 295 295 296 301 300 301 303 304 305 306 309 311 314 316 320
296 296 296 296 297 296 297 295 293 293 293 293 292 292 292 292 292 293 293 293 293 294 294 294 295 295 296 296 297 297 297 298 299 298 297 297 300 301 301 304 308 311 315
296 297 298 298 296 294 294 293 293 292 292 292 292 292 291 291 292 292 292 292 293 292 292 292 292 293 293 294 294 294 295 295 295 297 297 299 298 299 303 306 307 305 307
298 299 297 295 294 293 293 293 292 292 292 291 291 290 290 290 290 290 290 291 291 291 291 291 292 292 293 293 293 293 294 295 295 294 298 296 296 300 301 300 299 299 299
296 295 294 294 293 293 292 292 291 290 289 289 289 289 289 289 289 289 289 289 289 289 290 290 290 290 291 292 293 294 294 295 295 296 296 297 296 298 301 298 298 298 297
294 293 293 293 293 292 291 290 289 289 288 288 288 288 288 288 288 288 289 288 288 289 289 289 289 289 290 290 291 291 292 293 294 295 296 296 297 299 298 295 296 296 297
293 293 292 292 291 290 289 288 288 288 288 287 287 287 286 286 286 286 286 286 286 286 286 287 287 288 288 288 289 290 291 291 292 294 295 295 295 295 295 294 296 297 297
293 292 291 290 289 288 287 287 287 287 286 285 285 284 284 284 285 286 286 286 286 286 285 285 285 286 286 287 288 289 290 292 293 294 294 295 295 295 295 295 297 297 296
292 290 289 288 287 286 286 286 285 284 284 284 283 283 283 283 284 284 284 284 285 285 285 285 285 285 285 285 286 287 289 289 290 292 292 294 295 295 295 295 296 297 296
289 288 287 286 286 286 285 284 284 283 284 284 284 283 283 283 284 284 284 284 284 284 284 284 285 285 285 285 285 286 287 288 288 289 290 291 293 295 295 295 296 296 296
287 286 286 285 285 285 285 283 283 283 283 283 284 284 283 283 283 284 284 284 284 284 284 284 284 285 285 285 285 285 285 286 286 287 288 290 291 293 294 295 295 296 296
285 285 284 284 284 283 283 283 283 283 283 283 283 283 283 283 284 284 284 285 285 285 285 284 284 284 285 285 286 285 285 285 285 286 287 288 290 291 293 294 294 294 295
284 284 284 283 282 282 281 282 282 283 283 283 283 283 283 283 283 284 284 284 285 285 285 285 285 285 285 285 286 287 286 286 286 285 286 287 288 290 289 292 294 294 293

GFSMA_925_thetae_015.txt.gz
Theta_e
321 320 322 323 319 316 317 317 316 316 315 314 314 314 315 317 318 318 318 319 318 319 320 321 321 324 326 327 327 327 325 326 328 328 326 325 326 327 325 324 323 324 323
322 321 320 320 318 319 317 313 308 306 304 306 305 305 306 313 308 304 304 306 310 314 315 315 320 322 323 325 326 325 326 326 324 327 327 325 324 327 327 325 324 324 324
319 321 321 321 320 317 314 310 306 303 302 302 302 302 303 303 302 302 302 303 303 303 306 312 310 313 321 323 324 324 322 324 328 325 327 326 325 324 327 326 325 325 324
313 317 318 319 317 314 311 307 304 303 303 303 303 303 302 303 303 302 302 303 303 305 304 305 308 311 313 319 322 323 324 324 323 327 325 327 326 325 322 322 323 324 324
311 311 312 313 312 311 307 305 304 304 303 303 303 303 302 302 302 301 302 301 303 302 302 304 303 302 303 314 319 321 322 323 324 324 327 327 327 326 325 322 321 321 322
312 311 308 309 310 309 305 304 304 304 303 303 303 303 302 302 301 302 300 302 300 299 301 302 302 302 302 302 309 317 320 321 322 325 325 327 327 326 326 325 324 322 321
311 311 309 307 308 307 305 304 304 304 303 303 303 302 302 302 301 299 300 298 300 300 301 301 300 302 302 302 305 308 309 318 320 323 323 324 325 327 326 325 324 322 320
308 310 310 307 306 306 305 304 304 304 304 303 302 301 298 300 301 300 297 300 298 300 301 300 300 300 300 300 303 306 310 308 313 317 319 321 322 324 323 325 324 323 319
307 309 309 308 306 305 306 305 304 304 303 302 302 301 298 298 298 298 297 297 298 297 296 298 297 295 298 299 298 301 307 304 301 306 308 316 319 320 321 323 323 324 321
307 308 308 309 308 305 305 305 304 303 302 302 300 301 297 298 295 293 295 295 294 294 294 294 296 294 296 296 295 294 295 298 301 300 302 305 309 318 317 318 321 324 322
306 306 307 308 307 305 304 303 302 300 296 295 294 294 295 295 294 295 292 292 293 293 293 294 295 295 296 296 297 297 297 298 298 304 300 301 305 309 317 317 317 318 323
307 305 305 306 305 304 301 296 295 296 297 297 296 297 295 294 293 293 292 292 293 293 293 294 294 295 295 294 295 295 295 295 296 299 304 302 302 305 306 315 318 317 316
305 303 303 302 299 296 296 297 297 297 297 297 296 296 295 293 293 293 294 293 293 293 293 293 293 294 295 295 294 294 295 296 296 302 303 304 302 303 304 307 315 317 318
301 297 296 296 296 297 298 299 299 298 298 296 293 294 294 293 292 292 293 293 292 292 292 292 293 294 295 295 295 295 295 296 297 299 304 302 299 302 304 303 305 309 314
296 296 297 298 297 298 297 296 296 295 293 292 293 293 292 292 292 291 291 292 292 292 291 291 292 292 292 292 293 293 292 292 293 294 294 296 298 299 299 301 302 305 306
296 297 298 299 298 297 294 293 293 292 293 292 292 291 291 290 290 290 290 291 291 291 291 291 291 291 291 292 293 293 293 294 293 293 294 294 295 302 298 301 302 304 299
297 299 299 298 294 293 293 293 293 293 292 291 290 289 288 288 288 289 289 289 290 290 290 290 290 290 290 290 290 290 291 293 294 294 295 295 295 297 296 297 302 299 299
297 296 294 293 293 293 293 292 291 291 290 289 288 288 288 288 288 288 288 288 288 289 288 288 289 289 289 289 290 291 291 291 291 292 293 294 295 295 296 296 299 298 298
294 293 293 293 293 292 291 290 289 288 288 288 288 287 287 287 287 286 286 287 287 287 287 288 288 288 288 288 288 289 289 289 289 289 289 290 293 294 295 296 299 298 295
295 295 293 292 291 289 288 288 287 287 287 287 286 286 285 285 284 284 285 285 285 285 285 285 286 286 286 287 287 287 287 288 289 289 289 290 290 292 295 297 298 297 295
293 293 291 289 288 287 287 286 286 286 285 284 284 283 283 283 284 284 284 285 285 285 285 285 285 285 285 285 285 286 287 287 288 289 289 290 291 293 294 294 296 296 295
294 290 288 287 286 286 286 285 284 285 284 283 283 283 283 283 283 283 284 284 284 284 285 285 285 285 285 285 285 285 285 286 286 287 288 290 292 293 294 294 295 296 295
288 287 286 285 285 284 284 284 284 283 283 283 283 283 283 283 283 283 283 283 283 284 284 284 285 284 284 284 284 284 285 285 286 287 288 288 288 290 290 294 295 295 295
286 285 284 284 284 284 283 282 283 283 283 282 282 282 283 283 283 283 283 283 283 283 283 283 284 284 284 284 284 284 284 285 285 285 286 287 287 288 289 291 292 294 295
285 284 284 283 283 282 281 281 282 282 282 282 282 282 282 282 283 283 283 283 283 283 284 284 284 284 284 284 284 284 285 285 285 284 285 285 286 286 287 288 289 293 293
284 283 283 282 281 281 281 281 282 282 282 282 282 282 282 282 283 283 284 284 284 284 284 284 284 285 285 285 285 285 285 285 285 284 285 285 286 287 288 288 288 292 293

GFSMA_925_thetae_018.txt.gz
Theta_e
324 321 320 319 321 319 315 316 315 312 311 309 308 309 310 313 313 310 310 308 305 306 310 315 319 323 324 323 324 325 326 326 326 329 329 328 327 325 326 325 324 326 326
321 321 321 320 320 318 318 315 311 306 303 303 302 302 302 306 303 303 302 302 302 303 305 309 312 315 319 324 323 322 323 325 325 325 326 327 328 326 325 326 324 324 325
316 317 320 320 320 319 318 315 311 305 302 302 302 302 302 302 302 302 302 302 303 303 303 305 305 307 310 316 321 323 323 322 322 322 325 327 325 327 325 325 326 324 324
311 311 313 315 318 319 317 313 309 304 303 303 303 303 302 302 302 302 301 301 301 302 301 302 303 302 303 305 315 320 323 323 323 323 323 323 327 326 326 325 325 326 324
311 311 310 310 313 315 314 311 307 304 303 303 303 303 302 302 302 301 301 300 301 299 299 300 301 301 301 302 308 314 318 321 323 323 323 324 323 326 326 326 325 325 324
310 311 311 310 310 311 310 309 306 304 304 303 303 303 302 302 302 301 299 301 298 298 298 300 300 298 301 301 300 308 312 313 318 319 321 323 324 325 325 327 326 324 324
309 310 311 311 310 309 308 308 306 304 304 303 303 303 303 302 301 301 300 297 299 297 299 299 298 295 297 296 297 304 309 312 309 309 312 318 320 321 321 322 327 326 324
308 308 309 310 310 308 308 308 305 304 303 303 303 300 299 300 301 301 300 298 297 298 298 295 295 295 292 294 299 298 298 300 305 305 304 306 315 319 320 321 321 324 325
307 307 307 307 308 309 307 307 306 304 303 303 302 302 298 299 296 298 298 296 296 295 294 294 292 292 292 292 293 294 294 294 296 303 304 302 305 315 318 318 320 322 326
309 308 307 306 307 308 307 306 305 304 303 302 301 301 300 298 294 293 294 295 294 293 292 292 292 292 292 294 293 295 296 297 296 296 298 304 302 304 311 316 318 319 324
307 306 306 305 304 307 306 304 304 303 302 301 297 298 294 295 295 293 293 292 293 292 293 292 292 293 293 293 292 293 293 295 295 295 296 299 304 302 304 309 313 318 318
305 305 305 304 303 304 303 301 299 297 296 296 295 296 295 294 293 293 292 292 292 293 292 292 293 293 292 292 294 295 293 293 295 296 299 302 305 304 304 306 308 313 319
304 303 302 302 300 298 297 296 297 298 298 297 295 295 295 294 292 292 292 292 292 292 292 292 292 292 292 292 293 294 294 295 295 296 296 296 304 304 302 306 307 307 311
301 299 298 297 297 297 297 297 297 297 296 295 293 292 292 292 292 292 293 292 292 291 291 291 291 291 291 292 292 292 291 293 293 291 293 294 295 298 301 302 303 304 302
298 297 297 297 297 297 298 297 295 293 293 292 292 292 292 292 291 291 291 292 292 291 290 290 290 290 291 291 291 291 292 293 293 293 293 292 293 294 295 299 300 301 302
296 297 298 298 298 298 296 295 292 293 293 293 292 292 291 290 289 288 288 289 290 291 290 289 289 290 289 290 290 290 290 290 289 289 290 292 293 294 294 302 298 301 302
297 298 297 295 296 295 293 293 294 293 292 291 290 289 288 288 288 288 288 288 289 289 289 289 288 288 289 289 289 288 289 289 291 292 292 292 292 293 294 295 297 298 302
295 294 294 293 293 293 293 292 291 290 290 288 288 288 287 287 287 287 287 287 288 288 288 288 288 288 288 288 288 289 289 289 289 289 288 288 289 290 291 293 295 296 298
294 294 293 293 293 292 291 290 288 288 287 287 287 287 287 286 286 285 285 285 285 285 286 286 286 286 286 287 287 287 287 287 287 287 287 287 288 288 289 290 293 295 296
294 293 292 292 290 289 287 287 286 286 286 286 286 285 284 284 283 283 283 283 283 284 284 284 285 285 285 285 286 286 286 286 287 287 287 288 288 287 288 290 291 294 296
292 293 291 288 287 286 286 286 285 285 285 284 284 284 283 283 283 284 284 284 284 284 284 284 285 285 285 285 285 285 285 285 286 286 286 287 288 288 288 289 291 293 295
294 292 287 286 286 285 284 284 284 284 284 284 283 283 282 282 282 283 283 284 284 284 284 284 284 284 284 284 285 284 284 284 285 284 285 286 287 288 288 291 292 293 294
287 286 286 285 284 284 283 283 283 283 283 283 282 282 282 282 282 282 282 282 282 282 283 283 284 284 284 284 284 284 284 284 284 284 285 286 287 287 287 287 289 292 294
286 285 284 284 283 283 282 281 282 282 282 282 282 282 282 282 282 282 282 282 283 283 283 283 283 283 283 283 284 284 284 284 284 284 285 285 285 285 285 286 286 289 291
284 284 283 283 282 281 281 281 282 282 281 281 281 281 281 282 282 282 283 283 283 283 283 284 284 284 284 283 284 284 284 284 285 284 284 284 284 285 285 285 286 286 289
283 283 282 281 281 280 280 281 281 281 281 282 281 281 282 282 283 283 283 284 284 284 284 284 284 284 284 284 284 284 285 285 285 284 284 284 284 285 285 287 287 287 287

GFSMA_925_thetae_021.txt.gz
Theta_e
325 323 322 320 319 320 318 315 316 313 309 307 306 307 307 311 310 308 306 303 303 304 307 312 316 319 321 323 324 323 324 325 326 326 326 326 328 326 326 325 324 323 325
323 321 320 320 319 319 318 318 316 312 307 303 302 302 302 305 303 302 302 304 303 303 303 308 309 311 313 315 319 323 323 322 323 324 326 326 329 327 328 326 325 324 324
319 316 315 315 315 317 319 319 317 313 307 303 302 302 302 302 302 302 302 302 303 302 302 304 304 303 304 310 314 318 321 323 323 323 322 323 325 326 326 328 325 325 324
313 312 312 311 311 314 318 318 316 312 307 303 303 304 303 302 302 302 301 301 301 301 301 301 302 302 302 303 307 313 317 319 322 323 323 323 323 323 326 326 326 325 325
311 311 310 310 310 311 313 314 314 312 307 305 304 303 303 302 302 302 301 301 301 300 300 298 299 300 300 301 302 307 312 314 317 319 322 323 323 323 323 325 327 326 325
310 310 310 310 310 311 311 312 312 310 307 305 304 304 304 303 302 302 302 301 301 299 299 299 299 299 296 296 299 302 307 313 313 310 314 318 320 322 323 324 325 327 326
308 308 309 309 310 311 310 310 310 309 307 305 304 305 305 304 303 303 303 302 299 299 299 301 299 299 298 294 293 295 300 303 303 307 307 306 306 314 318 321 322 322 323
309 308 307 307 308 310 310 310 309 308 306 306 305 306 307 306 303 303 302 301 302 300 300 297 296 296 296 296 294 293 296 297 298 303 305 307 305 305 309 316 319 320 322
307 307 307 307 307 307 308 308 309 308 308 306 305 305 308 308 306 302 302 301 300 300 297 295 295 295 295 295 295 294 293 295 296 297 300 301 305 305 305 308 316 318 320
305 305 305 306 306 307 307 307 307 307 306 307 304 303 303 303 306 307 300 299 298 296 295 295 295 295 294 295 294 293 291 292 294 295 296 301 302 305 305 305 307 313 316
303 304 304 304 304 305 306 305 306 304 305 304 305 304 302 300 298 301 304 301 295 295 295 295 295 295 295 294 293 293 293 294 293 293 295 297 299 300 306 305 305 309 313
303 303 303 302 302 302 302 301 300 300 300 300 299 298 299 301 299 298 298 298 298 298 295 294 294 294 294 294 293 292 292 293 294 295 295 296 298 300 307 306 305 308 311
302 301 300 300 299 298 298 298 299 299 298 297 296 295 294 294 293 293 292 295 296 296 295 294 293 293 293 293 292 292 294 294 294 294 293 293 294 296 299 304 305 307 308
299 299 298 298 298 297 298 297 297 296 296 294 293 292 292 292 292 292 292 293 295 295 294 294 292 292 292 292 292 291 291 291 291 291 292 292 292 294 294 296 298 304 305
298 298 298 298 297 298 297 297 296 296 292 292 292 292 291 292 292 292 292 292 292 294 294 292 291 291 291 291 291 291 291 291 291 292 292 292 291 290 292 294 295 300 301
297 297 297 297 296 296 295 294 294 294 293 293 293 293 293 293 292 292 291 291 291 290 291 290 290 290 290 290 289 290 290 291 290 289 288 288 290 293 293 293 294 300 299
297 297 295 295 294 294 294 293 293 294 293 293 292 291 291 290 290 289 289 289 289 289 291 289 289 289 289 289 289 289 290 290 290 289 288 291 292 292 291 292 293 295 297
294 294 293 293 292 292 293 292 291 290 290 289 289 289 288 288 288 288 288 288 288 288 288 289 288 288 288 288 288 288 289 288 289 289 289 288 287 287 288 288 290 292 295
294 293 292 292 293 292 290 288 287 288 288 287 287 287 287 287 286 286 286 286 286 286 286 286 287 287 287 287 287 287 288 288 288 288 288 287 286 286 287 287 287 288 291
293 293 292 291 288 287 287 287 287 287 286 286 286 285 285 285 285 284 284 284 284 285 285 285 286 286 286 286 286 287 287 287 288 288 287 287 287 288 288 288 287 288 289
293 293 293 289 286 286 285 285 285 286 285 285 285 285 284 284 284 283 284 284 285 285 285 285 285 285 286 286 286 286 286 287 287 287 287 287 288 288 289 289 288 288 289
293 289 286 285 285 285 284 283 283 284 284 283 283 283 283 283 283 283 283 283 283 284 284 285 285 285 285 285 285 286 286 286 288 287 287 287 287 288 288 289 289 289 290
286 286 285 285 285 284 283 282 282 282 283 283 283 283 283 283 283 283 283 282 282 283 283 283 284 284 284 285 285 285 285 286 286 286 286 286 286 286 288 288 288 288 288
285 285 284 284 283 283 281 281 282 282 282 282 282 282 282 283 282 282 283 283 283 284 284 284 284 284 284 284 284 285 285 285 285 285 285 286 286 286 287 287 287 286 286
284 284 283 283 282 282 281 280 281 282 282 282 282 282 282 282 282 283 283 284 284 284 284 284 283 284 284 284 284 284 285 285 287 286 285 285 285 286 286 286 287 286 286
283 283 282 281 281 281 280 280 281 281 282 282 282 282 283 282 282 283 283 283 283 283 283 283 283 283 284 284 284 285 285 286 286 286 285 286 285 286 287 288 288 288 288

GFSMA_925_thetae_024.txt.gz
Theta_e
326 326 324 323 322 321 321 321 320 320 318 316 314 313 312 314 315 311 310 307 305 306 309 313 317 319 320 320 323 324 324 324 325 326 327 326 327 328 327 327 325 324 322
324 323 321 320 319 319 318 319 319 318 315 313 311 309 308 311 310 308 307 309 303 303 304 306 309 311 313 314 315 318 322 323 322 323 324 326 326 326 328 326 326 325 324
321 321 318 318 317 317 319 319 319 317 315 312 309 308 308 310 308 307 307 308 307 303 303 304 304 304 305 308 311 315 319 321 322 323 323 322 323 325 328 327 327 326 325
320 319 317 317 316 317 317 317 317 316 315 312 310 308 308 308 308 307 307 307 307 306 304 302 302 302 303 303 304 307 314 316 317 322 323 323 323 323 323 325 326 327 327
318 318 316 316 317 317 316 317 316 316 314 312 310 309 308 308 307 307 306 306 306 305 306 304 300 301 301 301 302 304 310 314 316 315 318 322 323 323 323 322 323 326 326
314 315 315 315 316 316 315 315 316 315 314 312 310 309 308 308 308 307 307 306 306 305 305 305 304 303 298 298 297 299 305 309 312 311 310 312 318 319 321 322 323 323 326
313 313 313 314 314 315 315 315 314 315 315 313 312 310 309 309 309 308 307 307 306 305 305 305 304 303 302 299 297 295 297 302 304 305 307 309 307 307 312 318 320 323 324
311 311 311 311 312 312 313 314 314 315 314 313 313 311 312 311 310 309 308 307 306 306 304 305 303 302 301 302 300 296 293 295 297 303 303 304 308 308 306 306 312 317 319
308 308 308 309 310 310 311 311 312 313 314 313 312 311 313 313 311 310 308 307 306 306 305 304 301 300 300 300 299 299 296 293 294 295 298 302 302 303 306 307 306 310 314
307 306 307 307 308 308 308 309 309 310 311 312 312 312 310 310 313 312 308 307 306 305 304 303 300 300 299 299 299 298 295 291 292 293 295 298 302 303 304 306 307 307 309
305 305 305 305 306 306 306 307 308 308 309 309 309 310 310 309 308 309 311 308 306 304 302 300 300 300 300 299 299 298 295 292 293 293 293 295 297 299 301 302 307 307 307
303 303 304 304 304 305 304 304 304 304 304 305 304 304 304 303 304 305 306 307 306 302 300 300 300 299 299 299 298 296 293 292 292 292 294 295 296 297 298 301 306 307 307
302 302 303 303 303 303 302 301 300 300 298 297 296 295 295 294 294 294 294 297 299 299 300 300 299 298 298 297 297 295 294 293 294 294 294 294 293 293 295 298 300 303 305
301 302 302 302 301 301 300 300 300 297 296 295 294 293 293 292 292 292 292 293 296 297 297 298 299 297 296 296 296 294 294 292 291 292 292 292 291 291 292 294 295 297 300
300 300 301 300 300 300 298 298 297 296 294 295 295 294 294 293 293 292 292 293 294 295 297 296 296 296 295 294 294 294 293 293 292 292 291 290 291 291 291 290 292 294 295
300 300 300 298 296 295 295 296 296 296 296 295 295 294 294 294 293 293 293 292 292 292 294 292 292 292 292 292 292 291 291 291 291 291 291 290 289 288 288 289 291 292 294
298 296 295 294 294 293 293 294 294 294 294 293 293 292 292 292 291 291 291 291 291 291 292 291 291 291 291 291 291 291 291 291 292 291 291 290 289 288 290 292 292 292 292
296 294 294 293 294 294 294 294 293 292 291 291 291 290 290 289 289 290 290 290 290 290 290 291 290 290 291 291 291 291 291 291 291 290 290 290 289 289 290 289 288 289 290
296 295 295 295 293 292 292 291 290 290 290 290 289 289 289 289 289 289 288 288 288 288 288 289 289 289 289 289 289 289 289 290 290 290 289 289 289 289 289 288 286 286 287
295 295 294 294 293 291 290 289 289 288 288 288 288 288 288 288 287 287 287 287 287 287 287 288 288 288 288 289 289 289 290 290 290 290 290 289 289 289 289 289 289 289 288
294 293 292 291 290 289 288 286 286 286 287 287 286 286 286 286 285 285 285 285 286 287 287 287 287 287 287 288 288 288 288 288 289 289 289 289 289 290 290 290 289 288 288
290 290 289 289 288 288 286 284 283 284 285 285 286 286 285 285 285 285 284 284 283 284 285 285 286 286 287 287 287 287 288 288 290 288 288 289 288 289 289 290 290 290 290
289 288 288 288 287 287 285 283 282 283 284 285 285 285 285 285 284 284 284 284 283 283 283 284 284 285 285 286 286 286 287 287 288 287 287 289 288 288 288 288 288 288 289
288 288 287 287 286 285 283 282 281 282 284 284 284 284 284 284 284 283 283 284 284 284 285 285 285 285 285 285 285 286 286 287 287 287 287 288 288 288 288 288 287 288 288
287 287 286 285 285 284 283 281 281 282 283 283 283 283 283 284 284 284 284 284 284 285 285 284 284 284 284 284 284 285 287 287 288 287 287 287 288 287 287 287 288 287 288
286 285 285 284 284 283 282 281 280 281 282 282 282 283 283 283 283 283 283 284 284 284 284 284 284 285 284 284 284 285 285 287 287 288 287 287 288 287 288 288 288 288 289

GFSMA_925_thetae_027.txt.gz
Theta_e
325 324 324 322 322 321 320 320 320 319 320 319 317 316 315 314 315 315 313 312 309 306 308 315 318 320 320 321 323 324 325 325 326 326 327 327 326 327 327 327 327 327 325
323 323 321 320 319 318 318 318 318 318 318 316 316 314 313 311 311 313 311 310 308 302 304 308 312 314 315 315 316 318 321 323 323 323 325 326 327 326 326 327 327 327 326
321 321 320 319 318 318 318 318 319 318 318 317 315 314 311 311 311 312 310 309 311 306 303 304 304 305 307 308 309 313 317 319 321 322 323 323 324 324 326 326 327 327 326
321 320 319 318 318 319 318 318 318 318 317 316 316 314 312 311 311 311 310 309 309 309 307 303 303 303 303 304 305 306 308 314 317 320 322 323 324 323 323 325 327 327 327
318 318 318 318 318 318 318 318 317 317 317 317 316 314 313 312 311 310 310 310 309 308 309 308 306 302 302 302 302 305 309 313 315 314 316 320 322 323 323 323 323 325 326
316 316 316 317 317 317 317 317 318 317 317 317 316 315 314 312 311 311 310 310 309 309 309 308 306 302 299 299 299 299 304 307 313 312 311 311 315 319 321 322 323 323 323
315 315 314 314 314 314 315 315 316 317 318 317 317 317 316 314 313 311 311 310 310 309 309 308 307 306 304 303 300 298 298 300 302 304 306 308 309 308 309 312 318 322 323
313 312 311 311 311 311 312 312 314 315 316 316 316 316 319 316 315 313 312 312 311 310 309 308 307 307 306 303 302 301 299 297 296 300 304 303 304 307 308 308 306 311 319
311 310 309 309 309 309 309 310 311 312 313 313 314 315 317 318 316 314 314 312 311 311 309 308 307 307 305 304 303 301 300 297 295 295 296 301 301 301 302 303 307 308 308
309 308 307 307 307 308 308 308 308 310 310 311 311 311 312 314 316 317 313 312 311 311 310 309 307 306 304 303 303 303 302 300 298 295 294 294 301 303 303 304 306 307 308
306 305 305 305 306 306 306 307 307 307 308 308 308 309 308 308 309 308 312 313 311 310 309 308 308 306 303 303 302 302 301 298 296 293 293 293 298 299 301 302 302 304 307
305 304 304 304 305 305 306 305 305 304 304 303 304 303 301 301 303 300 302 306 305 308 307 306 304 304 302 302 302 302 300 297 296 293 293 295 294 297 298 300 301 302 306
303 302 303 304 304 304 303 302 302 301 300 299 297 296 295 294 294 293 294 296 296 298 299 301 302 301 301 301 301 301 298 296 294 291 292 295 294 294 295 296 298 300 302
301 302 302 302 302 301 300 299 299 298 296 295 295 294 295 294 294 294 293 294 297 298 298 299 299 300 300 299 299 298 297 296 294 293 292 293 293 294 293 291 292 295 299
301 302 300 300 299 298 297 297 296 297 297 297 297 296 295 295 294 294 294 294 294 296 296 297 297 298 299 298 297 297 296 296 295 294 292 292 291 291 291 291 290 291 295
300 299 297 297 296 295 295 295 295 295 294 294 295 296 296 295 295 295 294 293 293 294 294 293 294 294 294 294 294 294 294 294 293 292 292 292 291 291 291 290 289 289 289
298 298 297 296 295 296 295 295 295 295 294 294 293 294 293 293 292 292 292 293 293 293 294 293 292 292 292 293 293 293 293 293 293 293 292 292 291 291 290 289 288 288 290
297 297 296 296 296 296 294 294 294 293 292 292 292 292 291 290 290 290 290 291 291 291 292 293 292 292 292 292 292 292 292 292 292 292 292 292 291 291 290 289 289 290 291
297 297 296 296 295 294 293 293 292 292 291 290 290 290 290 290 290 290 290 290 290 290 290 290 291 290 290 290 291 291 291 291 291 291 291 291 290 290 290 289 289 289 289
296 295 295 294 293 291 291 290 290 289 288 288 288 289 289 289 289 289 289 289 289 288 288 289 290 290 290 290 290 291 291 291 291 291 291 291 291 291 290 289 289 289 289
293 292 292 291 290 290 289 288 288 287 286 287 287 287 288 288 287 286 286 286 286 287 287 288 289 290 289 289 289 289 290 290 290 290 290 290 291 291 291 291 290 290 289
292 291 290 290 290 289 287 286 285 285 284 285 286 287 287 287 287 286 286 285 285 285 285 285 286 287 287 288 288 288 289 289 291 290 289 290 289 290 290 290 290 290 290
290 290 289 289 289 288 286 285 284 284 283 285 286 286 286 287 286 286 286 285 285 284 284 284 284 285 286 286 286 287 287 288 289 289 289 290 289 290 290 289 289 289 288
289 289 288 288 287 287 286 284 282 283 284 284 285 285 285 285 285 284 284 285 285 285 286 285 285 285 286 286 287 287 287 287 288 288 288 289 289 289 289 289 289 288 288
288 288 287 287 286 286 285 283 282 282 282 283 283 284 284 284 284 284 284 285 284 285 285 285 285 285 285 284 284 285 286 286 288 288 288 288 289 289 289 289 289 288 288
288 287 287 285 284 284 284 283 282 281 281 282 282 282 283 283 283 284 284 284 284 284 285 284 284 284 285 285 286 285 285 286 286 287 287 288 289 289 290 289 289 289 289

GFSMA_925_thetae_030.txt.gz
Theta_e
325 324 323 322 321 320 319 319 319 318 319 319 320 318 316 315 314 314 315 314 312 311 307 309 320 321 322 321 322 324 326 327 327 327 327 327 326 327 327 327 328 327 326
324 323 322 321 320 319 318 318 318 319 319 319 318 317 316 314 313 311 314 313 311 310 306 304 316 318 318 317 318 320 322 324 324 325 326 326 327 326 327 327 327 327 327
322 321 321 320 319 319 318 318 319 318 318 318 318 318 316 314 312 311 310 312 310 310 309 303 305 307 310 314 313 314 317 318 320 321 323 324 325 325 326 326 327 327 327
320 320 320 319 319 318 318 319 319 319 319 318 318 317 317 315 313 311 311 312 310 310 310 309 304 303 304 304 305 305 309 314 316 318 321 322 323 323 323 325 326 326 327
317 317 317 317 317 317 318 318 318 318 318 319 318 318 317 316 315 313 312 311 311 310 310 309 308 305 303 303 303 304 311 310 313 313 315 319 322 322 323 323 323 326 327
317 316 316 315 316 316 316 316 317 317 318 318 318 318 318 317 317 315 312 311 311 310 309 310 309 307 304 302 302 303 309 312 312 310 310 311 313 319 320 321 322 323 323
316 314 313 313 312 312 313 313 313 314 315 316 318 317 316 316 317 317 315 313 312 311 310 309 309 308 306 304 300 300 307 309 309 308 308 308 309 308 309 314 318 322 322
314 313 312 311 310 310 310 310 311 312 313 313 315 315 315 314 314 315 315 315 312 312 311 310 309 309 307 306 303 301 302 306 306 306 304 303 303 304 306 307 308 309 315
312 311 308 307 307 308 309 308 308 309 311 311 311 312 313 312 312 313 313 314 314 313 312 311 310 308 308 307 305 303 302 300 301 303 305 299 298 299 300 302 303 307 308
308 306 306 305 305 306 307 307 308 307 308 309 309 309 308 307 309 310 310 312 312 312 312 312 311 310 308 307 305 304 303 301 300 297 301 301 302 301 301 300 303 306 308
306 305 303 303 304 304 304 307 306 305 305 303 303 302 302 302 303 305 307 306 307 309 309 309 310 310 308 307 304 304 302 301 301 299 296 296 299 301 302 302 302 303 304
305 303 302 302 304 305 304 303 302 302 301 300 299 298 298 298 298 298 298 298 298 300 302 303 304 306 307 305 304 303 303 302 301 299 298 297 296 300 299 300 301 302 302
303 302 302 303 303 302 301 301 300 300 299 298 296 296 296 294 294 294 294 295 296 296 297 298 301 300 302 302 302 302 302 300 299 297 296 294 293 297 298 298 299 299 300
301 302 302 301 300 300 299 299 298 298 298 297 295 295 294 295 295 294 294 293 295 295 296 298 298 298 299 299 300 300 299 299 297 296 295 294 292 293 293 295 296 296 296
301 300 298 298 298 297 297 296 296 296 295 296 296 295 295 295 295 294 293 293 293 294 293 294 295 295 295 296 297 298 298 297 297 296 296 295 293 292 291 291 291 292 294
299 299 297 298 297 296 296 296 295 295 295 295 295 294 294 294 294 294 294 294 293 293 293 293 293 292 292 293 294 294 294 296 296 295 294 293 293 293 293 292 292 290 289
298 298 297 296 296 296 296 296 295 295 295 294 293 293 293 293 292 292 292 292 293 293 293 293 293 292 292 292 293 292 293 293 293 293 293 293 293 292 292 291 291 291 290
297 297 297 297 296 295 295 294 294 293 292 292 291 290 290 290 290 290 290 291 291 291 291 291 291 291 291 291 291 291 292 292 293 293 294 293 293 293 292 292 291 290 290
297 297 295 295 295 294 293 291 291 291 290 289 288 288 289 289 289 289 289 290 290 290 290 290 289 289 289 289 290 290 290 291 291 291 291 291 291 291 291 291 291 290 290
296 295 294 293 292 291 290 290 290 289 288 287 286 286 287 288 288 289 288 288 287 286 286 287 287 288 289 289 290 290 290 291 291 291 291 291 291 291 291 291 290 290 290
293 293 292 291 290 290 289 288 287 286 286 286 285 285 286 287 287 288 287 287 286 286 286 286 286 286 287 288 288 289 289 288 289 289 290 290 290 290 290 291 291 291 290
293 291 290 290 290 289 287 286 285 285 285 284 284 284 286 287 287 287 287 286 286 286 285 285 285 284 285 285 286 287 288 288 287 288 289 289 289 289 289 289 290 290 291
290 290 289 289 288 288 286 286 285 284 283 283 284 284 285 285 285 285 285 284 285 285 285 285 284 284 284 284 285 286 286 286 287 287 288 288 288 289 289 289 289 289 290
289 289 289 288 287 286 286 285 284 283 282 282 282 282 282 283 284 284 284 285 284 285 285 285 285 285 284 285 285 286 287 287 286 287 287 287 288 288 288 288 289 289 289
289 289 288 287 286 285 284 284 284 283 282 282 281 282 282 282 282 283 284 284 284 284 284 284 284 285 285 285 285 285 285 285 284 285 285 287 287 288 288 288 288 288 288
289 288 288 286 285 285 285 284 284 283 282 282 281 281 281 282 283 282 282 282 282 282 283 283 283 283 283 283 284 284 285 285 285 285 285 286 286 287 288 288 288 289 289

GFSMA_925_thetae_033.txt.gz
Theta_e
324 324 323 321 320 319 319 319 318 318 317 317 317 318 318 317 315 315 313 313 314 315 312 310 307 312 322 320 319 322 324 327 327 328 327 327 327 326 326 327 328 328 326
323 322 321 320 320 319 319 318 318 318 319 319 319 319 318 317 316 315 313 311 312 313 311 309 307 307 320 322 318 319 321 323 325 326 327 327 326 326 326 326 327 328 327
322 321 320 320 320 319 318 318 317 318 319 318 318 318 318 318 317 315 314 312 310 312 311 310 309 305 309 317 317 315 317 318 321 323 324 325 326 326 326 326 327 327 328
320 320 319 318 317 316 316 316 317 317 318 318 318 318 318 318 317 316 315 312 311 311 311 310 310 309 305 304 316 312 312 314 316 318 319 321 323 324 325 325 326 327 327
317 316 316 315 315 315 316 316 316 316 315 315 316 317 317 317 317 317 316 314 312 311 311 310 310 310 308 305 305 311 311 315 314 313 314 318 320 322 323 323 324 325 326
316 316 315 313 313 312 311 312 311 310 310 311 312 313 314 316 316 316 316 317 316 312 311 311 310 309 309 307 304 306 310 313 315 316 312 311 315 319 320 321 322 323 323
315 314 313 312 310 309 309 308 309 309 308 307 309 312 312 313 314 314 314 314 314 315 313 311 310 309 309 309 307 304 309 311 312 316 313 309 309 310 316 319 319 320 321
311 310 307 306 306 307 307 308 307 307 307 309 308 309 309 310 310 310 311 311 310 312 312 311 310 310 309 309 308 307 306 308 312 313 312 311 309 308 307 307 310 314 317
307 306 305 304 303 304 304 304 305 307 307 307 307 306 307 307 305 307 307 308 309 308 310 312 311 309 309 309 308 307 306 302 308 310 309 308 304 304 303 303 304 305 307
306 304 303 302 302 303 303 304 305 304 304 302 302 302 300 299 302 302 304 302 305 302 302 303 307 310 310 308 305 307 307 301 304 306 306 307 305 304 302 303 304 305 305
305 304 303 302 301 304 304 303 302 301 301 300 299 298 298 297 298 296 298 298 297 297 298 299 300 302 306 307 308 307 304 302 302 301 302 303 302 302 303 304 304 304 304
303 302 301 302 302 302 300 300 300 300 299 299 298 297 296 296 296 295 296 296 295 295 294 296 297 299 301 304 304 304 303 302 300 300 298 297 297 300 302 301 301 302 303
301 301 301 300 298 299 299 299 299 298 298 297 296 295 294 294 294 294 294 294 294 293 294 294 297 298 298 299 300 301 302 302 300 297 297 297 297 297 299 299 300 300 300
301 301 301 298 297 297 296 296 296 296 295 295 295 296 295 294 295 294 294 293 292 292 293 294 293 294 293 295 297 298 298 299 299 297 295 295 295 295 293 293 295 298 297
299 299 298 298 297 296 296 296 295 294 295 295 295 294 294 294 293 293 293 293 292 292 291 292 292 293 292 293 293 295 295 296 295 296 296 296 295 295 294 293 291 292 293
298 298 298 297 297 296 296 296 296 295 295 295 295 294 294 293 293 292 292 292 293 293 292 292 292 292 293 292 292 292 293 293 293 295 295 295 295 294 294 294 293 292 292
298 297 297 297 296 296 295 295 294 294 294 293 292 291 290 289 289 289 290 290 290 291 292 292 292 291 291 291 292 292 292 292 292 293 295 294 293 293 293 292 292 292 291
296 297 296 295 294 294 293 293 292 291 291 290 289 288 287 287 287 288 288 289 289 289 289 288 288 289 289 289 289 289 289 290 292 292 292 293 293 293 293 293 293 292 292
296 295 295 293 292 291 290 290 290 289 288 288 287 286 286 285 285 286 287 288 288 288 288 286 286 286 287 287 288 289 289 289 289 289 290 290 291 291 291 291 291 291 291
294 293 293 292 290 290 290 288 287 287 286 285 285 285 284 284 285 286 287 287 287 287 287 286 286 286 286 286 287 287 288 289 288 289 289 290 290 290 291 291 291 291 291
293 292 291 290 289 289 288 287 286 286 285 284 283 283 284 284 286 286 286 286 287 286 286 285 285 285 284 284 284 285 285 286 287 287 287 287 288 288 288 289 290 291 291
292 290 289 289 288 288 287 286 286 285 284 282 281 282 282 283 284 284 284 284 284 285 285 284 284 284 284 284 284 285 285 285 285 286 287 288 288 288 289 289 289 289 290
290 289 289 288 288 287 286 284 284 284 284 283 282 281 281 281 282 282 283 283 283 284 284 284 284 284 284 284 284 284 284 284 285 285 286 286 287 287 287 287 287 288 289
289 289 288 288 287 286 285 284 284 284 283 283 282 281 281 281 282 282 282 283 283 283 283 284 284 285 285 285 285 284 285 285 286 285 285 285 285 286 287 286 286 287 287
289 288 288 287 285 284 284 284 283 284 283 282 281 280 280 280 281 282 282 281 281 281 282 284 284 284 283 284 285 285 285 285 284 284 284 284 285 286 286 287 287 287 287
288 288 287 285 284 284 284 283 283 282 280 280 280 279 280 280 281 281 281 282 281 281 281 281 281 281 282 282 282 283 284 284 284 285 285 284 284 284 286 286 286 286 287

GFSMA_925_thetae_036.txt.gz
Theta_e
325 324 323 321 320 319 319 318 318 317 317 318 318 318 318 317 318 316 316 315 313 311 312 314 312 310 311 321 319 318 321 324 327 327 327 327 327 327 327 326 325 328 327
323 321 321 320 320 319 319 319 318 318 317 318 318 318 318 318 318 318 317 316 315 313 311 312 312 310 309 312 320 318 318 320 323 326 326 327 327 327 326 326 325 327 328
319 321 320 319 319 319 318 317 317 317 317 317 318 318 318 318 318 318 317 316 315 314 313 311 311 311 310 309 309 316 313 316 318 322 324 326 326 326 326 326 326 325 328
320 319 318 318 317 316 315 315 314 314 312 311 311 312 312 313 316 317 316 316 317 315 312 310 311 311 310 309 309 310 318 312 313 317 319 321 323 325 326 326 326 327 326
319 318 316 315 313 313 312 311 310 309 308 308 307 308 309 311 311 312 313 315 314 314 316 312 310 310 310 310 309 308 315 314 316 317 319 318 319 321 322 324 325 325 326
316 315 313 312 311 310 308 308 308 308 308 306 305 304 306 305 306 309 311 312 313 312 312 312 312 311 311 310 310 309 313 313 313 316 318 318 317 319 320 322 323 323 324
311 310 308 307 306 306 306 306 305 305 304 306 306 306 307 306 309 309 309 308 307 309 310 311 311 309 310 310 309 309 310 313 312 314 317 316 316 314 317 319 320 320 321
307 305 305 304 303 303 303 303 303 304 306 306 306 306 305 306 306 304 303 304 305 304 306 306 307 310 308 308 309 308 309 312 312 313 314 316 312 309 309 311 315 317 317
306 305 304 304 303 302 301 302 303 304 304 304 303 304 302 302 299 301 300 301 300 300 300 300 301 302 305 309 307 307 308 309 308 311 313 315 313 312 310 307 306 307 309
306 306 305 303 301 302 303 303 302 301 301 301 300 300 299 299 297 298 299 297 297 297 296 296 296 298 300 302 306 307 304 306 308 306 309 313 311 309 308 307 306 304 305
306 305 303 302 300 301 300 299 299 300 299 299 298 297 297 296 296 295 295 295 295 294 295 294 295 298 299 301 303 305 307 307 304 305 308 311 309 308 306 304 305 305 304
302 302 301 300 299 298 298 298 298 298 297 297 297 295 294 294 295 295 295 294 293 293 293 293 296 297 296 294 299 301 304 303 307 304 306 307 307 305 304 304 304 303 303
301 301 300 298 297 296 296 296 296 295 295 295 295 296 295 294 294 294 294 294 293 293 293 293 292 296 293 292 294 295 299 302 302 301 301 302 302 302 302 302 301 301 302
300 299 298 298 297 296 295 295 295 295 294 294 294 295 295 293 294 294 293 292 293 292 292 292 292 292 292 292 292 293 295 297 298 300 298 298 299 298 300 299 299 299 299
298 298 298 298 297 296 296 296 295 295 295 295 294 294 294 294 293 293 293 293 293 292 291 291 292 291 291 291 292 293 292 292 294 294 295 295 294 295 295 294 293 293 293
298 297 297 296 296 296 295 294 294 294 293 293 293 293 293 290 289 289 288 289 290 292 292 291 291 291 290 290 290 291 292 292 292 293 292 294 294 295 294 294 295 294 293
295 295 296 296 295 294 293 293 292 292 291 291 289 288 287 288 287 286 287 287 287 289 289 289 289 289 289 288 289 289 289 289 292 291 291 292 293 294 294 293 293 292 292
294 295 294 294 293 292 290 290 290 289 288 287 287 286 286 286 285 285 285 285 287 287 288 287 287 287 286 287 287 287 288 289 289 290 291 292 291 292 293 293 293 292 292
295 294 293 292 292 290 289 289 288 287 286 286 285 285 284 284 284 284 284 285 286 287 287 286 286 285 286 286 285 285 287 288 289 289 290 290 290 291 292 292 291 292 292
294 293 292 290 289 289 289 288 287 286 286 285 284 283 282 283 283 284 285 286 286 286 286 285 285 285 285 285 285 284 284 284 286 287 288 288 288 288 289 290 291 291 291
294 293 291 289 289 288 288 287 286 284 284 283 283 282 281 281 282 283 284 284 284 284 284 284 284 284 284 284 284 284 284 284 284 285 285 286 287 287 288 288 288 288 290
292 290 289 289 288 287 286 285 284 284 284 284 283 282 282 281 281 281 282 283 282 283 284 284 284 284 284 283 283 284 284 283 281 284 285 286 285 285 286 286 288 288 289
290 289 289 288 287 286 285 284 284 284 284 283 283 282 282 281 280 280 281 281 282 282 283 283 284 284 283 284 284 284 283 283 283 284 285 285 286 286 286 286 286 286 287
289 289 288 287 286 284 284 284 283 283 283 282 281 280 280 279 280 280 281 282 282 281 282 282 283 283 284 284 284 284 284 284 284 284 285 284 284 284 284 284 285 286 286
289 288 287 285 284 283 284 283 283 282 281 279 279 279 279 279 279 280 281 280 281 281 281 281 281 282 283 284 284 284 284 285 285 284 284 284 284 284 284 284 284 285 286
288 287 285 284 283 283 282 282 281 280 278 278 278 278 278 278 279 280 280 281 281 281 281 281 281 281 281 281 281 282 282 282 283 283 284 283 284 284 284 285 285 285 285

GFSMA_925_thetae_039.txt.gz
Theta_e
325 324 323 322 320 319 319 318 318 317 317 317 317 318 318 318 318 318 318 318 317 316 315 313 311 317 318 316 314 311 309 312 316 322 325 326 327 327 327 326 325 325 327
324 323 322 321 320 319 318 318 317 316 316 316 316 316 316 316 316 317 317 317 317 316 315 314 312 312 313 316 314 315 312 310 315 318 321 325 326 326 326 327 326 326 325
321 321 320 319 319 318 316 315 314 313 313 312 311 311 311 311 311 311 312 315 316 316 316 315 314 311 310 311 311 311 314 310 309 315 319 321 323 325 326 326 326 326 325
321 320 319 318 316 314 312 312 310 310 309 307 307 306 305 303 305 307 310 311 312 313 313 313 314 313 311 310 310 311 317 318 312 308 313 317 319 321 324 325 326 326 326
319 317 315 313 312 311 310 308 308 307 306 305 304 304 302 301 302 305 308 309 309 309 310 311 312 312 312 311 311 314 315 316 318 316 310 313 314 316 319 322 323 325 326
314 313 311 309 308 307 306 305 304 304 303 303 303 302 302 302 304 308 306 303 305 306 306 307 309 310 311 311 310 314 316 315 316 316 316 318 316 312 317 319 321 323 323
310 309 308 306 305 304 303 303 302 301 301 303 305 304 304 304 304 304 301 301 300 301 301 301 301 301 304 310 310 309 313 315 315 316 315 316 317 314 313 315 319 322 322
308 307 306 305 305 304 301 301 302 303 304 304 303 302 301 301 302 300 298 298 299 298 298 297 296 297 298 301 305 308 308 311 314 315 315 314 317 315 311 310 315 318 319
306 306 305 305 303 300 301 302 302 301 300 300 301 301 298 298 297 299 297 298 297 297 296 295 294 296 297 299 301 303 307 307 307 311 314 313 314 316 312 308 308 311 312
305 305 303 302 300 300 299 299 299 299 300 300 299 300 298 298 295 295 297 295 295 294 294 293 293 297 296 295 298 301 302 305 307 306 308 312 313 315 313 310 309 307 307
304 302 301 301 300 299 297 297 298 299 298 298 297 297 296 295 295 294 294 293 294 293 293 293 294 293 294 292 293 295 296 300 303 305 307 306 310 314 313 312 309 307 307
302 301 300 299 297 296 296 296 296 295 295 296 296 295 294 293 294 294 294 293 293 293 293 293 292 293 294 291 292 292 293 294 300 301 303 306 307 308 312 309 307 306 305
301 300 299 298 297 296 295 295 295 294 294 294 294 294 294 294 294 294 294 293 293 292 292 292 291 291 292 291 291 292 293 292 296 298 300 303 305 307 308 306 306 305 304
300 298 297 297 296 296 296 295 295 295 295 295 294 294 294 294 294 294 293 293 292 292 291 291 291 291 290 290 290 291 292 292 292 294 295 298 300 302 301 303 303 303 303
298 297 297 297 296 296 296 296 295 294 294 293 293 293 293 293 293 291 290 291 291 290 290 290 291 291 290 290 289 289 290 292 292 292 293 294 296 297 299 299 299 299 299
296 295 296 296 296 296 294 294 293 292 292 292 292 291 290 288 287 287 287 288 286 287 287 289 289 289 289 289 289 289 288 289 289 292 291 292 292 295 295 295 294 295 296
295 294 294 295 295 293 292 291 291 290 290 289 288 287 286 286 286 286 286 285 284 285 286 286 287 288 288 288 288 287 287 287 288 290 291 290 290 292 292 293 293 292 292
294 294 294 294 294 292 291 290 289 289 288 287 286 286 286 285 284 284 283 284 284 285 285 285 286 287 287 286 286 286 285 286 288 289 289 290 291 291 291 292 293 293 294
295 295 294 293 292 290 289 289 288 287 286 286 285 284 283 282 282 282 283 284 284 285 285 285 285 285 285 285 285 285 285 285 284 286 288 288 288 291 292 292 292 292 292
295 295 293 292 291 289 288 288 287 286 285 284 283 283 282 281 281 282 282 283 283 284 284 284 284 284 284 285 285 284 284 284 283 284 284 286 287 287 288 289 291 291 291
294 293 292 292 289 288 288 287 286 285 284 284 283 283 282 282 282 282 281 281 282 283 283 283 283 283 283 284 284 284 283 283 283 284 284 284 285 286 287 288 288 289 290
293 292 291 288 288 287 286 285 284 284 284 284 283 283 282 282 281 281 280 281 281 282 282 282 282 283 283 283 283 283 283 283 281 284 284 285 285 285 285 285 286 287 288
292 290 288 289 286 286 285 284 284 284 283 283 282 281 280 280 279 279 279 280 280 281 282 282 282 282 283 283 283 283 283 283 282 284 284 284 284 285 285 285 285 286 286
290 290 288 286 285 284 284 283 283 282 281 280 279 279 278 278 278 279 279 280 280 280 280 281 281 281 282 283 283 283 283 283 282 283 283 284 284 284 284 284 284 284 284
290 287 286 285 284 283 282 282 281 280 278 277 278 277 278 277 278 279 279 280 280 281 281 281 281 281 281 282 282 284 283 283 283 283 284 284 284 283 284 285 285 285 285
287 287 285 284 283 282 281 281 280 278 277 278 277 277 277 278 279 280 280 280 280 280 281 281 281 281 281 281 281 281 282 282 282 282 283 283 283 283 283 285 285 285 284

GFSMA_925_thetae_042.txt.gz
Theta_e
326 324 324 322 320 319 319 318 318 317 316 315 315 314 314 314 314 315 315 316 316 316 316 316 317 319 319 319 318 314 311 309 309 311 314 320 325 325 325 326 326 325 325
325 323 322 320 319 318 317 316 315 313 312 312 311 311 310 309 308 308 309 310 311 314 315 315 316 315 317 317 317 317 314 310 309 308 310 316 320 324 325 326 325 326 325
323 322 320 318 317 315 313 312 311 310 310 309 307 306 305 304 303 301 304 307 309 311 312 313 313 314 315 315 316 316 317 314 311 310 308 307 315 319 323 325 326 326 325
321 320 318 316 313 311 311 310 309 308 306 305 304 304 303 302 300 300 305 306 308 308 310 311 311 312 312 313 313 316 317 317 318 315 311 308 306 311 317 320 324 325 326
318 316 313 312 309 309 307 306 304 303 302 302 302 301 301 301 300 302 305 303 303 303 305 305 306 307 308 310 311 312 315 318 317 318 318 314 309 306 307 313 319 321 324
313 312 310 308 306 305 304 304 302 301 301 303 302 303 300 299 303 304 301 299 299 299 299 300 300 301 302 303 305 309 312 314 317 318 317 318 315 311 308 308 313 318 320
309 307 306 305 305 305 302 300 300 300 301 302 303 301 300 304 300 300 298 298 297 297 298 297 296 296 297 298 299 301 307 310 312 315 318 316 317 315 313 311 310 314 316
307 306 306 305 304 302 300 299 299 299 299 299 300 300 298 299 300 299 298 297 297 296 295 294 294 295 296 297 298 299 302 304 307 309 311 315 316 316 315 314 310 310 315
306 305 304 303 301 300 299 298 297 297 299 299 299 299 297 297 296 297 297 295 295 294 293 292 293 295 293 292 294 298 298 301 303 305 306 309 311 315 315 314 313 309 312
305 304 302 301 300 299 298 297 297 297 298 298 297 298 297 297 295 295 295 294 294 293 293 292 293 293 294 292 291 292 295 294 297 300 303 305 308 310 314 315 314 310 309
303 302 301 300 299 298 297 296 295 297 297 296 296 296 295 294 294 294 294 293 293 293 293 293 292 292 291 293 290 291 292 292 292 295 299 302 305 307 310 314 314 313 311
302 301 300 299 297 296 296 295 295 294 294 294 294 294 293 293 293 293 293 294 293 292 292 291 292 291 291 291 290 290 291 292 292 292 295 298 301 304 307 309 313 314 310
301 301 299 297 296 296 296 295 295 295 295 294 294 294 294 294 294 293 293 292 291 292 291 292 291 291 291 290 290 290 290 292 292 292 291 295 299 300 303 306 308 311 309
299 299 298 297 296 296 295 296 295 295 295 294 294 293 293 293 293 293 293 292 291 291 290 290 290 289 289 289 289 289 289 290 292 292 291 291 295 298 300 302 305 308 308
298 299 297 296 297 296 296 296 295 294 293 292 292 292 292 292 292 291 289 287 288 288 287 287 287 288 288 289 288 289 289 289 289 289 290 291 291 295 296 300 301 303 304
298 298 296 295 296 296 296 294 293 293 292 291 290 289 288 287 286 287 287 287 286 287 287 286 286 286 286 287 288 288 288 288 288 288 289 291 291 290 294 295 297 298 297
298 297 294 294 294 295 293 292 291 290 289 289 288 287 286 286 286 285 284 284 283 283 284 284 284 285 285 286 288 287 287 287 286 287 288 289 289 291 290 293 293 294 294
298 296 294 294 294 293 292 291 289 289 288 287 286 285 285 284 283 282 282 281 282 283 283 284 284 285 285 286 287 286 286 286 285 285 287 288 289 291 291 290 292 292 292
297 296 295 294 293 293 290 289 288 287 286 285 284 284 283 283 282 281 281 281 281 282 283 284 284 284 284 285 285 285 285 285 285 284 284 286 287 288 291 291 290 292 292
296 295 294 293 293 291 289 287 286 286 285 284 284 283 283 282 282 282 282 282 281 281 281 282 282 283 283 283 284 284 284 285 284 283 283 284 284 286 287 290 290 292 291
294 293 292 292 291 288 289 287 285 285 284 284 283 283 283 282 282 282 282 281 280 280 281 281 282 282 282 283 283 283 283 283 283 283 283 284 284 284 286 287 288 290 291
292 291 290 289 288 289 286 285 284 284 284 283 283 282 281 280 280 280 280 280 280 280 281 281 281 282 282 282 282 282 282 282 283 283 283 284 285 285 286 286 286 287 288
291 290 289 288 288 286 285 284 284 283 282 280 279 278 278 279 278 278 278 279 279 280 280 281 282 281 282 282 282 282 282 282 282 283 283 283 283 284 284 285 285 285 286
290 290 289 286 285 284 283 283 282 281 280 278 277 277 278 277 277 278 279 279 280 280 280 280 280 281 281 281 281 281 282 282 283 282 282 283 283 283 284 284 284 284 284
290 289 287 285 285 283 282 281 281 280 278 277 277 277 277 277 278 279 280 279 279 279 280 281 281 282 282 282 282 282 282 283 282 282 283 283 283 283 283 284 285 285 285
287 286 285 284 283 283 281 281 280 279 278 278 277 277 277 278 278 279 279 279 279 280 279 280 281 281 281 281 281 281 281 282 282 282 282 282 283 283 283 285 285 285 285

GFSMA_925_thetae_045.txt.gz
Theta_e
327 326 325 324 320 319 318 317 316 315 314 312 311 310 309 308 308 309 310 311 312 313 314 315 316 317 318 318 318 319 319 317 314 314 312 310 314 321 325 325 326 326 325
325 323 322 320 318 317 315 314 312 311 310 310 309 307 306 306 305 303 306 307 304 308 310 311 314 314 314 315 315 316 316 317 315 314 314 311 309 313 319 324 325 326 326
323 322 319 318 315 313 311 311 309 308 308 306 306 306 306 305 305 304 305 306 307 307 309 310 311 311 312 312 314 315 316 316 318 317 316 316 313 308 310 317 323 325 325
322 319 316 314 311 309 309 308 306 305 305 305 305 305 305 304 304 306 305 305 306 305 306 307 306 307 307 308 310 313 316 317 317 318 319 318 316 314 309 308 315 321 325
315 313 312 309 308 306 305 305 304 303 303 304 303 303 304 302 303 304 303 303 301 300 300 300 301 302 303 303 304 307 311 315 316 317 319 319 318 317 315 312 309 312 319
309 308 307 306 305 305 304 303 301 301 302 302 300 301 301 300 304 302 302 301 299 298 298 297 297 297 297 298 299 301 308 310 311 314 315 318 319 319 318 316 313 310 311
308 307 306 306 305 303 301 300 301 301 301 301 300 299 300 304 304 300 300 299 298 297 297 296 296 297 298 297 297 298 304 304 306 309 310 312 314 317 317 317 317 314 311
306 306 306 305 303 302 300 299 300 299 299 300 300 299 300 300 301 301 298 298 297 296 295 295 295 296 297 296 296 298 299 300 301 303 306 308 310 313 315 316 317 316 313
306 306 305 303 301 300 300 298 298 299 298 299 299 299 300 300 299 298 298 297 296 295 295 294 294 294 296 295 294 295 294 293 295 299 302 305 307 309 311 313 315 315 315
306 304 302 301 300 298 296 297 297 298 298 298 298 298 298 298 297 297 296 295 295 295 295 294 294 294 294 294 294 293 291 292 292 295 297 300 303 305 308 310 313 316 316
303 302 301 300 299 297 295 295 297 296 296 296 296 296 294 295 295 295 296 295 294 294 294 293 293 294 293 293 293 292 290 291 292 292 295 296 298 301 305 308 311 314 316
300 300 300 299 299 297 296 296 295 295 296 296 295 295 295 295 294 294 295 294 294 293 293 293 293 293 293 293 292 290 289 289 290 291 293 294 295 298 300 302 306 309 313
298 299 299 299 298 297 296 296 295 295 296 295 296 295 295 294 294 294 293 293 293 293 293 292 292 291 291 291 291 289 290 289 289 290 291 291 292 294 296 299 302 305 308
298 298 299 299 297 297 296 296 296 296 295 295 295 294 294 293 293 293 292 292 292 291 290 290 290 290 290 289 289 289 289 289 289 289 289 289 290 291 291 296 300 301 305
298 298 298 298 296 295 296 296 296 295 294 293 293 292 292 292 291 290 290 289 289 291 291 290 289 289 288 288 288 289 289 289 288 288 288 288 289 290 290 291 297 299 301
298 298 298 297 295 294 295 295 294 293 292 292 291 289 289 288 288 288 287 287 287 287 290 287 287 286 286 286 286 286 287 289 288 287 287 287 288 289 289 290 292 297 298
296 297 298 297 294 295 295 294 293 292 290 289 288 288 287 287 286 286 285 285 284 284 286 285 285 285 286 286 286 286 287 288 288 287 286 287 288 288 289 290 290 293 296
293 295 296 295 295 294 294 292 291 289 288 287 287 287 286 285 285 284 284 283 283 283 283 284 284 284 285 285 285 286 286 287 287 286 285 285 286 288 289 291 291 291 293
292 293 295 295 294 293 292 291 289 288 286 286 286 285 285 284 284 284 283 283 283 283 283 283 283 283 283 283 284 285 285 286 286 286 285 285 284 284 287 289 291 291 293
293 293 293 293 292 291 290 287 287 286 286 285 285 285 284 284 284 283 283 283 283 282 282 282 282 282 282 283 283 283 284 285 286 286 285 284 284 284 284 286 288 291 291
293 292 291 291 290 289 288 287 286 286 286 285 284 284 283 282 281 281 281 281 281 281 281 281 281 281 282 282 282 283 283 283 284 285 285 285 285 285 286 285 287 289 291
291 290 290 288 288 288 287 286 286 285 284 283 282 281 280 279 280 279 279 279 279 280 280 281 281 282 282 282 282 282 283 283 284 284 285 285 285 285 286 286 287 287 288
291 290 289 288 287 286 285 284 284 283 282 281 280 279 279 279 279 279 279 279 280 280 280 281 282 282 281 281 282 282 283 283 283 283 284 284 284 285 285 285 285 286 286
291 290 290 287 285 285 284 283 282 282 281 280 279 279 279 279 279 278 280 281 280 280 280 281 281 282 282 282 282 282 282 282 283 283 283 283 284 285 286 286 285 285 285
290 289 288 286 285 284 283 282 281 281 280 280 279 279 278 278 278 278 279 279 279 279 280 280 280 281 281 282 282 283 283 283 283 284 284 283 283 285 285 285 286 284 284
287 286 285 285 284 283 282 281 281 281 280 280 279 279 278 278 278 278 279 279 278 279 279 279 280 281 281 282 282 282 282 283 282 284 284 283 284 284 286 286 286 286 286

GFSMA_925_thetae_048.txt.gz
Theta_e
331 330 329 327 325 323 322 321 320 319 318 316 315 314 313 313 312 312 311 310 308 305 307 310 312 314 316 316 316 316 317 318 321 322 317 315 314 310 314 322 325 326 326
327 325 325 324 322 320 319 317 317 316 315 314 313 313 312 312 311 311 311 310 309 306 305 307 309 310 311 313 314 315 315 316 317 319 319 316 316 313 309 313 321 325 326
324 323 323 320 317 316 315 315 314 313 312 311 311 311 311 311 310 309 309 309 309 309 306 307 307 307 307 308 310 312 315 317 318 318 319 320 320 318 315 309 310 320 324
320 318 317 314 313 312 312 311 311 310 310 310 309 309 308 308 308 306 307 307 307 306 306 304 303 303 303 303 305 308 311 313 315 317 318 319 320 320 318 316 310 309 317
313 312 313 312 310 310 310 309 309 308 307 306 306 303 303 304 302 303 305 306 305 304 304 302 300 298 298 297 301 304 307 310 312 313 315 316 318 320 320 319 317 312 309
312 311 311 310 310 310 309 307 306 305 304 303 303 301 303 302 302 304 304 304 303 302 301 300 300 299 298 299 300 302 304 306 307 308 310 311 313 315 317 319 319 317 314
310 311 310 310 309 308 306 305 303 302 301 301 302 301 301 302 305 305 303 302 301 301 300 299 298 298 299 299 299 299 301 301 302 303 305 306 309 310 312 316 318 318 317
310 309 309 308 306 304 303 302 301 301 300 300 302 301 302 301 301 303 302 301 300 299 298 298 297 297 297 298 298 296 297 297 298 299 301 303 305 307 309 312 314 317 318
309 309 307 305 304 302 301 301 300 300 300 299 300 300 302 302 300 299 299 299 299 298 298 297 297 297 296 297 297 297 295 292 296 296 298 298 300 302 304 307 311 313 316
308 306 304 303 302 301 301 300 298 299 299 298 298 298 299 298 299 299 297 296 296 296 296 296 296 296 296 296 295 296 294 290 291 295 296 296 297 299 301 303 307 311 314
305 303 302 302 302 301 300 300 299 299 298 298 297 297 297 297 296 296 298 296 295 295 295 295 295 295 295 295 295 295 292 290 289 291 294 294 295 296 298 300 303 306 309
302 302 302 302 301 301 300 300 299 298 298 297 297 297 296 296 295 295 297 296 295 294 294 294 294 294 293 293 293 292 292 290 289 288 291 293 293 294 294 296 299 302 306
301 301 301 301 301 300 300 299 298 297 297 297 296 296 295 295 294 294 294 293 293 292 292 292 293 293 292 292 291 291 291 289 289 290 289 290 292 293 293 293 295 299 303
301 301 301 301 301 300 300 299 298 297 297 296 296 295 294 293 293 293 292 292 293 292 291 291 291 291 291 291 290 289 289 289 290 290 289 288 289 291 292 292 292 295 299
301 300 300 300 300 299 299 298 297 297 296 296 295 294 293 292 291 291 290 290 290 292 292 290 289 289 289 289 289 288 288 288 288 288 289 288 287 289 291 292 290 292 295
298 298 298 298 297 298 297 297 296 295 295 294 294 292 291 290 290 289 289 289 288 288 290 288 288 288 287 287 287 287 287 287 288 288 288 288 287 287 287 288 288 289 291
295 294 295 295 296 296 296 296 296 295 294 293 292 291 290 289 289 288 288 287 287 287 288 287 287 286 286 287 287 287 288 288 288 288 288 288 286 285 286 288 289 290 291
294 294 295 295 295 296 296 295 294 294 292 291 291 290 289 288 288 287 287 287 287 286 286 287 286 286 286 286 286 286 286 286 287 288 288 287 286 286 285 285 287 290 291
294 294 295 295 295 295 294 293 292 291 290 290 289 289 288 287 287 287 287 286 286 286 285 285 285 284 284 284 285 285 285 285 286 287 287 287 286 285 285 285 285 288 290
294 294 294 294 293 292 291 290 290 290 290 289 289 288 287 286 286 285 284 284 284 284 284 284 284 283 283 283 284 284 285 285 285 286 287 287 286 286 285 285 284 286 289
294 293 293 292 292 291 291 290 290 289 289 288 287 286 285 283 281 281 281 282 282 282 282 282 282 283 283 284 284 284 284 284 285 285 285 286 286 287 287 287 287 286 288
293 293 292 292 291 291 288 287 287 288 288 286 285 284 283 282 282 280 280 280 279 280 281 281 282 283 284 283 283 284 284 284 286 284 285 286 286 287 287 288 288 288 288
293 293 292 292 291 290 286 285 285 286 286 285 284 283 283 282 281 281 281 280 281 282 281 282 282 282 283 284 283 284 283 284 284 284 285 286 285 286 286 287 286 286 287
292 291 291 291 290 289 285 284 283 285 285 284 283 282 282 282 281 279 279 280 281 281 281 281 281 282 282 282 282 283 284 284 284 284 284 285 285 285 286 286 287 286 285
291 290 290 290 289 288 285 283 283 284 284 283 283 282 281 280 280 278 279 280 280 280 280 280 280 280 281 281 282 283 284 284 285 285 284 285 285 285 285 286 287 287 285
290 290 289 289 287 287 285 282 282 283 283 283 282 282 281 279 277 278 278 279 279 280 279 279 280 280 281 282 282 283 284 284 284 285 284 286 285 285 286 286 287 288 287

GFSMA_925_thetae_051.txt.gz
Theta_e
328 328 329 328 326 325 324 323 322 321 320 320 318 318 317 316 316 316 315 314 313 311 309 306 308 313 314 314 315 316 318 318 318 321 322 322 314 313 312 310 317 324 326
331 329 327 326 325 322 321 320 319 318 318 317 316 316 315 315 315 314 313 313 312 310 309 308 306 307 308 310 311 313 315 316 318 319 320 321 321 316 315 313 309 315 324
327 327 325 323 320 318 317 316 316 315 315 315 314 314 313 313 312 311 311 310 310 310 309 306 305 304 304 304 307 309 311 312 314 315 318 319 320 320 320 316 314 310 312
320 321 319 317 315 313 313 313 313 313 312 311 310 310 309 307 306 307 306 305 308 308 306 305 303 302 299 300 303 305 307 309 311 313 313 314 316 318 320 320 318 316 311
313 315 315 314 313 312 312 312 310 309 308 307 306 305 305 304 305 305 304 305 307 306 306 304 302 301 300 299 300 303 305 306 308 309 309 310 312 313 315 317 320 319 317
314 313 313 313 312 311 311 309 308 306 305 304 303 304 304 304 303 304 306 306 305 305 303 303 301 301 300 300 300 300 302 303 303 304 304 305 307 309 310 312 315 318 319
313 313 312 312 311 309 308 307 305 303 303 302 302 302 303 302 303 305 305 305 304 303 302 301 300 300 299 299 300 299 299 299 300 300 301 301 303 304 306 308 311 314 316
312 311 312 310 309 307 305 304 303 303 302 301 301 301 303 301 301 303 302 302 303 301 301 300 299 299 298 298 298 298 297 296 296 297 298 299 300 300 302 303 306 309 312
311 311 309 308 306 304 303 303 302 301 301 300 300 300 301 301 300 299 299 299 299 299 298 298 297 297 298 298 297 297 296 295 294 295 296 297 298 298 299 301 302 305 309
310 308 306 304 304 303 303 302 301 301 300 300 299 298 298 298 300 300 298 297 297 297 297 297 297 297 297 297 296 296 296 293 291 292 293 294 296 296 297 297 299 301 304
307 306 304 303 304 303 302 302 301 301 300 299 299 298 298 298 298 298 299 298 297 296 296 296 295 295 295 295 295 295 294 292 292 292 292 292 293 294 295 295 296 297 300
304 303 303 303 303 302 302 301 301 300 299 299 298 298 298 297 297 297 298 296 296 295 294 294 293 293 295 295 294 293 293 292 291 290 290 291 291 292 293 294 294 295 296
303 303 302 302 301 301 301 301 301 300 299 298 298 298 297 296 296 295 295 295 294 293 293 293 293 292 292 294 293 293 292 291 290 289 291 291 291 291 291 292 293 293 294
303 303 302 301 300 300 300 300 300 300 299 298 298 297 296 296 295 294 293 293 294 292 292 291 291 291 291 291 290 290 291 290 289 288 289 289 290 290 290 290 291 292 293
301 299 299 299 299 298 298 298 299 299 298 297 297 297 295 295 293 292 292 291 292 293 292 291 291 290 290 289 289 289 289 289 289 288 288 287 288 289 289 289 289 290 292
298 297 296 296 296 296 297 297 297 297 297 296 296 295 294 293 292 291 291 290 290 290 292 289 289 289 289 288 288 288 288 288 288 289 289 289 288 289 289 288 288 288 291
296 296 295 295 296 296 296 296 297 296 295 295 294 294 293 292 291 290 290 290 289 289 290 289 288 288 288 288 288 287 287 287 288 287 287 288 289 289 287 286 286 285 287
296 296 295 296 296 295 295 295 295 295 294 293 293 293 292 291 290 290 289 289 289 288 288 289 288 287 287 286 286 286 286 286 287 287 286 287 288 287 287 286 286 285 285
296 295 295 295 295 296 295 294 293 293 293 292 292 291 290 290 289 288 288 288 287 286 286 287 287 286 286 285 285 285 285 286 286 286 286 286 287 287 287 286 286 285 285
295 295 295 295 294 293 293 293 292 291 291 291 291 290 289 288 287 286 285 284 284 284 285 285 285 285 284 284 284 285 285 285 286 286 286 286 287 287 287 286 286 285 285
295 295 295 294 293 292 292 291 291 291 290 290 289 288 287 286 284 283 282 282 283 282 283 283 283 283 283 284 285 285 285 285 285 285 285 285 286 287 287 288 288 287 287
295 295 294 293 293 292 290 290 288 289 289 288 287 287 286 285 284 283 283 282 281 281 281 282 283 283 284 283 284 285 285 285 286 285 285 286 286 286 287 288 288 288 288
294 294 293 292 293 293 290 288 286 286 287 287 287 286 285 285 284 283 282 281 281 281 282 282 282 283 283 284 283 283 283 284 284 285 285 286 285 286 286 287 287 287 286
294 292 292 292 291 292 288 287 285 285 287 287 286 285 285 284 283 281 280 280 280 281 281 282 281 282 282 281 281 281 282 283 284 284 284 286 285 285 286 286 286 287 287
293 291 291 291 291 291 287 286 284 285 286 286 285 285 284 283 282 280 278 279 280 280 281 281 280 280 280 281 281 282 283 284 286 285 285 285 286 286 286 286 286 287 287
292 291 290 290 290 289 288 286 284 285 285 284 284 284 283 282 280 278 278 278 279 280 279 279 279 280 281 282 282 283 284 285 285 286 285 286 286 286 287 287 287 287 288

GFSMA_925_thetae_057.txt.gz
Theta_e
327 327 326 326 324 323 322 321 320 318 315 315 315 313 311 310 311 309 306 306 307 308 309 311 311 309 308 307 307 308 310 311 312 314 315 316 317 318 319 319 319 318 312
327 327 326 324 323 319 317 316 313 313 312 311 311 310 308 307 306 306 306 305 306 307 308 306 306 306 306 305 304 305 307 308 310 311 311 312 313 314 315 317 319 320 319
326 325 323 317 312 312 313 312 312 311 310 308 306 305 305 304 304 304 305 304 304 306 308 305 304 304 304 303 303 304 306 306 306 307 307 308 308 309 310 312 314 316 318
317 313 312 310 312 313 312 312 311 308 305 304 303 303 302 302 302 303 302 302 303 305 307 305 303 302 301 302 302 303 303 304 303 303 304 304 304 305 307 307 309 310 313
314 313 313 312 312 311 311 310 308 305 303 303 302 302 301 301 301 301 301 301 304 306 304 304 302 301 301 300 301 302 302 302 301 301 301 302 302 302 302 303 304 305 307
314 314 313 313 311 309 307 306 305 304 303 302 301 300 300 300 300 299 299 299 299 300 300 301 300 300 299 299 300 300 301 301 301 300 300 299 299 300 300 301 301 303 304
313 313 311 310 309 307 305 304 303 303 302 301 300 300 300 300 299 299 299 299 298 298 297 298 297 297 298 298 299 300 300 300 300 299 298 298 297 298 298 299 299 300 301
312 312 311 309 308 305 304 303 303 303 302 301 300 300 297 299 299 298 298 298 298 298 297 297 297 296 296 295 296 297 297 297 297 297 297 297 296 296 296 297 298 298 299
312 310 308 307 305 304 304 303 303 303 302 301 301 300 297 296 297 298 298 298 297 297 297 296 295 295 294 294 293 294 295 295 295 296 295 295 295 295 295 295 295 296 297
311 310 307 305 304 304 304 304 303 302 302 302 301 300 300 298 296 296 298 297 297 296 295 295 294 293 293 293 293 293 294 295 295 293 294 294 294 294 294 294 294 295 296
309 306 305 305 304 304 303 302 302 302 302 301 301 300 299 299 298 296 295 296 296 295 294 294 293 292 292 292 292 293 295 292 293 292 292 292 292 292 293 293 293 293 294
304 304 304 303 302 302 301 301 300 301 301 301 300 300 299 298 298 297 294 293 294 294 293 293 292 291 291 291 291 290 292 291 291 291 292 292 291 291 291 291 291 291 292
304 303 303 302 301 300 300 299 298 298 299 300 299 299 299 298 298 297 296 295 292 294 292 291 291 291 291 290 289 290 289 290 290 289 290 290 290 290 290 290 290 290 290
303 302 300 299 298 297 296 296 296 296 297 300 299 298 297 297 297 296 295 294 289 290 291 291 290 290 290 289 289 289 288 288 288 289 288 289 289 289 289 289 290 290 290
302 300 298 297 296 296 296 296 296 296 297 297 296 296 297 296 296 295 294 292 291 287 289 290 289 289 289 289 288 288 288 288 287 287 287 286 287 288 288 289 289 289 290
299 298 297 296 296 296 296 296 296 296 295 295 295 294 294 294 294 293 292 291 290 290 289 289 288 287 286 286 286 287 287 286 286 285 285 286 286 287 287 288 287 288 289
297 297 296 296 296 296 296 296 296 295 295 294 293 293 293 293 292 291 290 290 288 285 285 285 285 285 284 285 285 285 285 284 284 284 285 285 285 286 286 286 286 287 288
297 296 296 296 296 296 296 295 293 292 292 292 291 292 292 291 291 290 289 287 286 284 284 283 283 283 283 283 283 283 283 283 284 284 285 285 285 286 286 286 286 287 287
296 296 296 296 295 296 295 294 293 293 291 290 291 291 291 290 290 288 286 285 284 283 283 282 282 282 281 282 282 282 283 283 283 284 285 285 284 284 284 286 285 286 286
296 296 296 295 295 294 294 293 293 291 291 291 291 291 290 289 286 286 285 284 283 282 282 282 281 280 281 281 282 283 282 283 283 283 282 283 283 284 285 284 285 286 286
295 295 295 296 295 294 293 293 292 292 290 290 290 289 288 286 286 285 284 284 283 282 281 281 280 281 281 281 282 281 283 282 281 281 281 282 284 283 283 283 284 285 286
294 295 295 295 294 293 292 292 292 291 290 288 288 287 287 286 285 284 284 283 282 281 280 280 280 280 280 281 282 281 280 280 280 280 281 281 281 282 283 284 284 284 285
295 294 294 294 292 292 292 292 291 290 288 287 287 287 286 285 285 284 283 283 282 281 278 279 280 280 281 280 280 280 280 280 280 281 281 281 282 283 285 285 284 285 285
293 293 292 292 291 291 291 291 291 289 286 286 286 286 285 285 284 284 283 282 281 279 277 279 280 279 278 279 280 280 281 281 281 281 282 283 283 285 284 285 285 285 285
292 291 292 291 290 289 290 290 289 286 285 285 285 285 284 284 283 282 282 281 280 277 278 279 278 279 279 280 280 281 281 282 282 282 281 282 284 283 284 285 286 286 286
292 292 291 291 290 288 289 289 288 285 285 285 284 284 284 283 283 282 282 280 278 277 278 278 279 278 278 279 280 280 280 281 281 281 281 282 282 283 285 285 286 286 286

GFSMA_925_thetae_060.txt.gz
Theta_e
326 325 325 323 322 321 319 317 316 315 314 312 311 310 307 306 305 305 305 305 304 306 313 313 310 309 308 307 306 307 308 309 310 312 312 311 312 312 313 314 315 316 318
326 325 324 322 319 317 315 313 312 311 311 310 307 305 303 303 302 303 304 303 303 305 308 309 308 307 306 306 306 306 307 306 306 307 307 307 308 308 309 310 311 313 314
326 324 319 313 312 312 312 311 311 310 306 303 302 303 302 302 302 301 301 301 302 305 307 306 305 306 304 305 305 305 305 305 304 304 304 303 304 304 304 306 306 307 309
322 314 310 311 312 312 311 311 310 306 303 302 302 301 301 300 300 299 300 300 306 307 304 303 303 303 303 302 304 303 303 303 302 302 302 302 302 302 302 303 303 304 306
312 313 312 312 312 311 310 308 306 304 302 302 301 300 299 299 299 299 299 299 299 300 301 302 301 300 301 301 301 301 302 302 301 301 300 300 300 300 300 300 301 302 303
314 313 312 311 310 309 307 305 304 303 302 301 301 300 299 299 298 298 298 298 298 298 298 297 297 298 298 301 302 301 303 302 301 301 300 299 299 298 298 298 299 300 301
313 313 312 310 309 308 304 303 303 302 302 301 300 300 299 299 298 299 298 298 298 297 297 297 296 296 297 297 297 298 300 299 299 299 299 298 297 297 297 297 297 298 299
312 312 311 309 308 304 303 303 303 302 302 301 301 299 296 298 299 299 298 297 297 297 296 296 295 294 294 294 295 297 297 297 297 297 296 297 297 297 296 296 296 296 296
312 311 309 307 305 304 304 303 303 303 302 302 301 300 297 296 296 298 298 297 297 296 296 295 294 294 293 293 292 293 294 294 295 296 296 295 295 295 295 295 295 295 295
312 310 307 305 304 304 304 303 303 302 302 302 301 300 300 299 295 294 297 298 297 296 296 295 294 293 292 292 291 291 292 294 295 295 294 294 294 294 294 294 294 294 294
311 309 306 305 304 303 302 301 300 300 301 301 301 300 300 299 298 295 295 295 296 296 296 294 293 292 291 291 290 290 291 293 292 293 293 293 293 293 293 293 293 293 293
306 306 304 303 302 302 301 300 299 298 297 298 300 300 299 298 297 297 295 294 293 295 295 293 292 291 290 291 290 289 289 289 292 292 292 292 292 292 292 292 292 292 292
303 302 303 301 300 298 297 296 296 296 296 296 297 300 299 298 298 297 297 296 294 294 293 292 291 290 290 289 289 289 289 288 288 288 288 290 290 290 290 290 290 291 291
304 307 299 298 297 296 296 295 296 296 296 297 298 298 297 297 297 296 296 294 294 289 290 290 290 289 289 289 288 288 288 288 288 287 287 287 288 288 289 289 289 289 290
302 299 299 298 297 296 296 295 295 296 296 296 296 296 296 296 295 294 295 294 291 287 287 289 288 287 287 287 286 286 286 287 287 286 286 285 286 286 287 288 288 288 288
299 299 298 297 296 296 296 295 296 295 295 294 294 294 293 293 293 293 291 290 290 289 288 287 285 284 284 283 283 284 284 284 284 284 284 284 285 286 286 286 286 287 287
298 297 297 296 296 296 295 295 295 294 293 292 291 292 292 293 292 291 291 290 289 286 284 284 283 283 282 282 281 281 282 282 282 283 284 284 285 285 286 286 286 287 287
297 297 296 296 296 295 295 295 294 293 292 292 290 291 291 291 291 290 289 287 285 284 283 282 282 282 282 281 280 281 281 282 282 282 284 285 285 284 284 284 284 285 285
296 296 296 296 296 295 295 295 294 293 292 292 290 290 291 291 290 289 287 285 284 283 283 282 282 281 280 280 280 281 281 281 282 283 282 283 282 282 283 285 285 285 284
295 295 295 295 295 295 295 294 293 293 293 291 291 291 290 290 288 286 285 284 283 283 283 282 280 280 280 280 280 281 281 281 281 280 280 280 281 282 283 284 282 283 283
294 294 295 295 295 295 294 292 292 292 292 291 290 289 288 287 286 286 285 284 283 283 281 280 279 279 280 280 280 281 280 280 279 279 280 280 281 281 282 283 284 284 284
294 294 295 294 295 294 293 292 292 291 291 290 290 289 287 286 286 285 284 283 283 281 280 279 278 279 279 280 280 279 279 279 280 280 280 280 281 282 283 284 284 284 284
294 294 293 292 293 292 292 291 291 291 290 289 288 286 286 285 285 284 283 283 282 281 280 277 278 279 279 278 278 278 279 279 280 280 280 281 281 282 282 283 283 284 285
293 293 292 291 291 291 291 290 290 290 289 288 286 286 285 285 284 284 283 282 282 282 279 277 279 279 278 279 279 280 280 281 281 281 281 281 281 281 283 283 284 285 286
293 292 292 291 291 291 290 289 289 289 288 286 285 285 285 284 284 283 282 282 282 281 278 278 278 278 278 278 279 279 279 280 280 280 281 281 281 282 282 283 284 285 285
291 291 291 291 291 290 289 288 288 288 287 286 286 285 284 283 283 282 282 282 280 279 278 278 278 279 278 278 277 278 278 279 280 280 281 281 281 282 283 283 285 285 285

GFSMA_925_thetae_063.txt.gz
Theta_e
327 325 323 322 321 319 318 317 315 312 310 309 307 305 304 303 303 302 302 303 303 306 312 313 311 310 309 308 307 308 308 308 308 308 308 308 308 308 308 309 309 310 311
325 324 322 320 318 317 313 311 310 308 304 303 302 302 302 301 301 300 300 300 301 304 311 310 309 308 307 307 307 307 307 306 305 305 305 304 305 305 305 305 306 307 308
325 323 321 316 313 312 311 310 309 305 303 301 300 300 300 300 299 300 300 303 304 309 308 306 306 306 305 305 305 305 305 304 303 304 303 303 303 303 302 302 303 304 305
323 317 313 312 312 311 310 309 306 303 302 301 300 300 299 299 299 299 299 300 306 306 303 302 304 304 303 302 304 304 303 302 302 302 302 302 301 300 300 300 300 301 302
312 311 311 311 311 310 309 307 304 303 302 301 300 300 299 298 298 298 298 298 298 298 299 299 302 300 302 301 301 302 301 302 302 301 301 300 299 299 298 298 299 299 300
313 312 311 311 310 310 308 304 303 302 301 301 300 301 299 298 298 298 298 298 297 297 297 297 297 297 298 299 300 302 302 302 301 301 300 299 299 298 297 297 298 298 298
313 312 311 310 310 309 305 303 302 302 301 301 300 300 299 298 298 298 298 297 298 297 296 296 296 296 296 296 297 298 299 300 299 299 299 299 298 297 297 297 297 297 297
313 312 311 309 308 305 303 303 303 302 302 301 301 298 296 298 298 299 298 298 297 297 296 295 295 294 293 293 293 294 295 297 297 297 297 297 297 296 296 296 296 296 296
312 311 310 307 306 304 303 303 303 302 302 301 301 300 297 296 296 298 298 297 297 297 296 295 294 294 293 292 292 292 292 292 296 295 296 296 296 295 295 295 295 295 295
312 311 308 306 304 303 303 303 302 301 301 301 300 300 300 299 295 294 297 297 297 297 296 296 294 293 292 291 290 290 291 293 293 296 296 295 294 294 294 294 295 294 294
309 308 306 304 304 303 301 301 300 299 299 299 300 300 300 299 297 294 292 295 296 295 295 296 294 292 291 290 290 289 289 289 291 293 293 293 293 293 294 293 293 294 295
309 307 305 303 303 304 300 298 297 296 296 296 296 297 299 298 297 295 291 294 294 295 294 294 293 291 290 289 289 289 289 288 288 289 292 292 291 291 292 292 292 292 292
304 303 303 306 305 298 297 296 295 295 295 295 295 297 298 299 298 297 296 295 295 293 293 294 291 290 289 289 288 288 288 288 288 288 289 289 289 289 290 290 290 290 291
304 304 307 304 297 297 296 295 295 295 295 295 296 296 296 296 296 296 296 295 293 292 290 291 290 289 289 287 287 287 287 287 287 287 288 288 288 288 288 288 288 288 289
307 305 300 297 296 296 296 295 295 295 295 295 294 293 293 294 295 295 294 294 293 292 286 288 288 288 287 286 285 284 284 284 284 285 285 286 286 286 286 286 287 287 287
301 298 297 296 296 296 296 295 295 295 295 294 293 292 291 292 293 292 292 291 290 289 289 288 287 285 283 283 282 282 281 281 282 282 283 284 284 285 285 286 286 286 287
298 297 297 296 296 296 295 295 295 295 294 293 292 291 290 291 292 291 291 291 290 289 286 285 284 283 283 282 281 280 280 280 281 281 283 283 284 285 286 286 286 286 286
297 296 296 296 296 296 295 295 295 294 293 293 292 291 290 291 291 291 290 289 287 285 283 282 282 282 282 281 279 280 280 280 281 281 282 283 283 283 284 284 284 284 285
296 296 296 296 296 295 295 295 295 294 293 292 292 291 290 290 290 290 289 287 285 284 283 282 282 281 280 279 279 280 280 281 281 281 280 281 281 281 282 283 283 284 285
294 295 294 294 295 295 295 295 294 293 292 292 292 291 291 290 289 289 288 285 284 283 283 282 281 280 279 278 279 279 280 280 279 279 279 280 280 281 281 282 282 283 283
294 293 294 294 294 294 295 294 293 292 292 291 291 290 290 289 289 286 286 285 284 283 282 281 280 279 278 279 279 279 279 278 279 279 279 280 280 281 282 282 282 283 283
293 293 294 294 293 293 294 293 292 292 291 290 290 290 289 288 287 287 286 284 284 283 281 280 279 278 278 278 279 278 278 278 279 280 280 280 280 280 280 281 282 282 283
293 293 293 292 292 291 291 292 292 291 290 290 290 289 288 286 285 285 284 284 283 282 281 280 278 277 278 279 278 278 278 279 280 280 280 280 280 280 281 282 282 282 283
293 293 292 292 291 291 291 291 290 289 289 289 288 287 286 285 285 285 284 282 282 281 281 280 277 278 278 279 279 279 279 279 279 279 279 279 280 280 281 282 283 283 284
292 292 291 291 291 291 291 290 289 288 288 288 288 286 285 285 285 284 283 282 281 282 281 278 278 279 279 279 278 278 277 278 278 278 279 279 280 280 281 282 283 283 284
291 291 290 289 289 290 290 289 288 288 288 288 287 285 285 285 284 283 282 282 281 282 280 279 279 279 279 279 278 277 277 277 278 278 280 279 279 280 282 282 284 284 284

GFSMA_925_thetae_066.txt.gz
Theta_e
326 325 324 322 320 318 318 315 313 311 308 306 304 303 302 301 300 300 299 299 301 307 312 313 312 310 309 308 308 308 308 307 307 307 306 306 307 306 305 305 306 306 308
326 323 320 319 317 316 313 310 307 305 302 301 300 300 299 299 299 299 299 300 303 308 311 310 309 308 307 307 306 307 307 305 305 305 305 305 304 303 302 302 303 304 305
324 322 320 318 314 311 310 309 305 302 301 300 300 299 299 298 298 299 300 304 307 309 307 306 307 306 305 305 305 305 305 304 303 303 303 302 301 301 300 300 301 302 302
323 321 318 313 311 310 309 307 304 301 300 300 299 300 299 298 298 298 298 299 305 305 303 303 304 304 303 302 303 304 304 303 302 302 302 298 298 299 300 299 300 300 301
320 317 312 311 310 310 308 305 302 301 300 300 300 301 299 298 298 298 297 297 297 297 297 298 301 302 301 302 301 303 302 303 302 302 301 300 299 299 299 298 298 299 299
313 311 311 310 310 309 308 303 302 301 301 301 300 301 299 298 298 298 298 297 297 297 297 296 296 297 297 299 300 301 301 301 302 302 301 300 299 299 298 298 298 298 298
311 311 311 310 309 308 305 302 302 301 301 301 300 300 298 298 298 298 298 297 297 297 296 297 296 296 296 296 296 298 299 299 299 300 301 300 300 298 297 297 297 297 298
312 312 311 310 308 305 303 302 302 302 301 301 300 298 296 298 298 298 298 298 297 297 297 297 295 295 294 293 293 293 293 295 296 297 298 298 298 298 297 296 296 296 296
313 311 310 308 306 303 303 303 303 302 302 301 300 300 296 296 295 298 298 297 297 297 296 296 295 294 293 292 292 291 291 291 292 295 296 297 297 297 296 296 295 295 296
311 310 308 306 304 303 303 303 302 301 300 300 300 300 299 298 295 295 297 297 297 297 296 294 294 295 293 291 290 290 289 290 290 293 294 295 296 296 295 295 295 295 296
310 309 307 305 304 303 302 301 300 299 297 297 298 298 299 299 297 294 293 295 296 296 296 292 295 295 292 290 290 289 289 289 289 291 293 293 294 294 295 295 294 294 295
309 308 306 305 303 303 302 299 297 295 295 295 295 295 296 297 297 295 291 292 293 295 294 293 293 293 290 289 289 288 288 289 288 288 290 290 290 291 291 291 292 292 293
308 306 305 302 306 304 298 297 295 295 294 295 295 296 297 297 297 297 296 294 293 294 293 292 292 291 289 288 287 287 287 287 287 287 288 289 289 289 289 289 289 290 290
306 304 303 307 304 297 297 296 295 294 294 295 295 294 293 293 292 294 295 295 294 293 291 291 291 289 287 288 288 286 286 286 285 284 286 288 288 288 288 288 288 288 288
305 304 307 303 299 298 296 296 295 294 294 295 294 293 292 292 291 293 294 294 294 293 290 289 289 289 288 287 285 284 283 282 282 282 283 284 285 285 286 286 287 287 287
306 307 303 299 297 296 296 295 295 295 295 294 293 292 292 291 290 292 292 292 292 291 290 289 288 288 286 284 283 281 280 280 280 280 282 283 283 284 284 285 286 286 287
308 301 299 297 296 296 295 295 295 295 294 294 293 292 291 290 290 292 291 290 290 289 288 288 285 284 283 283 282 280 279 280 280 280 281 282 283 284 284 284 285 285 285
300 298 297 296 296 295 295 295 295 294 294 293 293 292 292 291 290 291 290 290 289 289 287 283 283 283 283 282 281 279 279 280 280 280 281 282 282 282 282 282 283 283 284
297 296 296 295 295 295 295 295 295 294 294 293 292 292 292 291 290 290 290 289 288 286 284 283 282 282 281 281 279 278 279 279 279 279 279 280 280 281 281 282 282 283 283
296 295 295 294 294 294 294 294 294 294 294 293 292 291 291 291 290 290 289 289 288 285 283 282 282 281 281 280 278 279 279 279 278 279 279 280 280 280 281 281 282 282 283
294 294 294 294 294 293 293 293 294 294 293 292 291 290 290 290 289 288 288 287 286 284 283 282 281 280 280 278 278 279 278 278 278 279 279 279 279 280 280 280 281 281 282
293 293 293 293 293 292 291 291 293 292 292 291 290 290 289 289 289 288 287 286 286 284 283 282 281 279 279 277 278 278 278 278 278 279 279 279 279 279 280 281 281 281 282
293 293 293 292 292 291 291 291 291 291 291 291 290 289 289 288 287 286 285 285 284 283 283 282 281 280 278 278 278 278 278 278 279 279 278 279 279 279 280 280 281 282 282
292 292 292 292 291 290 290 290 291 291 290 290 289 288 288 287 286 285 285 284 284 283 282 281 281 279 278 278 279 279 278 278 277 277 278 278 278 279 279 281 282 283 283
292 292 291 291 289 289 289 288 290 289 289 288 288 287 288 286 286 285 284 284 283 282 282 281 280 279 279 279 279 279 278 276 277 277 277 278 279 279 279 281 282 283 283
291 291 291 290 290 289 289 288 288 289 288 287 287 287 287 286 286 285 284 283 283 282 282 281 279 278 279 279 278 278 277 276 276 277 278 278 277 279 280 281 281 282 283

GFSMA_925_thetae_069.txt.gz
Theta_e
327 327 323 320 318 318 317 315 312 309 305 303 301 300 299 299 299 299 300 299 301 308 312 314 312 311 309 308 308 307 307 307 306 306 306 306 305 304 303 303 304 305 305
326 323 320 319 317 316 313 310 306 303 301 300 299 299 299 298 298 299 305 307 305 308 311 311 310 309 308 307 306 307 307 305 304 304 305 304 303 302 302 302 302 303 303
322 321 318 316 314 311 309 307 304 301 300 299 299 299 299 298 299 298 301 305 306 308 308 307 308 306 305 305 305 305 305 304 303 302 303 302 302 301 301 301 301 301 302
322 320 318 314 311 309 308 305 302 300 299 301 300 299 299 299 298 297 297 299 301 302 302 302 303 304 304 303 303 303 304 304 303 303 302 301 300 300 300 300 299 300 300
321 320 317 312 310 309 307 303 301 300 302 302 301 301 299 299 299 299 298 297 297 297 298 297 297 300 300 302 302 302 302 303 303 303 302 301 300 300 299 299 299 299 299
321 316 312 310 309 308 306 302 302 301 301 302 301 301 300 299 298 299 299 298 298 296 297 297 297 297 296 296 298 301 301 301 301 303 303 302 302 300 299 298 297 298 298
315 312 310 310 309 308 303 302 302 302 302 301 302 302 300 299 299 299 299 299 298 297 297 297 296 297 296 295 295 296 298 299 301 301 302 302 301 301 300 299 298 296 297
311 311 310 309 308 306 303 303 303 303 302 301 303 301 302 300 299 299 299 299 299 297 297 297 296 296 296 295 293 293 293 294 296 296 297 297 299 299 299 299 297 297 297
312 311 310 309 307 304 303 303 303 303 303 301 301 301 300 299 299 299 299 298 298 298 298 297 296 295 295 294 293 292 291 290 292 294 294 295 296 297 297 298 298 298 297
312 311 310 308 306 304 303 303 303 302 301 302 301 300 300 300 299 298 298 298 298 298 298 297 295 294 295 294 291 290 290 289 289 291 293 293 294 295 296 297 296 297 297
312 310 309 307 305 303 303 303 301 300 298 299 298 298 298 298 298 298 298 298 297 297 297 296 294 294 293 292 291 291 289 289 289 289 291 292 293 293 294 294 295 295 295
310 310 309 305 304 303 303 301 298 296 295 295 297 297 297 297 297 298 298 296 296 295 296 295 294 293 292 290 289 288 288 288 287 287 288 290 291 291 291 292 292 293 293
310 308 305 304 303 307 305 299 296 295 294 295 296 296 297 297 296 295 295 295 295 295 295 294 294 292 290 288 288 288 287 287 286 286 285 287 289 290 290 290 290 290 290
309 306 304 303 306 309 300 296 296 295 294 294 295 295 296 295 295 294 294 294 296 294 293 293 291 290 289 288 288 288 286 285 283 282 283 284 285 286 287 288 288 288 289
308 304 303 306 309 300 296 296 296 295 294 294 294 294 294 294 293 293 293 293 294 295 294 292 291 290 290 289 288 286 285 283 282 281 281 281 283 284 285 285 286 287 287
304 304 307 309 301 296 296 296 295 295 295 294 295 294 294 293 292 292 292 292 292 292 293 291 291 290 289 287 285 284 283 282 281 281 280 281 283 283 284 284 285 285 286
307 308 308 302 298 296 296 296 295 295 295 295 294 294 293 293 292 292 291 291 291 291 291 290 290 288 286 285 285 284 282 281 282 281 281 281 282 283 284 284 284 284 284
310 306 300 298 296 296 295 295 295 295 295 295 294 293 293 292 292 292 291 291 291 291 291 290 290 287 285 285 284 283 282 281 281 281 281 281 281 281 282 282 282 283 283
303 299 297 296 296 295 295 295 295 295 295 294 294 294 293 292 292 291 291 290 290 289 288 288 288 285 285 284 283 282 281 281 281 280 280 280 280 281 281 282 282 283 283
297 296 296 295 294 294 294 294 294 294 294 293 293 293 292 291 291 291 291 290 289 288 288 287 286 286 285 284 282 282 281 281 281 280 280 280 280 280 281 281 281 281 282
295 294 295 294 293 293 293 292 292 293 294 293 293 292 291 291 290 289 289 289 288 288 287 286 286 285 285 284 283 281 281 281 281 281 281 281 281 281 281 281 281 282 282
295 296 294 293 293 292 292 291 291 292 292 292 292 292 291 290 289 289 289 288 288 288 287 286 285 285 285 284 282 280 280 281 281 281 281 280 280 281 281 281 281 281 282
299 293 293 292 292 292 291 290 290 291 291 291 291 291 290 289 288 288 287 287 285 285 285 285 285 285 284 283 280 280 280 281 280 280 279 280 280 281 281 281 281 282 282
292 293 292 292 291 291 289 289 289 288 290 291 290 290 290 289 288 287 286 286 285 285 284 283 283 283 283 281 280 280 280 280 280 280 279 280 280 281 281 281 282 282 282
292 291 291 291 291 290 290 289 289 289 289 289 289 289 289 288 288 287 285 285 285 285 283 283 282 282 281 279 279 280 280 280 280 280 279 280 280 280 281 282 283 282 282
291 291 291 290 290 290 290 290 289 289 288 288 288 287 287 287 287 287 286 285 285 285 284 282 282 281 280 280 280 279 280 280 280 280 280 279 279 280 281 282 283 282 283

GFSMA_925_thetae_072.txt.gz
Theta_e
329 327 324 320 319 317 318 316 314 312 309 307 306 305 304 304 304 305 308 302 302 309 313 315 313 311 310 309 308 307 307 306 306 305 306 305 304 303 303 303 304 304 305
328 324 321 321 318 318 316 314 311 308 306 306 305 304 303 303 303 304 306 308 305 308 311 311 311 310 309 307 307 306 306 305 304 304 305 304 303 302 302 302 302 302 303
325 323 322 320 317 314 312 309 308 307 305 304 304 303 303 303 303 302 302 305 306 305 308 307 308 307 306 305 305 305 306 305 304 304 304 303 302 302 301 301 301 301 301
323 322 320 317 314 312 310 309 307 306 306 305 305 304 303 303 302 302 301 301 301 300 302 302 303 304 304 305 304 304 304 304 305 304 303 303 302 301 301 300 300 300 300
322 321 319 316 313 311 311 308 307 307 307 306 305 305 304 303 302 301 301 301 301 299 299 299 297 297 298 298 301 303 302 303 303 304 304 303 303 302 301 300 300 299 299
321 320 318 316 313 312 309 308 308 307 307 307 305 305 305 303 302 302 302 300 301 300 299 299 299 298 297 297 296 298 299 300 302 304 304 304 304 304 303 301 300 299 298
320 319 317 314 312 311 309 309 309 309 308 307 307 308 306 304 303 302 302 301 301 300 300 299 299 298 298 297 296 296 297 298 299 299 300 300 300 300 301 302 300 300 298
318 316 315 313 312 311 309 309 309 309 308 306 307 306 307 305 303 302 301 301 301 300 299 299 299 298 297 297 296 295 294 294 296 296 296 297 297 298 299 300 300 300 300
315 315 314 313 312 310 309 309 309 309 309 307 305 304 304 304 301 301 301 301 300 300 299 299 298 298 297 296 296 296 293 293 291 293 294 295 295 296 297 298 298 299 299
314 314 313 312 311 309 309 308 309 308 307 307 305 303 301 300 300 300 299 300 300 300 299 299 298 297 296 296 296 295 293 290 290 290 293 293 294 294 295 296 296 297 298
314 313 312 312 310 309 308 307 307 306 305 303 301 300 300 300 300 300 302 300 299 298 298 298 298 297 296 295 295 294 292 290 289 289 290 291 292 293 293 293 294 294 295
315 313 312 311 310 308 307 307 304 302 301 300 299 299 298 298 299 299 300 298 297 296 296 297 296 296 295 294 293 291 289 288 288 288 288 288 289 290 291 292 293 293 294
314 313 312 310 308 306 307 307 304 301 300 300 299 298 298 298 298 297 297 297 297 296 296 296 295 295 294 293 292 290 289 289 287 286 285 285 286 287 288 289 290 291 291
315 313 311 309 307 305 308 306 300 300 300 299 299 298 298 298 297 297 296 295 297 296 295 295 295 295 293 292 292 290 290 288 286 285 283 284 284 285 285 286 287 287 288
315 311 309 306 304 308 307 299 300 300 299 299 299 298 298 297 297 296 295 294 294 297 296 294 294 293 292 291 291 290 289 288 286 284 283 282 283 284 285 285 286 286 287
310 309 306 304 306 309 300 300 300 300 299 299 298 298 297 297 296 296 295 294 294 294 296 293 293 293 292 291 290 288 287 286 285 284 283 282 282 283 284 284 285 285 286
307 305 305 309 308 302 300 300 300 299 298 298 298 297 297 296 296 295 295 294 293 293 293 293 292 292 292 291 289 289 288 286 285 284 283 283 282 282 283 283 283 284 284
305 308 309 306 302 300 300 299 299 298 298 298 297 297 297 296 296 295 294 294 293 293 292 292 292 292 291 290 288 288 287 286 284 284 283 282 282 282 282 282 282 283 283
307 306 302 301 300 299 299 299 298 298 297 297 297 296 296 296 295 295 294 293 293 292 292 292 291 291 290 289 288 287 286 285 284 284 283 282 282 282 282 282 282 282 283
302 298 299 299 299 298 298 298 297 296 296 296 296 295 295 295 294 294 293 292 292 292 291 290 290 290 289 289 288 287 286 285 284 284 284 283 282 283 282 282 282 282 282
298 298 298 298 298 298 297 296 295 295 294 294 294 295 295 294 293 293 291 291 291 290 290 289 290 289 289 288 287 287 286 285 284 284 284 284 284 284 284 283 283 283 283
296 297 298 300 298 296 294 292 292 293 293 293 293 293 293 293 293 292 290 290 289 289 289 290 290 289 288 288 287 286 285 284 285 284 284 284 283 283 284 284 283 282 282
299 300 299 296 295 295 294 292 290 290 291 291 292 292 292 292 292 291 291 290 289 288 288 288 289 288 287 287 286 285 284 284 284 284 283 283 283 283 284 284 283 283 283
298 297 296 296 295 294 293 291 290 290 291 291 292 292 292 292 291 291 291 290 289 288 287 286 286 286 286 286 285 284 283 283 283 283 283 283 283 283 284 283 283 283 283
296 295 294 294 293 293 292 291 290 291 291 292 292 291 291 291 291 290 290 289 289 288 287 287 286 285 284 284 283 282 282 282 283 283 283 283 283 283 282 283 285 284 283
294 293 293 293 293 292 292 291 290 290 290 291 291 291 291 290 290 288 288 289 288 288 287 287 286 284 283 283 282 281 282 282 282 283 283 282 282 282 283 282 284 283 284

GFSMA_925_thetae_075.txt.gz
Theta_e
327 326 326 324 323 322 321 320 319 317 312 310 309 308 307 307 307 308 312 305 301 309 314 315 314 312 310 309 308 307 308 306 305 305 305 304 304 303 303 303 303 303 303
327 327 326 324 322 322 321 320 317 312 310 309 308 307 306 306 306 306 307 309 304 305 311 311 311 311 309 308 307 306 307 306 305 305 304 303 303 303 302 302 302 302 302
329 326 325 323 323 321 318 315 311 310 309 308 308 307 306 306 305 305 304 306 308 304 302 308 309 308 308 307 306 306 306 306 306 305 304 304 303 302 302 301 301 301 301
328 327 326 323 320 318 316 312 311 310 310 310 309 308 307 306 305 304 304 304 303 301 303 301 301 304 304 303 305 306 305 305 305 306 305 305 304 304 303 302 301 300 300
327 326 324 322 319 316 314 312 311 312 311 310 309 309 308 307 306 303 304 303 303 303 301 301 299 299 297 297 297 300 301 302 303 304 305 306 305 305 305 303 302 301 300
327 325 323 321 318 315 313 312 312 311 312 311 311 310 310 308 306 305 305 304 303 303 302 302 301 301 299 298 297 297 299 300 301 302 303 303 303 302 302 303 304 303 301
326 324 322 320 317 315 313 313 313 313 312 311 311 312 310 309 307 306 305 304 303 303 302 302 301 301 300 299 299 298 297 298 299 300 300 299 299 299 299 300 302 302 301
323 324 322 319 316 314 313 313 313 313 313 311 311 310 311 309 307 306 305 304 304 303 303 302 301 301 300 299 298 297 296 295 296 297 297 297 297 297 298 298 299 300 301
323 322 320 318 315 314 313 313 313 313 313 312 310 309 309 309 305 304 304 303 304 303 303 302 301 301 300 299 298 298 296 294 294 294 295 295 295 296 296 297 297 298 298
319 320 319 316 316 314 313 313 313 313 311 311 309 307 306 305 306 305 303 303 302 302 302 301 301 300 300 298 297 297 296 295 294 292 292 293 294 294 295 295 296 296 296
318 318 317 316 316 313 313 312 311 311 309 307 305 304 304 303 302 303 304 303 302 301 299 299 299 299 299 298 297 296 294 293 292 290 289 291 291 292 293 293 294 294 295
316 317 316 315 315 313 312 311 310 309 306 304 304 303 302 301 301 302 303 302 300 299 298 298 298 299 298 298 297 295 293 291 290 289 289 289 289 289 290 290 291 292 293
317 317 316 315 314 312 310 308 310 309 305 304 303 302 300 300 301 301 300 299 299 298 297 297 297 298 297 296 296 294 292 291 290 289 287 287 287 287 287 287 288 289 290
319 318 315 314 313 311 307 309 310 305 303 302 303 301 300 300 300 300 299 298 299 297 297 297 297 296 297 296 295 293 292 291 291 288 287 286 285 285 286 286 287 287 288
318 316 315 314 311 308 307 309 304 301 302 302 302 301 301 300 299 298 298 298 297 298 298 296 296 296 295 295 294 293 293 292 290 289 288 285 284 285 285 285 286 286 287
318 316 314 311 308 306 309 309 302 303 303 302 301 301 301 300 299 298 298 297 297 296 299 295 295 295 295 294 294 293 292 291 289 289 287 285 284 284 284 284 284 285 285
315 313 311 308 305 307 309 303 303 302 302 302 301 300 300 299 298 298 297 297 296 296 297 296 295 294 294 293 293 293 292 291 290 289 286 285 284 283 283 283 283 283 284
311 310 307 305 308 305 302 302 302 302 301 300 300 300 299 298 298 298 297 297 296 296 295 296 295 294 294 293 293 293 291 290 289 288 287 285 284 283 282 282 283 283 283
308 306 306 306 302 301 302 302 301 301 301 300 300 298 298 298 297 297 297 297 296 295 295 295 295 294 293 292 292 291 291 289 289 287 286 285 285 284 283 283 283 283 283
307 307 306 303 301 301 301 300 301 300 299 298 297 297 297 297 296 296 296 296 295 295 294 294 293 292 291 291 291 291 290 289 288 288 286 286 285 285 285 284 284 284 283
306 303 302 300 300 300 300 301 299 297 296 296 295 295 295 295 295 295 295 294 294 293 293 293 292 291 291 291 291 290 290 289 288 287 286 286 286 286 285 285 285 285 284
300 300 300 300 301 302 299 296 294 293 294 294 294 294 294 294 294 294 294 293 293 292 292 291 291 291 291 291 290 290 289 288 288 286 286 286 286 285 285 285 285 284 283
298 300 301 302 301 298 297 295 294 292 292 292 292 293 293 293 293 293 293 293 292 292 291 290 290 289 290 290 289 288 288 287 287 286 285 285 284 285 285 285 285 284 283
302 303 301 299 298 297 295 294 292 291 292 292 293 293 293 293 293 293 292 292 292 291 291 290 289 289 288 288 288 288 287 286 285 284 284 285 285 285 285 285 284 284 284
300 299 298 296 295 295 294 293 292 293 293 293 292 292 292 292 291 291 291 291 291 291 291 289 288 288 288 287 286 285 285 285 285 284 284 285 285 284 284 284 284 284 284
297 295 295 295 295 294 294 292 290 289 289 289 288 288 288 287 287 287 288 289 290 289 289 289 288 288 287 286 285 284 284 284 284 285 284 284 285 284 284 283 284 283 284

GFSMA_925_thetae_078.txt.gz
Theta_e
321 323 324 322 322 321 321 320 320 317 313 310 309 308 307 307 307 311 310 308 300 310 317 316 314 312 311 309 308 308 307 307 306 305 305 304 303 303 303 303 303 302 302
325 326 324 324 323 322 321 320 319 315 311 310 308 307 306 307 306 306 310 308 306 302 308 311 312 311 309 308 307 307 307 307 307 306 305 304 304 303 303 302 302 302 302
326 326 325 323 322 322 322 319 315 311 310 309 308 307 307 306 306 305 306 308 306 304 302 302 309 309 308 308 308 307 307 306 306 307 306 305 305 305 304 303 302 301 301
327 327 324 323 324 321 319 316 311 311 310 310 310 308 307 306 306 305 304 304 305 303 303 301 300 299 301 303 300 302 304 304 304 305 306 306 307 306 306 305 304 303 302
328 326 326 324 321 320 316 313 312 311 311 310 310 309 309 308 307 305 304 304 303 303 303 302 301 301 300 298 298 298 299 301 301 302 304 305 305 304 304 303 304 305 304
328 326 325 322 320 317 314 312 312 312 312 312 312 311 309 309 307 306 305 305 304 303 303 302 302 302 300 298 298 299 298 300 301 301 302 302 302 302 301 301 301 302 304
328 326 324 322 319 316 314 313 312 312 312 312 311 312 312 311 308 306 306 305 305 304 303 302 302 302 301 300 300 300 298 299 298 298 299 299 299 299 299 299 299 300 301
327 326 324 322 319 316 314 313 313 314 314 312 312 311 310 310 308 307 306 305 305 304 303 303 302 301 301 300 300 299 298 298 297 297 297 297 297 297 297 298 298 298 298
326 325 324 321 318 316 313 313 313 314 314 312 311 310 309 308 306 306 306 305 304 304 303 303 303 302 301 300 300 298 298 297 296 295 295 295 295 296 296 296 296 297 297
323 324 323 320 317 315 314 313 314 314 313 312 311 310 308 306 304 303 304 304 304 303 302 302 302 301 301 300 299 298 298 296 295 294 293 293 293 294 294 294 294 294 295
323 324 321 319 316 316 314 314 314 313 312 311 308 306 305 305 305 304 300 303 303 303 301 299 298 299 299 299 299 298 297 296 294 293 292 291 292 292 292 292 292 293 293
321 321 320 318 316 315 314 313 312 311 310 308 306 305 304 303 302 302 301 302 301 300 299 298 298 298 298 299 298 298 296 295 293 292 291 290 290 290 290 290 290 290 291
319 320 318 317 316 315 314 312 311 310 308 307 305 304 303 301 301 301 301 301 300 299 298 297 297 297 297 298 297 297 296 294 293 292 291 290 289 289 289 288 288 288 289
320 319 317 316 315 315 312 311 309 308 306 304 303 303 302 301 301 301 301 300 297 298 298 297 297 297 296 296 297 296 295 293 292 292 291 291 289 288 287 286 287 287 287
320 318 318 316 315 313 311 308 309 304 303 304 303 303 302 302 301 301 299 299 299 296 296 297 297 296 295 295 295 295 295 294 293 292 292 290 289 288 286 286 286 286 286
320 319 318 316 313 311 308 309 308 306 303 303 303 302 302 301 301 300 299 298 298 298 296 297 297 296 295 295 295 294 294 293 293 292 291 290 289 287 285 285 285 285 285
320 318 315 312 310 308 307 308 309 305 304 303 302 302 301 300 300 300 299 298 298 298 297 296 296 296 295 295 294 294 294 293 293 292 290 289 288 286 286 284 283 283 284
319 315 314 311 309 306 306 306 303 303 302 302 302 301 301 301 300 299 299 299 298 298 297 296 296 296 295 295 294 293 292 292 292 291 289 289 288 287 285 284 284 284 284
314 313 312 310 307 308 305 302 302 302 302 302 301 301 300 299 298 298 298 298 298 297 297 296 295 295 294 294 292 291 291 291 291 291 289 289 287 286 285 285 285 285 284
311 310 309 307 308 306 304 302 302 301 301 300 299 298 297 297 296 296 296 297 297 297 295 294 293 293 292 292 291 291 290 290 290 290 289 288 287 286 286 286 285 285 285
309 308 307 307 305 302 301 301 301 301 297 296 295 295 295 295 295 295 294 294 294 295 294 294 293 292 291 291 290 290 291 290 290 289 288 287 286 286 286 285 285 285 285
307 307 306 303 300 300 301 300 299 297 295 293 293 293 293 293 293 293 293 293 293 293 293 293 293 292 291 290 290 290 290 289 288 288 287 286 286 286 285 284 285 285 285
304 302 300 301 302 302 301 297 296 295 293 291 292 292 293 293 294 294 294 294 293 293 293 292 292 291 291 290 290 289 289 288 288 287 286 285 284 284 284 285 285 285 284
299 300 301 302 300 299 297 295 293 293 292 293 293 293 293 293 292 291 290 289 289 290 291 292 291 291 290 290 289 288 288 288 286 286 285 284 284 284 285 285 284 284 283
302 302 300 299 297 295 294 293 293 292 292 292 291 290 289 289 288 287 287 286 287 287 288 288 290 290 289 289 289 288 287 286 285 285 285 284 284 285 285 284 284 283 284
301 299 296 295 295 294 292 291 290 289 287 287 287 286 286 286 287 287 287 287 287 287 287 287 288 288 288 288 288 287 287 285 285 284 284 284 284 284 284 283 283 283 282

GFSMA_925_thetae_081.txt.gz
Theta_e
320 319 319 319 319 319 319 320 319 319 314 309 308 307 307 307 308 310 308 307 302 319 317 315 314 312 311 309 308 308 307 307 307 306 305 305 304 304 303 303 303 302 302
320 321 320 320 320 320 320 320 319 317 310 309 308 307 306 306 305 307 309 307 304 303 307 311 313 311 309 308 307 307 307 307 307 307 306 305 305 305 304 303 303 302 302
323 324 323 322 323 321 321 320 317 312 310 309 308 307 306 306 305 304 307 307 305 303 302 302 306 307 308 308 307 307 307 307 306 306 307 306 308 307 306 306 305 303 303
325 326 324 324 322 321 321 319 313 310 309 309 308 307 307 306 306 304 304 305 303 302 303 302 300 300 300 298 298 300 301 302 302 303 304 305 306 306 305 304 304 305 306
326 325 324 323 322 321 320 317 313 310 310 310 310 309 309 307 306 305 304 304 303 303 303 302 301 301 301 299 298 299 300 300 301 302 303 303 304 303 302 302 301 302 303
321 325 324 323 322 320 318 315 312 311 311 311 311 309 309 309 307 306 305 305 304 303 303 302 302 302 301 300 299 301 300 300 300 300 300 300 300 300 300 300 300 300 301
322 324 326 324 320 320 316 313 311 312 312 312 311 312 312 310 309 307 306 305 305 304 303 303 302 302 301 301 300 301 300 300 300 299 299 298 298 298 298 298 298 298 298
323 324 325 323 321 318 315 313 312 312 312 312 312 310 307 309 308 307 306 306 305 304 304 303 303 302 301 301 300 300 299 300 298 297 297 297 296 296 296 296 296 296 297
325 325 325 323 321 318 315 313 312 312 313 312 311 311 306 306 305 306 307 307 305 305 304 304 302 303 302 301 301 300 299 298 297 297 296 295 295 294 294 295 295 295 295
325 325 325 323 322 318 315 313 312 313 314 312 311 310 309 307 302 302 304 303 303 304 303 303 302 302 302 301 300 300 299 298 297 297 295 294 293 293 293 294 293 293 293
326 325 324 323 321 318 315 313 313 313 314 311 310 309 306 306 306 302 300 301 302 302 300 299 299 299 299 300 299 299 299 298 297 296 295 293 292 293 292 292 292 292 292
325 323 324 322 320 317 315 314 313 313 313 312 309 307 304 303 302 301 298 299 300 301 300 299 298 297 297 297 297 298 298 298 297 296 294 292 292 291 292 292 291 290 290
324 323 323 323 319 317 315 314 313 313 312 310 308 305 304 302 301 301 301 300 299 300 299 299 298 297 296 297 296 297 298 297 296 295 293 292 291 290 290 290 289 288 288
325 323 323 322 319 317 315 314 313 311 310 309 305 303 303 303 301 301 300 300 296 297 298 298 298 297 296 296 295 295 296 296 295 294 293 292 292 291 289 289 288 287 287
324 322 322 319 318 316 315 312 310 308 308 304 303 303 304 303 301 301 301 300 298 295 294 297 297 297 297 296 295 295 295 294 294 293 293 292 292 290 289 289 288 287 286
322 321 319 318 316 313 310 309 310 308 304 304 305 304 303 302 302 301 301 300 299 298 296 297 297 297 297 296 296 295 295 294 294 293 293 292 291 290 290 288 286 285 285
322 320 318 317 315 311 313 311 309 308 308 305 304 304 303 302 301 301 300 300 299 299 297 297 297 297 297 296 296 295 295 294 293 293 293 292 291 290 289 287 286 285 284
322 320 318 316 313 314 311 309 308 308 305 303 304 302 302 301 301 301 300 300 299 299 298 296 296 297 296 295 294 294 293 292 291 291 291 291 291 289 289 287 285 285 285
320 318 316 315 314 311 308 308 307 307 304 303 302 302 301 300 299 298 297 297 297 297 297 297 295 295 294 293 293 292 292 291 291 290 290 291 290 288 287 286 286 286 285
320 317 315 313 311 309 308 308 306 303 302 302 302 300 298 297 296 296 296 296 296 296 296 295 295 294 293 293 292 291 291 290 290 290 290 290 289 288 287 286 286 286 285
316 314 312 311 308 308 307 305 302 302 301 298 297 295 295 294 294 293 293 293 293 293 293 293 292 292 292 292 292 292 290 290 290 290 290 289 288 287 286 286 285 285 284
312 311 309 307 307 306 303 302 302 299 298 296 295 292 291 292 292 292 293 294 293 291 291 291 290 290 291 291 292 292 290 288 288 289 288 288 287 286 285 285 285 284 285
308 307 307 307 303 301 301 299 297 297 295 294 292 291 291 293 293 292 291 291 290 289 288 287 289 290 290 291 291 290 290 289 288 288 287 286 286 285 285 284 283 284 285
307 306 303 301 301 301 297 296 295 294 293 292 293 293 292 291 290 288 287 287 286 286 286 286 286 287 287 288 289 289 289 289 288 288 286 285 285 285 284 283 284 285 284
301 300 300 300 299 296 295 294 293 293 292 292 291 290 288 287 286 285 286 286 287 286 286 285 286 286 286 286 288 288 287 286 286 286 286 285 285 285 284 284 284 284 283
301 300 297 296 295 293 293 293 292 290 288 287 285 285 284 283 284 285 285 283 283 284 284 286 286 286 286 285 286 286 287 286 285 284 286 285 284 284 283 283 283 283 283

GFSMA_925_thetae_084.txt.gz
Theta_e
324 325 324 320 316 319 319 319 319 317 314 310 308 307 307 308 309 309 307 306 319 318 316 314 313 312 310 308 308 307 307 308 307 306 306 305 305 305 304 304 303 303 303
319 319 319 317 318 319 319 319 319 316 312 309 307 307 307 306 306 307 306 304 310 313 312 313 313 312 310 309 307 308 308 307 307 307 306 306 307 307 306 305 305 304 304
318 319 318 319 319 319 320 320 318 312 310 309 307 306 306 306 305 305 307 305 303 302 302 302 305 305 306 308 307 304 302 304 305 304 305 306 307 306 305 305 304 305 306
320 320 320 320 320 320 320 319 316 311 310 308 307 307 306 306 305 304 305 306 304 302 302 302 301 301 301 299 299 301 301 302 302 303 304 304 305 305 304 303 302 301 301
324 323 321 322 322 321 320 319 315 311 309 308 308 307 306 306 305 305 304 304 303 303 303 303 301 302 302 301 299 299 301 301 302 301 301 302 302 301 301 300 300 300 300
323 325 324 323 322 321 321 318 312 310 310 310 309 308 307 307 306 305 304 304 304 304 303 303 302 302 302 301 300 300 301 300 300 300 300 300 299 299 298 298 298 298 299
322 324 324 323 322 322 320 316 313 311 310 310 311 310 309 308 307 305 304 304 304 304 303 303 302 302 302 301 301 301 302 301 301 300 298 297 297 297 297 296 296 297 297
319 322 324 324 322 321 318 316 312 311 312 311 311 310 307 309 309 307 305 305 305 304 303 303 303 303 302 301 301 301 302 302 300 299 298 297 295 296 295 295 295 296 296
318 321 323 324 324 321 318 315 313 311 312 311 311 310 305 305 304 306 307 307 306 305 304 303 303 303 302 301 301 301 300 300 299 299 298 297 296 294 295 295 295 294 294
318 321 323 324 324 319 319 316 313 312 312 312 311 311 310 307 302 302 304 303 303 304 304 304 303 303 302 302 301 301 300 299 299 298 299 298 296 295 294 294 294 293 293
320 321 323 325 323 320 319 316 313 312 312 313 311 310 309 307 305 302 300 302 302 301 301 301 300 299 298 298 300 300 299 299 298 298 297 297 296 295 294 293 293 293 292
321 323 325 325 324 322 319 317 314 312 313 313 312 311 308 305 303 303 300 300 300 301 301 300 299 298 297 297 297 297 297 298 298 298 297 296 295 295 294 293 293 292 291
325 325 325 325 324 322 320 317 314 313 313 312 310 308 306 304 302 301 300 299 298 299 300 299 299 298 298 297 296 296 295 295 295 297 296 295 294 294 294 293 293 292 291
324 325 325 324 323 321 319 315 313 313 311 309 309 307 305 304 301 301 300 299 295 296 297 298 298 298 297 296 296 295 295 295 295 295 295 295 294 293 292 293 292 291 290
324 325 325 323 323 321 318 315 313 311 310 310 309 308 305 303 305 305 301 301 299 295 293 298 297 298 297 297 297 296 296 295 295 295 294 294 293 292 292 291 291 291 289
325 324 324 323 322 321 317 315 313 312 311 311 310 307 303 305 304 302 302 301 301 299 294 298 298 298 298 297 297 296 296 296 295 295 294 293 292 292 291 291 290 291 289
324 322 322 320 320 319 316 313 312 312 312 310 307 304 307 303 303 302 301 301 300 299 296 298 298 298 297 297 297 296 295 295 294 294 294 293 293 292 291 291 290 289 289
322 323 321 319 318 317 315 312 312 312 310 307 307 306 303 303 303 301 301 300 300 300 298 296 297 297 297 297 296 295 294 294 293 293 292 291 291 291 290 291 290 289 287
323 321 321 319 318 316 312 312 312 310 308 308 306 304 303 302 301 301 300 298 297 296 296 296 295 295 295 295 294 294 293 292 292 292 291 289 290 289 290 290 289 288 286
322 321 320 319 317 312 311 310 309 308 308 305 304 303 302 301 298 296 295 294 294 293 293 293 292 292 292 292 292 292 292 292 292 291 290 289 289 290 289 288 288 286 286
321 322 315 312 311 310 309 309 308 307 305 303 302 300 296 295 293 293 292 292 293 293 292 291 290 290 290 290 290 291 291 291 291 291 290 290 288 289 289 289 287 286 286
314 313 311 310 310 308 308 307 306 303 302 302 296 294 293 291 291 292 292 292 291 290 289 287 287 288 287 288 289 290 289 289 289 290 289 289 288 288 288 286 286 285 284
311 310 309 309 308 307 306 304 302 301 296 294 293 292 291 292 292 292 291 290 289 288 287 286 286 286 286 286 287 287 287 287 288 288 288 288 287 286 286 286 285 284 283
308 308 308 307 306 302 301 300 297 295 293 293 293 292 292 291 290 288 287 286 286 285 285 286 285 285 285 285 286 286 287 287 287 287 288 286 287 287 287 285 285 283 284
307 307 306 303 300 300 298 294 294 293 293 292 291 290 288 287 285 284 284 284 282 282 284 285 285 285 286 286 286 286 286 285 286 286 286 286 286 285 285 285 284 283 283
303 301 300 300 298 294 293 293 293 292 291 289 287 286 284 282 281 281 281 282 284 285 285 285 285 285 286 285 285 284 285 284 285 285 285 285 285 285 283 283 283 283 283

GFSMA_925_thetae_087.txt.gz
Theta_e
328 325 322 317 316 318 318 319 319 318 314 309 308 307 307 308 308 306 308 317 317 316 315 314 313 311 309 308 308 307 308 308 307 307 306 306 307 306 305 305 304 304 304
326 325 323 317 316 318 318 319 318 316 311 308 307 307 307 307 308 306 307 318 316 316 315 314 313 312 310 308 307 308 307 307 307 306 306 307 308 306 306 306 304 304 305
325 323 322 316 317 318 319 319 316 313 309 307 307 306 306 306 305 306 305 306 310 307 305 309 310 309 308 309 308 302 302 303 304 303 304 307 306 305 304 303 303 302 302
323 320 319 316 318 318 319 319 316 312 308 307 307 306 306 306 305 305 306 305 304 302 302 302 301 301 301 304 301 302 302 302 302 304 304 304 304 303 302 302 301 301 301
318 318 318 317 318 319 319 319 316 311 309 308 307 307 306 306 306 305 305 305 303 303 303 303 302 302 302 302 300 301 302 302 302 301 301 301 301 300 300 299 299 299 299
319 319 318 319 319 320 320 319 317 311 310 308 308 307 307 306 305 305 305 304 303 303 303 303 303 302 302 302 301 301 302 301 301 301 299 297 297 298 297 297 297 297 297
323 324 320 321 322 320 321 319 316 311 309 308 308 308 306 306 306 305 304 304 304 304 303 303 303 302 302 302 301 302 304 302 302 301 300 298 296 295 294 294 296 296 296
321 322 323 323 322 321 321 320 316 310 309 309 310 309 307 308 308 307 305 304 304 304 304 303 303 303 302 302 301 301 303 304 303 302 301 300 298 296 295 295 296 296 296
320 320 322 324 323 321 321 320 315 314 310 310 310 310 305 306 305 307 306 304 304 304 304 304 303 303 302 302 301 301 301 301 302 303 302 301 299 298 296 296 295 295 295
318 318 320 323 324 323 321 319 316 314 312 311 310 310 309 308 303 303 304 305 306 305 305 304 303 302 302 302 301 301 301 301 300 301 301 301 300 299 297 296 295 295 295
317 319 321 322 323 324 323 320 317 313 312 311 311 310 308 306 305 301 300 302 302 302 301 302 303 302 300 298 298 298 299 299 299 299 299 300 301 300 298 296 296 295 295
319 318 320 320 321 323 324 322 318 315 312 311 311 311 309 306 304 303 300 301 300 301 300 300 301 300 298 298 297 296 296 296 297 297 297 299 300 300 298 297 296 296 295
318 315 314 318 320 323 324 323 319 317 313 312 312 310 310 309 303 304 304 300 299 299 300 300 300 299 298 298 297 296 296 295 295 294 295 296 297 299 298 297 296 296 295
317 316 318 320 320 323 324 322 319 317 313 312 311 312 310 308 308 308 302 300 298 297 297 299 299 299 298 298 297 297 296 296 296 295 294 294 294 295 295 296 296 295 294
322 322 322 321 322 325 324 322 319 317 313 312 312 313 310 311 311 309 301 305 300 298 296 299 298 299 298 298 297 297 297 296 296 296 295 295 294 294 294 295 294 294 293
323 323 323 323 323 324 323 321 318 315 312 312 312 311 312 312 309 303 306 302 301 300 295 299 299 299 299 298 298 297 297 296 296 296 295 295 294 294 293 293 293 292 292
324 323 323 323 323 322 321 318 317 315 312 311 312 311 311 309 305 304 305 303 302 299 295 298 298 298 298 298 297 296 296 296 295 295 294 294 293 293 293 293 292 292 291
324 323 323 322 321 322 322 319 316 314 311 310 312 310 309 305 305 305 303 302 301 300 298 296 297 297 296 295 295 295 295 294 294 293 293 292 292 292 291 291 291 291 290
321 321 323 322 321 321 318 318 317 313 311 311 310 308 306 306 304 303 302 301 300 299 297 295 294 294 294 293 292 292 292 292 292 292 292 292 291 291 290 289 288 289 290
323 321 317 318 320 318 316 313 311 310 309 309 309 307 307 304 303 302 300 298 296 295 294 292 291 291 291 292 291 291 290 290 290 291 291 291 291 291 291 289 288 289 289
324 318 316 316 319 315 314 311 310 309 308 308 307 305 303 302 300 297 295 294 293 292 292 291 290 289 289 288 288 288 288 288 288 288 289 289 290 290 289 289 288 288 288
319 318 316 316 315 312 312 311 309 307 307 306 302 301 296 293 293 293 292 292 291 291 290 288 287 287 286 286 286 285 286 287 286 286 287 288 288 288 288 288 288 288 287
318 316 313 312 311 309 308 307 307 307 304 302 301 294 292 291 291 291 290 290 290 289 287 286 286 286 285 285 285 285 285 285 285 286 286 286 286 287 288 288 287 286 285
312 310 309 307 307 307 306 305 304 302 301 296 292 291 291 290 290 289 288 287 286 285 284 283 283 284 284 285 285 285 285 285 285 285 285 286 286 287 287 288 286 286 285
307 306 305 304 305 302 302 301 300 295 292 292 291 290 290 288 285 284 283 282 282 282 284 285 285 284 285 285 285 285 285 285 285 285 285 285 285 285 285 287 287 286 285
305 305 303 302 300 297 295 295 294 292 292 290 288 286 284 283 281 281 280 281 283 283 282 282 282 282 282 283 284 284 285 284 285 284 285 284 284 284 284 286 286 285 283

GFSMA_925_thetae_090.txt.gz
Theta_e
319 316 317 317 317 317 316 314 313 312 310 309 308 307 307 307 305 314 318 317 316 315 315 314 312 311 310 309 308 308 308 307 308 307 306 308 307 307 307 306 305 304 306
319 315 316 317 317 318 317 317 316 313 311 309 307 307 308 307 306 307 316 317 315 315 315 314 313 312 310 308 308 307 307 308 307 306 306 308 307 305 305 304 303 303 303
321 318 316 316 317 318 318 318 315 312 310 307 307 307 307 307 306 307 314 317 316 315 314 314 313 310 310 309 307 303 303 304 304 304 307 307 306 305 304 303 302 301 301
325 321 317 316 317 318 317 317 315 312 308 307 307 306 306 306 305 305 308 310 310 307 304 305 304 305 307 308 303 303 303 303 303 304 304 304 304 303 302 301 300 300 299
326 323 318 316 318 318 318 317 313 313 307 306 306 306 306 306 306 305 305 305 304 303 302 302 302 302 302 302 303 303 304 303 303 302 301 300 299 299 298 298 298 298 298
325 324 319 316 318 318 318 316 316 310 308 308 306 306 305 305 305 305 305 305 304 303 303 303 302 302 302 302 302 303 303 303 302 302 301 299 297 296 294 293 294 296 297
323 321 317 317 318 318 318 318 314 310 308 307 306 305 305 305 305 305 305 305 304 303 303 303 303 302 303 302 302 303 304 304 303 302 302 301 299 296 295 295 295 295 296
318 318 318 318 318 318 319 319 316 312 309 308 308 307 306 307 306 305 305 304 305 304 303 303 303 303 302 302 302 303 305 305 305 304 303 302 301 299 298 296 296 296 296
320 319 320 319 319 321 319 319 318 317 310 308 309 309 304 307 305 307 307 305 304 303 303 303 303 303 302 302 302 302 301 302 303 303 303 303 302 301 299 298 297 297 296
320 321 321 323 322 321 321 320 319 318 314 310 309 309 309 308 305 305 305 306 304 303 303 304 304 303 303 302 302 302 301 301 301 301 303 302 301 302 301 300 298 297 296
319 319 319 319 322 323 323 322 320 316 313 312 310 310 308 306 305 303 302 302 303 305 305 305 305 304 303 302 302 302 301 301 301 300 300 302 300 300 301 301 299 298 297
316 317 318 318 319 321 322 323 320 318 315 312 312 311 310 308 305 303 302 301 301 301 301 301 301 302 301 299 297 297 297 296 296 297 298 298 299 300 300 300 299 298 298
316 316 316 317 317 319 321 322 323 320 317 313 311 311 310 310 310 310 306 303 304 305 301 300 300 299 299 298 298 297 296 295 295 295 294 294 294 295 298 298 298 297 297
316 315 315 316 317 318 320 321 322 321 320 317 314 313 310 311 311 311 308 305 299 298 298 300 300 300 299 298 298 297 296 296 296 296 296 295 295 294 294 294 297 297 296
316 316 317 317 318 318 319 320 321 322 320 317 316 314 311 310 311 309 309 311 305 300 298 299 299 300 299 298 298 297 297 297 296 296 296 296 295 295 295 294 294 296 296
316 316 318 319 320 321 321 321 320 321 318 317 315 313 310 310 313 308 310 309 302 302 300 301 300 300 299 299 298 298 297 297 297 296 296 296 295 294 294 294 294 293 294
317 317 318 320 322 322 322 321 321 321 319 315 313 312 310 311 312 309 308 305 304 301 299 299 299 299 299 299 298 297 296 295 295 295 295 294 294 293 293 292 292 292 292
317 318 320 321 322 321 321 320 321 320 316 313 311 310 309 310 310 309 308 304 304 302 301 297 298 298 298 297 296 295 295 294 294 293 293 292 292 292 292 292 292 292 291
321 322 322 321 321 320 321 322 321 318 318 313 310 310 310 310 307 307 304 304 303 302 300 297 297 296 295 294 293 292 292 292 292 292 291 291 291 292 291 291 291 290 290
323 323 322 323 321 320 319 320 319 314 311 310 310 310 308 308 307 306 305 303 302 301 298 295 293 292 291 292 291 290 290 290 288 287 286 285 285 287 290 290 290 290 290
322 322 322 322 319 317 315 316 316 313 312 310 308 307 306 306 306 304 302 302 300 296 293 291 290 289 289 289 289 288 286 285 285 285 285 285 285 286 286 288 289 289 289
322 321 321 321 317 314 313 315 316 313 310 308 306 305 304 303 302 302 298 294 293 292 291 290 289 287 287 287 286 285 285 285 285 285 286 286 285 285 285 285 286 286 288
322 321 321 318 318 316 314 312 310 308 305 303 303 299 297 296 296 294 292 291 290 290 289 288 287 286 285 284 284 284 284 284 284 284 285 285 285 285 286 285 285 287 288
318 316 314 312 311 309 309 308 305 305 303 300 299 297 295 291 289 290 289 290 289 287 284 283 283 283 284 285 285 285 285 285 285 285 285 285 285 285 284 285 285 285 287
309 307 305 305 306 304 304 304 304 301 297 294 292 290 289 288 287 289 288 284 282 282 282 283 284 283 283 283 283 283 284 285 285 285 285 285 285 284 284 284 285 285 286
304 303 301 300 298 296 297 299 298 293 289 287 287 288 287 285 283 281 281 281 281 283 282 281 280 280 279 280 280 283 284 285 285 285 285 284 284 284 285 285 285 286 286

GFSMA_925_thetae_093.txt.gz
Theta_e
324 322 318 317 316 317 319 321 320 315 312 310 309 310 310 314 317 318 317 316 316 316 315 314 313 312 310 310 310 309 308 309 308 307 309 308 308 308 305 305 304 304 304
322 319 317 317 316 316 318 317 315 313 310 308 307 306 306 309 316 318 317 316 315 315 315 314 313 311 310 309 309 308 308 308 308 307 309 308 306 305 305 304 303 303 303
319 318 317 317 316 316 315 314 312 310 309 308 307 307 307 306 310 317 317 317 315 315 315 314 314 312 310 310 307 305 306 305 305 308 308 307 306 305 303 303 302 301 301
318 317 317 317 317 316 315 314 312 309 309 308 307 307 307 306 307 312 317 317 316 314 314 314 313 310 311 310 305 305 304 304 305 305 306 305 304 300 299 298 298 299 299
316 317 317 317 317 316 316 316 312 310 308 308 307 307 306 306 306 311 315 315 312 311 311 310 305 304 305 307 305 305 305 304 305 304 302 300 296 296 295 294 295 297 298
317 316 316 317 317 315 314 315 313 310 308 307 306 306 306 305 305 306 308 308 308 305 304 309 306 305 302 303 304 305 305 305 304 303 302 302 299 296 295 295 295 294 294
323 321 317 316 317 316 316 316 311 309 307 306 306 306 305 305 305 305 305 306 305 303 303 303 307 305 304 302 303 304 305 305 304 304 304 302 301 299 297 295 295 295 296
323 324 322 317 317 318 317 316 315 309 308 306 309 309 310 308 306 304 305 306 305 305 303 303 303 303 303 305 305 304 305 306 306 305 305 304 302 301 299 298 298 298 297
319 319 321 318 317 318 318 318 316 312 310 307 308 312 312 314 311 308 306 304 305 305 305 304 303 303 303 303 302 302 303 305 306 306 305 305 304 303 302 301 299 299 298
317 318 318 317 317 317 318 318 318 315 312 311 308 308 309 310 313 313 307 307 305 304 304 304 303 303 303 303 302 302 302 302 302 302 304 304 304 304 304 303 302 300 299
316 316 318 319 318 318 319 320 319 318 315 313 311 310 308 307 307 311 315 308 304 307 305 304 303 303 303 303 303 303 302 302 301 301 301 302 304 303 302 302 302 302 301
315 318 318 317 318 320 321 321 321 319 318 315 313 311 310 310 308 307 309 304 306 306 305 305 305 305 305 304 303 302 302 301 300 299 298 298 299 302 301 301 301 301 302
318 318 319 319 319 319 319 320 321 321 320 317 314 312 311 311 312 310 310 308 307 305 302 302 303 304 302 302 301 299 299 297 297 296 296 296 296 295 297 299 299 299 299
317 317 316 316 317 318 318 319 320 320 321 321 319 315 313 311 311 311 310 309 304 304 302 304 305 301 301 300 298 298 300 297 296 295 295 295 295 295 295 294 296 297 297
317 317 316 316 316 316 317 317 318 318 319 319 318 317 315 312 310 310 310 310 310 310 302 303 301 301 301 299 299 300 298 297 296 296 296 296 296 296 296 295 295 295 295
316 316 316 316 317 317 317 318 318 319 318 318 317 316 315 312 310 309 309 311 309 309 311 305 302 301 301 300 299 298 298 298 297 297 297 296 296 296 296 295 294 294 294
317 317 317 317 316 317 317 319 320 320 319 318 316 316 316 313 310 309 308 311 309 307 309 306 304 301 300 299 299 298 298 298 297 297 296 295 295 295 294 293 293 293 293
316 316 317 318 319 318 318 320 320 318 318 318 317 315 316 312 310 308 308 309 306 304 304 304 301 300 299 299 299 298 297 296 295 295 294 294 294 293 293 292 292 292 292
315 316 317 318 317 317 319 322 320 319 317 316 316 316 316 314 310 308 308 307 305 303 302 300 299 298 298 299 297 296 295 293 292 292 292 292 291 291 291 291 291 291 291
317 318 319 319 319 320 321 321 320 318 316 315 316 317 315 312 310 308 307 305 303 302 300 298 297 296 295 294 293 293 293 292 291 290 289 287 286 285 285 285 285 286 288
320 321 321 321 321 321 321 320 318 316 316 315 314 313 312 311 310 308 306 303 303 301 298 295 293 291 293 291 292 292 291 290 289 287 287 287 287 287 287 286 286 286 286
321 321 321 321 321 321 321 321 319 315 314 313 310 308 307 306 305 305 304 303 302 300 296 291 292 291 290 289 290 289 288 287 287 287 287 287 286 286 286 287 287 286 285
321 321 321 320 319 317 316 316 314 312 310 308 306 303 302 301 300 299 295 294 292 292 292 291 290 288 288 288 286 286 286 286 286 286 286 286 286 286 287 287 286 285 284
318 316 314 313 312 310 310 310 310 307 304 299 297 296 295 293 292 292 291 290 289 289 288 287 286 285 285 285 285 285 286 286 285 286 286 286 286 286 286 286 286 285 285
310 307 304 304 303 299 300 302 304 299 294 291 290 289 289 287 287 288 288 286 285 284 283 283 284 284 284 283 283 284 285 285 285 285 285 285 286 286 286 286 286 285 285
301 300 296 295 294 292 294 297 298 293 289 287 286 285 285 283 282 282 282 282 283 284 282 282 281 280 280 280 279 280 282 283 284 284 285 285 286 285 286 285 286 286 286

GFSMA_925_thetae_096.txt.gz
Theta_e
329 325 324 326 326 326 326 325 324 323 321 319 318 319 319 319 319 318 318 316 316 317 316 315 314 312 312 311 310 310 310 309 308 309 309 309 309 307 306 305 305 305 304
326 324 324 324 326 326 326 325 323 320 317 316 317 317 317 318 318 319 318 317 316 316 316 315 314 313 311 311 310 309 310 309 308 310 309 309 307 306 305 304 303 303 303
325 324 323 322 322 323 323 323 320 317 314 313 312 312 314 317 317 318 318 317 316 315 315 314 314 312 311 310 309 309 309 309 308 309 309 308 306 306 304 302 301 301 301
323 322 322 321 320 321 321 319 317 315 314 313 312 312 312 313 316 318 318 317 316 315 315 314 313 312 311 311 307 306 307 306 306 309 308 307 305 304 301 299 299 299 299
323 323 322 321 319 318 318 317 316 316 315 314 313 312 312 312 314 316 318 317 316 315 314 314 313 312 312 311 307 307 306 305 306 307 306 304 302 298 295 294 294 294 295
322 321 321 321 319 317 317 316 316 316 316 315 313 312 312 312 311 314 316 317 315 314 313 313 312 309 307 308 307 307 307 306 306 305 304 303 301 297 296 295 296 296 296
321 320 321 321 320 319 318 317 317 316 316 314 312 311 311 310 310 310 312 314 314 313 311 311 310 308 306 304 306 307 308 308 307 306 305 304 302 301 299 298 298 298 298
320 320 321 321 320 320 319 318 317 316 315 312 312 312 313 311 309 309 310 311 311 310 310 310 310 309 308 307 306 305 307 308 308 306 306 305 304 302 301 300 299 299 299
322 320 320 320 321 320 320 318 317 317 316 312 312 314 317 318 316 311 310 310 311 311 310 309 309 309 308 308 307 306 304 306 308 308 307 307 306 304 303 302 301 300 300
321 321 322 321 321 321 321 319 318 318 317 315 312 313 315 316 318 318 313 311 310 310 311 310 309 309 308 308 307 307 306 303 304 307 308 308 307 306 305 305 304 303 302
322 321 320 321 320 321 321 321 319 319 319 319 316 315 313 313 314 315 319 314 311 310 310 310 309 307 307 307 307 306 304 304 303 302 303 305 306 306 305 305 305 305 304
321 319 317 318 318 321 321 322 322 321 320 319 320 318 318 318 317 316 313 312 314 312 310 309 306 307 307 305 305 305 304 303 302 302 302 301 301 304 305 304 304 303 302
319 317 317 317 318 318 321 322 323 323 323 321 320 319 317 317 317 315 312 314 312 311 308 307 308 309 306 304 304 304 305 303 302 302 301 300 299 298 301 303 302 301 301
318 318 319 317 315 316 319 320 321 323 323 322 322 322 320 320 316 313 313 312 313 312 311 307 307 304 306 306 306 305 303 302 300 300 298 297 296 296 295 295 295 297 298
319 320 320 321 321 320 321 322 322 323 323 322 322 322 321 318 315 315 314 312 313 315 313 311 308 307 304 306 305 302 302 300 301 301 297 296 295 295 295 295 295 295 295
319 319 320 320 320 320 320 321 321 321 321 321 321 321 321 319 318 317 315 313 312 312 313 312 309 309 308 305 303 301 300 300 300 299 297 296 296 296 296 296 296 296 296
319 319 319 319 320 320 320 320 320 321 321 321 321 321 320 320 318 316 314 312 310 310 311 312 313 312 308 306 302 299 300 300 299 298 297 297 297 297 296 296 296 295 295
319 319 319 319 320 319 320 320 321 321 320 320 320 319 318 317 316 315 313 310 310 309 310 311 312 309 306 303 301 300 298 298 299 300 299 297 297 296 295 295 294 294 294
319 319 320 320 320 320 320 321 321 320 318 319 320 318 318 316 314 313 312 310 309 309 309 309 310 304 300 299 298 297 298 298 299 298 296 296 294 294 293 293 293 292 292
319 319 319 319 320 320 320 321 321 320 322 322 320 319 318 315 313 312 312 310 310 309 308 306 304 298 297 296 297 297 297 297 297 296 293 292 292 291 290 290 288 287 286
319 319 320 320 321 322 322 323 322 321 321 319 318 316 315 315 314 313 312 310 308 306 302 299 296 295 295 294 293 295 293 294 294 293 292 291 289 289 289 288 287 286 286
321 321 322 322 323 323 322 321 321 319 317 316 315 314 312 309 308 309 309 307 305 301 297 295 293 292 292 292 292 291 291 291 292 291 289 289 289 289 288 288 288 287 287
321 322 322 322 321 318 318 317 315 313 311 308 306 303 300 298 297 297 296 295 294 293 294 293 291 291 290 290 290 290 289 288 288 288 288 289 289 289 288 288 288 287 287
318 314 311 309 308 305 307 309 308 304 300 296 294 292 291 290 289 290 290 290 288 288 288 288 288 287 286 286 286 286 286 287 287 287 287 288 288 289 288 288 288 287 287
304 299 297 296 296 294 297 299 301 295 291 288 288 288 288 288 288 288 289 287 287 286 285 285 284 284 284 284 284 285 286 286 287 288 287 287 288 288 288 288 288 288 287
292 292 290 289 289 289 291 293 293 290 287 286 286 286 286 286 286 286 285 284 284 284 284 283 283 283 282 282 281 281 283 284 285 285 286 286 287 287 288 287 287 287 287

GFSMA_925_thetae_099.txt.gz
Theta_e
332 330 329 329 328 327 324 324 323 325 324 321 321 321 321 320 320 320 319 318 317 317 317 316 314 314 313 312 312 311 311 310 310 310 309 309 309 307 306 306 305 305 305
330 328 328 329 328 328 326 325 324 325 323 320 320 320 320 320 320 320 319 317 317 317 317 316 315 314 313 312 311 311 311 310 309 311 310 310 307 307 305 304 304 303 303
328 326 328 328 327 327 327 326 326 323 321 319 319 319 319 320 320 320 319 318 317 316 316 316 315 314 313 312 311 310 311 310 309 311 310 308 307 306 304 303 302 302 302
327 325 327 328 327 327 327 326 324 321 318 316 315 315 317 318 319 320 319 319 317 316 316 315 314 314 312 312 310 311 310 309 309 310 309 308 307 306 304 300 299 299 298
325 324 324 324 326 326 325 325 322 319 318 316 315 315 315 315 318 319 319 319 318 317 316 315 314 313 312 312 311 309 309 308 307 310 309 308 306 304 301 297 297 296 295
324 323 318 323 323 324 323 322 320 319 319 318 316 315 315 315 316 317 319 319 318 317 317 316 314 313 313 311 312 309 309 308 307 309 308 306 304 302 301 299 298 298 298
323 319 318 323 322 322 320 319 320 320 320 319 317 316 315 315 314 315 317 318 318 317 316 316 316 314 312 309 311 309 310 309 309 308 307 305 304 302 301 300 300 299 299
320 323 323 323 320 320 320 320 320 321 320 319 317 317 317 314 313 313 313 316 317 316 315 314 313 313 311 309 308 307 309 310 310 309 308 306 305 304 302 301 301 300 300
320 317 321 322 321 321 321 320 321 320 320 318 316 318 318 319 317 313 312 312 313 315 314 313 312 312 312 311 309 307 306 308 310 310 309 308 307 306 305 304 303 302 301
319 320 321 322 322 322 321 321 321 320 321 319 317 316 317 319 322 321 313 312 312 313 314 313 312 312 312 312 311 309 308 305 307 309 310 309 308 308 307 306 305 304 303
321 321 321 321 322 322 322 322 321 320 321 320 318 318 316 317 317 318 321 317 315 313 313 314 313 313 312 312 311 309 309 308 307 305 308 309 309 309 310 308 307 306 306
322 320 321 322 323 323 322 322 321 320 321 321 321 320 319 319 318 318 319 319 315 314 314 312 312 313 313 311 310 309 310 308 307 306 304 304 307 309 308 308 308 308 307
321 320 321 322 322 323 322 321 320 320 323 323 322 322 322 321 321 320 318 317 318 316 316 315 315 314 312 311 309 309 309 308 307 305 304 304 303 303 305 305 306 306 306
322 322 321 318 318 318 317 320 321 319 319 323 324 324 324 323 322 320 319 316 316 317 316 314 315 314 312 310 310 309 308 307 306 305 304 303 302 302 301 301 301 303 305
323 322 320 320 319 319 319 317 320 320 320 321 323 324 323 324 323 323 322 318 317 318 318 317 315 312 311 310 310 309 306 305 305 304 305 303 302 301 300 298 297 296 297
320 320 321 320 320 318 319 320 320 321 321 322 323 324 323 323 322 321 320 317 316 315 317 317 315 313 312 310 313 314 307 307 305 306 305 302 300 299 297 296 295 295 295
321 321 321 321 321 321 321 322 322 322 322 322 322 323 323 323 323 322 321 319 318 316 315 316 314 314 311 311 311 312 309 305 305 304 303 299 300 299 297 295 295 295 296
321 321 320 320 321 321 321 321 322 322 322 322 323 323 323 323 323 321 321 319 317 316 314 313 314 313 313 312 311 309 307 304 304 303 301 300 299 297 296 296 296 296 296
321 321 321 321 321 321 321 322 322 322 322 323 323 323 322 321 319 319 318 316 315 314 313 311 312 312 311 311 310 308 306 303 301 301 300 299 298 297 296 296 296 295 295
322 322 322 322 322 322 322 322 322 322 323 323 323 320 320 321 320 318 317 315 314 312 310 309 309 308 305 302 301 299 298 298 298 298 298 296 296 294 294 294 293 293 293
322 322 322 322 322 322 321 321 321 321 322 322 321 320 317 314 314 312 311 310 311 310 309 308 302 298 297 296 296 296 297 296 295 295 293 293 292 292 292 291 291 291 289
323 322 322 322 322 320 320 322 323 323 320 315 312 308 305 303 301 299 299 299 300 301 299 298 294 294 292 292 293 293 292 291 292 292 291 291 291 290 290 290 290 289 289
322 320 316 317 313 311 312 316 315 311 306 302 299 297 295 293 293 293 292 293 292 292 292 292 290 289 289 289 290 290 290 290 290 289 289 289 289 289 289 289 289 289 289
315 310 306 304 302 298 301 303 305 301 296 293 291 290 290 290 290 290 290 290 289 289 289 289 289 288 288 288 288 288 288 287 287 287 287 288 289 289 289 289 289 289 289
298 294 293 293 293 291 295 297 298 293 291 288 288 287 288 288 289 289 288 287 286 286 286 286 285 285 285 285 284 284 286 287 288 288 288 288 288 288 288 289 289 289 289
290 290 289 289 289 288 289 290 290 289 287 286 285 285 286 285 285 286 285 285 287 286 285 285 285 285 284 284 283 282 282 283 284 285 286 285 286 286 288 289 288 288 289

GFSMA_925_thetae_102.txt.gz
Theta_e
333 332 330 327 321 321 320 314 320 321 320 318 321 321 322 321 320 319 317 317 317 318 317 316 315 314 314 313 312 312 312 311 311 311 310 310 309 307 307 306 306 305 305
333 332 330 329 324 324 323 318 322 324 323 321 321 321 321 321 320 319 317 317 317 317 317 316 315 315 314 313 313 312 312 311 311 311 310 310 308 307 305 305 305 304 304
332 330 329 329 328 326 325 323 323 325 323 321 321 321 320 320 320 319 318 317 317 316 316 315 315 315 314 314 312 312 312 310 310 312 310 310 308 306 304 304 303 303 303
330 328 328 328 327 327 327 325 326 324 322 320 320 320 320 320 320 320 319 318 315 316 316 316 315 315 314 314 313 312 312 312 310 312 311 310 308 307 305 303 302 302 302
328 328 328 328 329 327 328 327 325 323 320 319 318 318 318 319 320 320 320 319 317 316 315 314 314 315 314 313 313 312 312 311 311 310 311 310 308 308 306 303 302 301 301
327 327 327 327 328 327 327 326 323 321 318 317 316 316 315 316 318 319 319 320 318 317 317 316 314 312 312 312 313 313 312 312 310 310 311 310 309 307 305 302 301 301 300
327 326 325 325 326 326 325 324 322 319 318 318 317 316 315 315 316 317 318 319 319 318 318 317 316 315 312 311 310 313 311 311 311 310 311 310 309 307 304 302 301 300 300
325 324 323 323 324 325 324 322 320 319 320 320 319 317 316 315 315 315 316 318 319 318 318 317 317 316 315 313 312 308 311 312 312 311 310 310 309 306 304 303 302 302 301
324 322 317 318 322 322 321 320 320 320 322 320 318 318 318 317 315 314 314 314 317 318 317 317 316 315 315 314 312 311 307 306 311 312 311 310 309 307 306 304 304 303 303
323 320 319 321 318 321 320 319 320 321 321 318 317 318 317 319 320 315 313 313 313 313 315 316 315 314 313 313 313 311 310 309 306 309 312 311 310 309 308 307 306 306 305
321 320 322 320 319 321 320 320 321 321 322 319 318 317 317 317 318 318 318 313 312 312 313 314 314 314 313 312 312 313 312 311 309 307 308 311 311 310 309 308 308 308 307
320 320 318 319 322 321 321 320 321 320 320 321 319 318 317 317 317 318 316 317 316 315 313 313 313 314 313 313 313 313 313 312 311 309 308 306 311 311 310 309 309 310 309
319 319 316 319 321 320 317 319 321 321 321 321 320 321 320 318 319 319 318 318 317 318 316 314 314 313 313 313 313 314 313 312 311 310 309 308 306 307 311 311 310 310 310
319 319 318 321 319 320 319 319 320 321 320 320 321 321 320 320 321 322 321 320 317 318 318 317 317 316 314 314 313 315 314 314 312 311 309 309 308 306 305 307 310 310 309
322 321 320 320 320 319 316 321 320 319 320 320 319 318 319 320 321 323 322 321 319 319 317 317 317 317 316 316 315 315 314 313 312 311 309 309 308 307 306 305 304 305 306
321 321 321 320 320 320 320 318 318 319 321 320 321 321 321 320 320 322 322 323 321 319 319 318 317 317 317 317 316 314 313 312 312 311 310 310 310 308 306 305 304 303 302
322 323 321 320 321 320 320 320 320 319 319 320 321 322 321 320 322 323 323 323 322 320 318 318 317 317 317 316 315 314 313 311 311 311 312 312 309 307 306 304 303 302 300
322 322 322 322 321 321 320 320 320 322 322 323 322 323 323 323 323 323 323 323 322 320 318 319 318 316 315 314 314 313 311 311 310 311 310 308 307 306 304 303 301 298 296
323 322 321 321 321 321 321 321 322 322 322 322 322 323 323 322 323 323 323 321 321 320 318 316 315 314 313 312 312 311 310 310 308 305 304 304 303 301 301 299 297 296 295
323 322 322 322 321 321 321 321 322 322 322 323 323 322 320 319 315 315 314 313 312 312 313 313 312 310 308 306 304 303 303 303 302 302 300 299 299 298 298 297 296 294 294
322 322 322 322 322 322 322 322 323 323 321 320 317 313 305 301 301 301 303 302 302 303 302 301 300 298 296 295 295 295 296 297 298 298 298 297 296 296 296 295 294 293 292
324 323 323 323 320 316 313 319 320 320 317 313 306 299 295 294 293 294 293 294 296 295 295 294 292 292 290 290 291 291 291 291 292 293 293 292 292 292 292 292 292 292 292
318 317 314 312 309 306 307 315 318 311 305 298 295 293 291 291 291 291 291 290 291 291 290 290 289 288 288 288 288 289 289 289 290 290 289 289 290 290 291 291 290 290 290
309 304 300 299 298 296 299 301 301 297 294 291 290 289 289 289 289 289 289 288 287 287 286 286 286 286 286 286 285 285 285 286 287 287 287 288 288 288 288 288 288 289 290
297 294 293 292 291 290 293 294 295 292 289 287 286 286 286 286 286 287 286 287 287 285 285 285 285 285 284 284 284 283 283 283 284 285 284 283 286 285 285 286 287 288 289
289 288 288 288 288 288 289 290 290 288 287 285 284 283 283 283 283 284 283 282 282 283 283 283 283 283 284 284 284 283 282 281 282 284 282 280 281 281 282 283 286 284 283

GFSMA_925_thetae_105.txt.gz
Theta_e
331 329 326 320 314 312 311 310 311 316 319 322 322 321 321 320 319 316 317 318 318 318 318 317 316 315 315 314 314 313 313 312 312 312 311 311 311 310 308 307 307 306 306
331 328 324 318 316 314 311 311 314 314 318 320 322 321 322 320 319 317 317 317 317 317 317 317 316 316 315 314 313 313 313 312 312 311 311 310 308 308 307 306 305 305 305
330 329 324 319 317 315 312 318 319 319 319 319 321 321 321 320 319 317 316 317 316 317 317 317 316 316 315 314 313 313 312 312 312 311 311 311 309 307 306 304 304 304 304
331 329 326 321 319 317 315 320 322 322 322 321 321 321 321 320 319 319 316 315 316 315 316 315 316 316 315 315 314 313 313 312 311 312 312 311 309 308 306 303 304 304 304
330 329 329 324 324 321 319 321 322 324 321 320 321 320 320 320 320 319 318 316 314 314 315 315 314 314 314 315 315 314 313 313 313 311 313 311 310 309 307 305 304 303 303
330 329 329 327 327 324 323 322 325 324 321 320 320 319 319 319 320 320 319 318 317 315 315 314 313 314 314 313 314 315 314 314 314 313 312 312 311 310 309 307 304 303 303
328 328 328 327 328 326 326 324 325 323 320 319 317 317 316 317 319 319 320 319 318 317 317 317 316 314 312 312 310 312 314 314 315 313 313 312 312 311 309 308 305 303 303
324 328 327 327 327 327 327 326 323 320 319 317 315 315 313 315 316 317 318 319 319 318 317 317 317 316 315 314 313 311 311 314 314 314 314 312 312 311 310 308 306 304 303
326 327 326 327 327 326 326 324 321 319 318 319 316 316 315 315 313 315 315 317 318 319 318 318 317 317 317 316 316 315 313 310 310 313 314 313 311 312 310 309 307 305 304
325 326 324 325 326 326 324 322 320 319 320 320 316 318 318 318 313 312 314 314 315 317 318 318 317 317 316 316 315 314 314 313 312 309 309 313 313 311 311 309 308 306 305
325 325 323 323 323 323 323 323 321 319 321 320 319 317 317 317 318 315 312 312 313 313 313 316 317 317 316 316 315 314 313 313 313 312 310 307 311 313 312 310 308 308 307
323 322 320 321 321 320 320 320 320 321 321 321 320 319 317 317 316 316 313 314 313 315 314 313 313 312 313 314 314 314 313 313 312 312 312 310 307 312 313 312 310 309 309
322 322 320 320 319 320 318 320 320 320 318 321 320 320 319 318 318 318 316 315 314 317 317 316 315 315 314 314 314 314 314 313 312 312 313 313 311 308 311 314 313 311 310
321 321 320 319 318 318 319 320 320 316 318 320 320 320 320 318 319 319 319 318 314 315 317 318 319 318 316 315 314 314 314 314 313 313 314 314 312 311 309 310 312 312 312
320 320 320 318 317 320 321 320 317 317 317 320 320 320 320 320 320 319 319 320 320 319 318 318 318 318 318 318 317 317 317 316 316 315 314 314 314 312 311 310 309 310 311
320 320 319 316 317 320 320 319 319 318 318 315 319 319 319 319 318 318 319 319 320 320 320 320 319 318 318 317 318 317 317 317 316 315 315 314 313 313 312 311 310 308 308
320 319 319 318 319 319 318 319 319 318 321 320 320 321 321 320 320 320 320 320 321 321 320 320 320 320 319 318 317 317 317 316 316 315 314 313 313 311 311 310 308 309 307
321 319 319 318 319 318 320 320 319 319 320 319 319 319 319 320 321 321 321 321 321 321 321 321 320 320 318 317 316 315 313 313 313 312 310 310 309 309 308 308 307 306 305
321 322 321 320 320 319 319 319 319 319 319 319 319 320 321 322 321 321 320 319 317 318 317 314 313 313 313 312 309 308 307 307 306 305 305 305 305 305 305 305 304 303 301
322 322 322 322 321 321 320 320 320 320 320 321 320 319 318 316 313 311 310 309 308 307 308 306 304 302 300 299 297 296 296 297 298 298 298 299 299 299 299 299 297 297 298
322 322 322 322 321 321 321 321 321 321 320 317 312 307 303 300 299 300 301 299 299 300 298 296 294 294 291 291 290 290 291 292 293 293 293 294 294 294 294 294 294 295 295
323 323 322 321 319 317 316 319 319 318 315 308 300 296 294 293 293 292 292 292 293 292 291 290 288 289 287 287 287 288 288 289 290 290 288 288 288 289 289 290 291 291 291
319 317 315 313 310 308 312 316 316 311 304 296 293 292 290 290 290 290 289 288 287 287 287 287 286 285 285 285 284 284 284 284 286 285 286 287 287 287 287 287 288 288 288
308 305 303 302 301 297 301 303 305 299 293 290 289 288 288 288 288 288 288 286 286 285 285 285 285 285 284 284 284 283 283 282 282 283 282 283 283 281 281 282 285 286 287
296 293 292 292 291 290 292 294 295 291 288 286 285 285 286 285 285 284 284 283 283 283 283 283 283 284 284 283 280 279 278 278 279 279 280 278 279 278 278 279 281 281 281
290 289 288 288 288 288 288 289 289 287 284 283 283 283 283 281 281 281 281 282 282 281 280 280 281 280 279 278 277 277 277 277 278 277 278 277 277 277 277 278 278 277 277

GFSMA_925_thetae_108.txt.gz
Theta_e
329 329 329 328 321 314 315 315 318 319 319 319 321 320 319 318 317 316 318 318 319 318 318 317 317 316 316 315 315 314 313 313 313 312 312 311 311 311 310 309 309 308 307
329 329 327 326 318 311 313 313 316 319 319 320 321 320 319 319 317 316 316 317 317 318 318 318 317 316 316 315 314 313 313 313 312 312 311 311 311 311 308 307 307 306 307
330 327 326 324 316 314 311 309 313 318 320 320 321 321 320 319 317 316 315 316 317 317 317 317 317 317 316 315 314 313 313 313 313 312 311 311 310 308 307 307 306 306 305
327 328 325 320 314 312 309 309 313 318 320 320 321 321 320 319 318 317 315 315 316 316 316 316 316 316 316 316 315 314 313 313 313 313 312 311 311 309 308 306 305 305 305
329 327 323 318 314 312 310 311 313 316 317 320 320 320 320 319 318 317 316 314 315 315 316 316 316 316 315 316 316 315 315 314 313 312 313 313 312 310 309 307 306 305 305
329 326 322 318 316 315 312 317 319 321 320 321 320 319 320 320 319 318 317 315 315 314 314 314 315 314 313 313 315 316 316 315 315 315 313 313 313 312 310 309 307 306 305
329 327 322 319 318 318 313 320 322 324 322 320 320 318 317 320 319 319 318 317 316 315 315 314 313 313 313 313 312 313 316 316 316 316 315 314 314 313 311 311 310 308 305
329 328 324 321 319 320 317 320 322 322 319 320 318 316 313 314 318 319 318 319 318 317 316 315 315 315 315 314 313 312 313 315 316 317 316 315 314 312 312 311 311 310 307
328 328 327 324 323 321 322 320 323 322 319 318 319 315 312 313 312 314 315 318 319 318 318 317 317 316 316 316 316 315 314 314 313 314 315 316 315 313 312 312 312 311 309
328 328 327 326 326 325 323 322 324 321 319 316 315 315 316 315 314 313 314 314 315 318 318 318 318 317 317 317 316 316 316 315 315 313 312 311 313 315 314 312 313 311 310
327 327 327 327 326 326 325 323 322 320 318 317 316 317 317 318 317 312 312 312 314 314 315 317 318 318 317 317 317 316 316 315 315 314 314 313 312 312 315 314 314 313 311
325 324 325 325 326 325 324 322 321 320 319 318 316 317 317 316 316 316 312 313 313 316 315 314 314 315 316 317 316 315 314 315 314 314 314 313 313 313 312 313 314 314 314
325 323 324 324 325 325 325 324 322 320 320 320 319 318 318 317 317 317 316 314 313 316 316 317 317 316 315 314 315 315 314 314 314 315 315 313 313 313 312 311 312 314 314
324 322 322 322 323 324 324 323 321 321 320 320 319 318 320 319 317 317 317 316 313 313 316 317 318 319 319 318 318 318 317 316 315 314 315 313 314 313 313 313 313 313 313
323 322 321 321 321 321 320 320 319 319 320 319 317 317 319 320 319 318 318 318 318 318 316 318 318 318 318 319 319 318 318 317 316 317 317 317 317 316 315 314 314 313 312
321 321 320 320 320 320 317 317 318 320 319 318 317 319 319 320 320 320 320 319 319 319 319 318 318 318 319 319 319 318 318 317 317 316 315 314 314 314 314 313 312 311 310
321 320 320 319 318 318 319 318 318 319 319 317 317 317 318 316 318 319 319 319 319 319 318 319 318 319 319 319 319 316 317 317 315 313 311 311 310 309 309 309 309 308 308
321 320 319 320 320 319 319 320 320 319 318 317 316 318 318 318 319 319 320 320 320 320 319 319 320 320 318 315 314 314 311 308 308 307 306 304 303 304 304 303 304 304 304
320 320 319 318 318 318 319 320 320 319 318 318 318 319 319 319 319 319 318 317 315 313 312 309 309 308 306 304 303 302 301 299 299 297 297 297 297 297 297 297 297 297 297
320 320 319 319 318 318 318 317 318 319 319 318 318 317 314 311 312 310 309 307 306 306 304 300 298 296 294 292 292 290 291 291 292 292 292 292 292 291 291 292 292 293 293
321 321 320 319 319 318 318 318 318 318 319 316 310 307 302 298 297 299 299 298 297 297 294 292 291 289 288 287 287 287 287 286 288 290 288 287 287 287 287 287 288 288 289
321 320 321 321 320 319 320 319 320 319 314 308 301 296 295 294 293 292 292 293 293 292 290 290 287 287 285 284 284 283 283 284 286 286 283 283 284 285 283 282 283 284 286
319 318 314 313 311 311 314 316 317 311 304 297 294 292 290 290 290 289 289 289 287 286 286 285 284 284 284 283 282 282 281 281 281 282 281 281 282 281 279 278 279 283 282
312 309 305 304 304 298 304 308 310 301 294 291 290 289 288 287 287 287 286 285 284 283 283 284 283 282 281 280 279 278 278 278 278 278 278 278 277 277 276 276 278 280 278
300 298 296 296 296 292 293 296 299 291 288 286 285 285 285 284 284 284 284 282 281 281 282 281 280 280 278 277 276 276 275 275 275 276 275 274 275 275 274 276 277 276 276
293 292 291 291 290 289 289 289 290 287 284 283 282 282 281 281 282 282 281 279 279 279 279 279 278 276 275 274 273 273 272 273 273 274 274 272 273 273 273 274 274 274 274

GFSMA_925_thetae_111.txt.gz
Theta_e
328 326 329 330 330 325 322 323 321 319 320 321 320 319 318 317 316 317 319 320 319 320 319 319 318 317 316 316 316 315 314 313 313 313 313 312 312 312 312 310 310 309 309
328 326 330 329 329 323 320 323 320 319 319 320 320 319 319 318 316 317 319 319 319 318 319 319 318 317 316 316 315 314 314 313 313 313 312 311 312 311 310 309 308 307 307
328 330 329 328 328 321 316 321 319 318 318 321 320 319 319 318 317 317 318 318 318 317 318 318 318 317 316 316 315 314 314 314 313 313 312 312 311 311 309 308 307 307 307
328 329 327 327 328 318 316 319 318 318 319 320 320 319 319 318 317 316 316 317 317 316 317 317 317 317 317 316 315 314 314 314 313 313 313 312 312 310 309 307 307 306 306
328 327 327 326 327 316 314 316 316 317 318 320 320 320 319 319 317 317 317 316 316 316 316 316 316 316 316 316 316 315 315 315 314 314 313 313 312 312 310 309 308 307 306
327 327 325 326 324 314 313 313 314 317 318 320 320 320 319 319 318 317 316 316 315 315 315 315 315 315 315 315 316 316 316 316 316 315 314 314 314 313 313 311 310 308 307
328 326 325 325 320 313 311 311 314 318 317 319 319 317 318 318 318 317 317 316 316 315 314 314 314 314 314 314 313 316 317 317 317 317 317 316 315 314 313 313 312 311 309
326 325 324 322 317 313 311 313 316 317 318 319 317 315 312 315 318 317 317 317 318 317 316 315 314 314 314 313 313 313 314 317 318 318 318 317 316 315 314 313 313 313 312
327 325 324 322 317 315 312 314 317 319 319 318 319 317 313 314 313 317 318 318 318 317 317 317 316 316 315 315 315 314 314 314 314 315 317 317 317 317 316 315 314 313 313
328 327 326 323 318 317 314 316 319 321 320 317 317 318 316 314 313 313 314 317 318 318 318 318 318 318 317 316 316 316 316 316 316 315 314 314 314 315 316 317 315 314 314
328 328 326 322 320 318 319 316 321 321 321 318 317 315 315 315 314 312 312 311 313 316 316 317 318 318 318 317 317 317 317 317 317 316 316 315 315 315 314 313 315 316 315
327 328 328 324 322 321 321 320 321 321 320 318 317 317 316 317 316 315 313 312 312 314 315 315 315 315 315 315 316 316 316 316 316 316 315 315 315 315 314 314 315 315 316
327 327 327 326 325 323 323 322 321 321 319 318 316 316 317 317 317 317 317 315 314 316 316 316 316 316 316 316 315 315 315 316 315 315 314 314 314 313 313 313 312 313 314
326 324 325 326 326 325 324 323 321 320 318 318 317 317 317 317 317 317 316 317 313 313 315 316 317 317 317 318 318 318 318 318 318 318 317 315 314 314 316 316 315 314 312
325 324 324 324 325 325 324 322 320 320 320 321 319 317 317 318 317 319 319 316 316 318 317 317 317 317 317 317 317 318 318 319 318 315 313 311 312 315 314 313 313 312 311
324 323 323 324 324 324 323 322 321 322 320 320 320 320 319 317 317 317 319 319 319 317 318 318 318 317 318 318 318 317 317 316 314 314 314 313 312 311 310 310 309 308 308
322 321 322 322 322 322 322 322 323 320 320 319 319 319 318 317 316 318 319 317 319 318 318 318 318 319 318 317 317 314 312 312 309 308 307 306 305 304 304 303 302 302 301
322 322 321 320 320 320 321 321 319 319 318 318 318 318 317 317 318 318 317 318 319 318 318 318 319 314 312 306 305 305 303 300 299 297 297 296 296 295 295 294 294 295 294
320 320 321 320 319 318 318 319 319 318 317 318 318 318 317 317 318 318 317 316 317 315 312 310 305 303 300 300 299 296 295 295 292 291 292 291 290 289 289 289 289 289 289
320 320 319 319 320 319 320 320 319 319 319 319 318 317 316 315 313 312 311 308 306 304 302 300 296 294 292 290 289 288 287 287 288 288 288 286 284 285 285 286 285 284 286
320 320 319 319 318 318 319 319 319 319 318 316 312 308 305 305 305 303 301 299 298 296 294 292 290 288 286 285 284 283 283 283 286 286 282 283 281 282 282 282 282 281 282
320 319 319 318 318 318 318 318 318 317 316 311 304 297 295 294 294 294 293 293 293 292 289 286 285 285 283 283 282 281 280 280 281 281 279 278 279 280 278 277 277 278 281
319 319 318 318 317 317 318 318 318 315 308 301 296 293 290 290 290 290 288 288 287 286 286 284 282 281 279 278 279 278 277 277 277 277 277 277 278 276 275 274 275 278 278
315 313 311 310 310 307 312 317 316 305 297 292 291 290 288 288 287 287 286 284 282 282 282 281 279 278 277 277 275 275 274 273 274 275 275 274 274 274 273 273 275 277 276
306 303 301 301 302 296 299 305 310 295 290 288 288 287 286 285 284 286 285 282 280 279 277 277 276 276 275 274 273 273 271 271 272 272 273 271 272 272 272 273 274 273 274
298 296 293 292 290 289 289 289 293 289 285 283 284 283 283 283 283 282 281 279 277 276 276 276 274 273 272 271 271 270 270 270 270 270 271 271 271 271 271 272 272 271 270

GFSMA_925_thetae_114.txt.gz
Theta_e
328 327 327 328 329 327 324 328 324 320 322 323 323 322 319 315 315 318 320 320 320 320 320 319 319 318 317 316 316 315 314 314 314 314 313 313 313 312 312 311 311 310 309
327 327 328 328 328 326 322 326 322 319 321 322 321 320 316 315 316 318 320 320 319 319 319 319 319 318 317 317 316 315 314 314 314 314 313 313 312 312 311 309 309 307 307
328 327 327 328 328 327 322 325 321 319 320 321 320 319 317 317 316 317 319 319 318 318 318 319 319 318 317 317 316 315 314 314 314 313 313 312 312 312 310 308 309 305 307
327 328 328 327 326 327 321 324 320 319 319 320 319 319 318 318 317 317 318 318 318 318 318 318 317 317 317 317 316 315 315 314 314 314 313 313 312 312 311 310 309 308 308
328 328 327 328 326 326 321 323 320 318 319 319 319 318 318 318 317 317 317 317 317 316 317 317 317 316 316 317 317 316 316 315 315 314 314 314 313 313 312 311 310 309 308
328 328 327 327 326 325 319 321 320 317 318 319 319 317 318 318 317 316 316 317 316 315 316 315 315 315 315 315 317 317 317 317 316 315 315 315 315 314 313 313 312 311 309
326 327 326 326 325 325 317 319 319 317 317 318 318 316 317 317 317 317 317 316 315 315 316 315 315 314 314 314 314 315 317 318 318 318 317 317 316 315 314 313 314 313 312
325 323 323 324 324 321 315 316 316 315 317 319 318 316 314 316 317 317 317 317 316 316 316 315 315 314 314 313 313 313 314 316 318 319 319 318 318 317 316 316 315 314 314
327 327 326 325 324 321 314 314 315 316 317 318 318 317 313 316 314 317 317 317 317 316 316 316 316 317 316 316 315 315 314 315 314 315 317 318 318 318 317 317 317 316 315
326 325 325 323 323 321 312 312 314 316 317 317 318 317 318 315 314 313 315 318 318 317 317 317 318 318 318 318 317 317 316 316 316 316 315 315 315 314 315 316 317 317 317
326 326 325 324 323 318 312 311 314 316 317 317 317 316 315 314 314 312 312 312 316 318 318 318 318 317 317 317 317 317 316 317 317 317 317 316 316 316 315 315 315 315 316
327 325 325 324 322 319 314 311 313 315 318 318 318 318 316 315 315 313 312 311 312 313 315 315 315 315 315 315 315 315 315 315 315 315 315 315 315 315 314 314 315 315 315
328 327 326 325 324 321 317 313 316 317 319 319 318 317 317 316 316 317 317 314 314 316 317 316 316 315 316 317 317 316 317 317 317 317 316 313 313 313 312 312 312 313 314
327 327 327 325 323 322 319 317 316 318 320 320 319 317 316 316 317 317 316 315 315 314 316 317 317 317 317 317 317 317 317 315 314 314 314 314 314 313 313 312 312 312 313
326 327 327 327 325 322 321 320 318 318 319 320 318 316 316 317 317 317 317 318 316 316 316 317 317 317 317 317 317 317 315 315 314 313 313 312 311 310 310 308 310 309 308
324 324 325 326 326 324 323 321 319 319 319 319 317 317 317 317 316 316 317 318 318 316 318 318 318 318 317 317 316 315 313 312 310 306 303 301 301 302 303 302 301 301 301
325 325 324 325 324 324 322 321 320 319 319 319 318 318 318 317 317 317 318 318 317 317 317 318 318 317 316 312 308 307 304 302 300 299 296 296 294 294 293 293 294 294 294
324 324 323 324 324 323 322 322 320 320 320 320 319 318 318 318 319 318 317 317 317 318 317 317 315 309 306 300 300 299 297 294 293 292 292 290 290 288 288 288 288 288 287
322 322 322 322 323 322 322 322 321 321 320 320 320 319 319 318 318 317 317 317 317 316 313 312 301 298 296 296 293 292 292 291 290 290 290 286 283 284 283 283 283 283 283
321 321 320 320 320 321 321 320 320 319 319 319 318 318 317 317 317 316 314 313 311 308 305 304 297 292 292 290 289 288 285 285 286 286 284 282 280 280 280 280 279 278 278
320 320 320 320 319 319 319 319 319 319 318 316 313 312 311 311 311 310 308 304 302 300 297 293 289 287 285 284 282 281 281 281 282 283 280 279 277 278 278 277 276 276 279
320 319 319 319 319 319 319 319 319 318 315 312 305 300 298 301 300 300 299 298 297 296 292 287 285 281 280 280 279 278 277 278 279 279 276 276 276 276 275 275 275 276 279
318 318 317 317 317 317 318 318 318 315 310 305 302 297 292 291 292 292 291 290 289 288 287 286 281 279 277 276 277 275 274 275 275 275 274 275 275 273 273 273 275 276 277
316 314 312 313 313 311 315 317 316 307 299 294 292 290 289 287 287 287 286 283 281 281 280 279 278 276 275 275 273 272 272 272 273 274 272 272 272 272 271 273 274 275 274
307 306 306 308 308 298 301 308 313 297 291 288 288 287 287 285 284 284 283 280 278 277 277 276 275 274 273 272 271 272 271 271 271 272 271 270 271 271 271 272 272 272 271
300 298 296 295 293 292 292 293 298 291 286 284 284 284 283 282 282 283 281 278 276 275 274 273 272 272 271 271 270 270 270 270 270 269 270 269 270 269 270 270 270 270 270

GFSMA_925_thetae_117.txt.gz
Theta_e
329 327 328 329 329 330 330 326 326 325 325 324 324 323 322 322 320 321 322 321 320 320 321 320 319 318 317 317 316 316 316 315 315 314 313 313 313 313 312 312 310 308 308
328 327 327 328 330 329 329 325 327 326 324 323 323 322 321 320 320 321 321 320 320 319 319 320 319 318 317 317 316 315 315 315 314 314 314 313 313 313 311 308 308 307 306
327 327 327 326 329 328 327 325 325 323 322 323 323 321 319 318 320 321 321 320 319 318 319 319 319 318 318 317 316 315 315 315 315 314 314 313 313 313 310 307 307 305 305
328 328 328 328 328 328 326 325 323 321 321 322 322 320 319 319 320 320 320 320 319 319 318 318 318 317 318 317 317 316 315 315 315 314 314 313 313 312 312 311 308 308 308
329 328 328 328 327 327 324 323 322 321 321 321 321 320 319 319 320 320 320 320 319 319 318 318 317 316 316 317 317 316 316 315 315 315 315 314 314 313 313 312 311 310 310
329 328 328 327 326 324 322 321 321 320 321 321 319 319 319 319 319 319 319 319 319 318 318 318 318 317 316 316 317 317 317 317 317 316 316 315 315 315 314 313 313 312 312
327 328 328 327 325 324 321 321 319 319 320 320 319 319 318 318 319 319 319 319 318 318 318 317 317 317 317 315 315 317 318 318 318 318 318 317 317 316 316 315 315 314 314
326 326 327 325 324 323 321 319 319 319 320 319 321 320 321 319 318 318 318 319 318 318 317 317 316 316 317 317 316 313 313 317 319 319 319 319 318 318 318 318 317 317 316
325 325 326 324 323 321 319 319 319 319 319 319 320 321 322 324 319 318 318 318 318 318 317 316 315 315 316 317 316 315 315 315 315 315 316 316 316 317 318 318 318 317 317
325 324 323 323 321 320 318 318 318 319 318 320 319 318 321 319 323 320 317 318 318 318 317 316 317 316 316 316 317 317 317 317 316 316 316 316 316 316 316 316 315 316 316
323 323 323 323 322 319 319 316 317 318 319 320 320 318 317 317 319 320 322 318 317 318 317 317 318 318 317 317 317 316 315 315 316 316 316 316 316 316 316 316 316 316 316
325 323 324 323 323 318 317 315 316 317 318 319 320 318 318 318 318 318 319 320 320 317 318 318 318 317 317 316 315 316 317 317 314 314 314 313 313 313 313 313 315 315 316
326 325 325 323 322 323 319 314 315 316 317 319 319 318 318 318 317 318 318 316 317 316 315 315 315 315 314 315 317 317 317 317 316 315 315 315 314 314 313 312 312 312 311
326 325 325 325 324 321 320 315 314 316 317 318 318 318 317 317 316 316 316 317 319 318 317 317 316 316 315 317 317 317 317 317 316 315 315 315 314 313 312 311 311 311 311
327 327 325 324 323 324 323 318 315 316 316 317 317 317 317 316 316 317 317 317 317 319 319 317 317 317 317 318 317 317 313 310 312 311 310 309 307 304 303 305 303 302 301
326 327 326 326 325 323 322 319 317 317 316 317 317 317 316 316 317 317 317 317 317 317 317 318 317 318 317 315 313 311 306 302 299 298 298 299 298 297 295 294 295 294 292
324 324 324 326 325 325 323 321 318 317 317 317 317 318 316 317 317 317 316 316 317 318 317 318 318 314 310 308 303 301 299 297 295 293 292 290 289 290 289 288 288 288 288
324 324 325 325 324 325 322 322 319 318 317 317 318 318 318 318 318 317 317 317 317 317 317 317 315 306 301 298 296 296 294 292 292 290 291 287 283 284 283 282 282 281 281
322 323 324 324 324 325 323 322 321 319 318 317 317 317 317 318 318 317 318 317 317 317 317 317 305 299 293 293 292 291 290 289 288 288 285 282 280 279 279 279 278 278 279
321 322 322 322 322 323 322 322 320 320 319 318 318 318 318 318 317 318 317 317 316 315 312 308 298 292 290 288 288 284 284 282 284 284 280 278 279 279 278 278 277 277 278
321 321 320 321 322 322 322 322 320 319 318 318 317 316 315 316 317 316 314 310 310 307 303 298 290 286 284 282 281 280 280 280 282 279 278 279 280 278 278 277 276 276 278
320 320 319 319 319 319 320 319 319 319 311 310 308 306 304 306 306 306 305 302 300 298 293 287 282 281 280 279 278 277 277 279 281 279 277 278 278 277 276 275 275 275 277
319 318 317 318 317 318 319 317 315 310 309 304 304 299 295 292 296 295 293 293 291 290 289 286 281 278 276 276 276 276 276 277 278 277 275 278 276 276 275 275 275 275 276
317 315 314 313 314 308 316 316 313 305 299 294 292 291 290 289 289 290 289 285 282 281 280 279 278 275 274 273 274 274 275 275 276 276 273 275 275 275 274 274 274 274 274
308 308 306 306 306 298 300 310 310 296 291 288 288 287 288 286 285 286 285 279 277 276 276 275 274 273 273 274 273 274 274 275 275 274 273 272 274 273 273 274 274 273 273
300 298 297 297 296 293 294 296 302 293 287 284 283 283 283 283 282 283 281 278 275 274 273 273 273 272 271 271 271 271 272 272 272 274 272 271 272 272 273 273 273 273 273

GFSMA_925_thetae_120.txt.gz
Theta_e
334 333 332 330 329 331 332 330 329 327 327 327 327 327 325 324 322 321 321 322 322 321 321 322 320 319 318 317 316 316 316 316 315 315 315 315 314 313 313 312 310 308 307
333 331 330 332 330 331 331 328 328 327 327 328 327 327 325 322 321 321 321 322 321 320 321 321 320 319 318 317 317 317 316 316 315 315 314 314 314 314 311 309 309 307 306
334 329 329 330 329 330 330 328 327 326 326 327 327 326 324 321 320 321 320 320 320 320 320 320 319 318 318 318 317 316 316 316 315 315 315 314 314 313 311 309 308 306 304
334 332 331 330 329 327 328 327 326 326 326 327 326 325 323 322 322 320 320 320 319 319 319 319 318 318 318 318 317 316 316 316 315 315 315 314 314 313 313 312 308 306 305
332 331 330 329 328 328 328 326 326 325 326 326 326 324 322 322 322 320 320 320 319 319 318 318 318 317 317 318 318 317 317 316 316 316 315 315 314 314 313 313 312 311 309
331 331 329 328 327 327 326 325 325 325 326 326 325 323 323 323 323 322 321 320 319 319 319 319 318 317 316 316 318 318 317 317 316 316 316 316 316 315 315 314 314 314 314
330 329 329 328 327 326 325 325 325 325 324 325 324 323 323 323 323 322 321 320 319 319 318 318 318 317 317 316 315 317 318 318 319 319 318 318 317 317 317 317 317 317 317
328 328 328 328 326 325 325 324 325 325 324 325 324 323 324 323 322 322 322 320 319 319 319 318 318 318 318 318 317 314 317 319 320 320 320 319 319 319 319 319 319 318 318
330 329 328 328 325 324 323 323 324 324 325 324 323 323 325 325 323 322 322 321 321 320 320 319 320 320 320 320 319 318 315 314 315 318 318 317 318 318 317 317 317 317 317
328 326 326 326 324 324 323 322 323 323 324 325 324 322 321 321 325 325 322 322 322 321 321 320 320 319 320 320 320 320 319 318 316 316 315 315 315 316 316 316 316 316 316
326 326 325 325 325 324 323 322 323 324 324 324 324 323 323 324 322 323 325 322 322 322 321 321 320 320 321 320 320 320 318 315 316 314 314 315 315 315 315 316 316 317 317
324 324 323 322 322 322 322 321 322 323 324 324 323 323 323 323 323 323 323 322 322 322 321 321 321 321 321 321 319 317 316 317 317 317 315 315 315 314 314 314 314 315 315
323 322 322 321 319 319 320 320 320 322 322 324 323 323 322 321 320 321 321 322 322 321 321 321 321 321 320 320 318 317 316 317 317 317 316 315 314 314 313 312 312 311 310
325 323 321 320 319 319 320 319 320 322 322 323 323 323 322 321 321 320 320 322 323 320 319 319 318 316 315 314 316 317 315 316 317 316 316 315 311 309 307 307 306 305 303
327 325 324 321 321 319 319 318 319 320 321 323 323 323 322 321 322 321 320 320 320 322 320 319 317 314 314 314 312 313 311 309 312 308 307 306 303 301 301 300 300 299 297
327 327 325 323 322 321 318 318 317 318 319 321 322 323 322 322 321 319 317 320 320 320 321 319 316 314 313 309 306 309 305 303 299 297 296 296 295 294 293 292 292 291 289
326 327 326 324 324 322 322 321 319 318 318 319 320 321 321 320 317 317 317 317 317 317 318 318 316 308 304 305 301 298 298 297 294 292 289 289 289 287 286 284 282 281 281
326 326 324 325 325 323 322 321 320 321 320 320 319 319 319 318 317 317 317 317 317 317 317 317 309 302 299 299 296 296 292 290 291 290 287 283 282 281 280 280 279 279 280
323 323 324 325 325 324 322 322 320 320 320 319 319 318 318 317 317 317 317 317 317 317 317 317 304 298 292 292 291 291 290 288 287 287 283 280 280 279 280 279 279 278 279
322 322 323 323 323 323 324 323 322 320 319 318 317 317 317 317 315 317 317 317 317 317 316 312 297 292 288 288 289 286 285 283 283 282 279 279 281 280 280 278 278 278 279
321 321 321 321 322 322 322 322 321 320 319 317 316 317 317 315 316 316 317 317 317 313 307 298 291 287 285 284 283 280 280 282 281 279 279 280 281 281 281 280 279 277 277
320 320 320 320 320 321 321 321 320 318 314 310 307 307 306 315 315 316 315 310 308 307 300 291 285 283 281 279 278 278 279 281 282 280 279 282 281 281 280 278 277 276 276
319 319 318 318 316 312 319 320 317 308 303 304 300 300 299 297 304 304 300 299 297 296 296 291 284 280 278 277 277 278 279 280 280 278 278 280 279 279 278 277 277 276 276
316 314 312 311 310 302 314 311 307 301 298 295 293 292 297 293 294 297 294 290 286 284 283 281 278 276 276 276 276 277 278 279 279 279 275 278 277 276 276 276 276 276 276
308 307 304 304 304 297 302 309 306 296 291 289 288 289 291 289 287 291 290 281 277 276 276 276 275 275 275 275 276 277 278 279 279 278 275 275 277 276 276 277 277 276 276
302 300 297 296 295 294 295 301 304 294 287 284 284 285 286 284 283 284 283 278 275 275 274 274 274 274 273 273 274 275 276 277 277 279 275 275 276 275 277 277 276 276 276